<?xml version="1.0" encoding="UTF-8" standalone="no" ?>
<gpx xmlns="http://www.topografix.com/GPX/1/1" xmlns:xsi="http://www.w3.org/2001/XMLSchema-instance" xsi:schemaLocation="http://www.topografix.com/GPX/1/1 http://www.topografix.com/GPX/1/1/gpx.xsd" version="1.1" creator="VisuGPX - https://www.visugpx.com">
  <metadata>
    <name>La Grande verte2010 La Féclaz</name>
    <desc><![CDATA[40 km pour 950 m de déniv, avec quelques singles tracks intéressants]]></desc>
  </metadata>
  <trk>
    <name><![CDATA[La Grande verte2010 La Féclaz_1]]></name>
    <trkseg>
      <trkpt lat="45.64721" lon="5.98432">
        <ele>1299.6400146484</ele>
        <time>2010-06-13T07:18:13Z</time>
      </trkpt>
      <trkpt lat="45.64723" lon="5.98446">
        <ele>1297.8630371094</ele>
        <time>2010-06-13T07:18:16Z</time>
      </trkpt>
      <trkpt lat="45.64727" lon="5.98457">
        <ele>1295.8220214844</ele>
        <time>2010-06-13T07:18:18Z</time>
      </trkpt>
      <trkpt lat="45.64728" lon="5.98463">
        <ele>1295.4849853516</ele>
        <time>2010-06-13T07:18:19Z</time>
      </trkpt>
      <trkpt lat="45.64727" lon="5.98494">
        <ele>1295.0200195312</ele>
        <time>2010-06-13T07:18:24Z</time>
      </trkpt>
      <trkpt lat="45.64718" lon="5.98535">
        <ele>1292.6879882812</ele>
        <time>2010-06-13T07:18:29Z</time>
      </trkpt>
      <trkpt lat="45.64715" lon="5.98544">
        <ele>1292.0989990234</ele>
        <time>2010-06-13T07:18:30Z</time>
      </trkpt>
      <trkpt lat="45.64706" lon="5.98569">
        <ele>1290.4100341797</ele>
        <time>2010-06-13T07:18:33Z</time>
      </trkpt>
      <trkpt lat="45.64683" lon="5.98608">
        <ele>1287.6929931641</ele>
        <time>2010-06-13T07:18:38Z</time>
      </trkpt>
      <trkpt lat="45.64677" lon="5.98614">
        <ele>1286.9990234375</ele>
        <time>2010-06-13T07:18:39Z</time>
      </trkpt>
      <trkpt lat="45.6466" lon="5.98631">
        <ele>1285.5639648438</ele>
        <time>2010-06-13T07:18:42Z</time>
      </trkpt>
      <trkpt lat="45.64655" lon="5.98656">
        <ele>1285.0389404297</ele>
        <time>2010-06-13T07:18:45Z</time>
      </trkpt>
      <trkpt lat="45.64662" lon="5.98667">
        <ele>1284.9780273438</ele>
        <time>2010-06-13T07:18:47Z</time>
      </trkpt>
      <trkpt lat="45.64667" lon="5.98668">
        <ele>1284.9510498047</ele>
        <time>2010-06-13T07:18:48Z</time>
      </trkpt>
      <trkpt lat="45.64695" lon="5.98684">
        <ele>1286.5529785156</ele>
        <time>2010-06-13T07:18:54Z</time>
      </trkpt>
      <trkpt lat="45.64697" lon="5.98688">
        <ele>1286.6750488281</ele>
        <time>2010-06-13T07:18:55Z</time>
      </trkpt>
      <trkpt lat="45.64706" lon="5.98709">
        <ele>1287.1650390625</ele>
        <time>2010-06-13T07:18:59Z</time>
      </trkpt>
      <trkpt lat="45.64712" lon="5.98726">
        <ele>1287.1169433594</ele>
        <time>2010-06-13T07:19:02Z</time>
      </trkpt>
      <trkpt lat="45.64715" lon="5.98738">
        <ele>1287.0009765625</ele>
        <time>2010-06-13T07:19:04Z</time>
      </trkpt>
      <trkpt lat="45.64721" lon="5.98755">
        <ele>1286.7569580078</ele>
        <time>2010-06-13T07:19:07Z</time>
      </trkpt>
      <trkpt lat="45.64737" lon="5.98786">
        <ele>1286.3370361328</ele>
        <time>2010-06-13T07:19:13Z</time>
      </trkpt>
      <trkpt lat="45.64732" lon="5.98813">
        <ele>1284.6109619141</ele>
        <time>2010-06-13T07:19:17Z</time>
      </trkpt>
      <trkpt lat="45.64724" lon="5.98832">
        <ele>1283.0510253906</ele>
        <time>2010-06-13T07:19:19Z</time>
      </trkpt>
      <trkpt lat="45.64714" lon="5.98873">
        <ele>1280.5009765625</ele>
        <time>2010-06-13T07:19:23Z</time>
      </trkpt>
      <trkpt lat="45.64714" lon="5.98919">
        <ele>1281.9389648438</ele>
        <time>2010-06-13T07:19:28Z</time>
      </trkpt>
      <trkpt lat="45.64711" lon="5.98956">
        <ele>1284.1169433594</ele>
        <time>2010-06-13T07:19:33Z</time>
      </trkpt>
      <trkpt lat="45.64701" lon="5.9899">
        <ele>1285.5679931641</ele>
        <time>2010-06-13T07:19:39Z</time>
      </trkpt>
      <trkpt lat="45.64697" lon="5.99004">
        <ele>1286.751953125</ele>
        <time>2010-06-13T07:19:42Z</time>
      </trkpt>
      <trkpt lat="45.64694" lon="5.9902">
        <ele>1287.1159667969</ele>
        <time>2010-06-13T07:19:46Z</time>
      </trkpt>
      <trkpt lat="45.64696" lon="5.99024">
        <ele>1286.9859619141</ele>
        <time>2010-06-13T07:19:47Z</time>
      </trkpt>
      <trkpt lat="45.64712" lon="5.99032">
        <ele>1285.2359619141</ele>
        <time>2010-06-13T07:19:51Z</time>
      </trkpt>
      <trkpt lat="45.64716" lon="5.99034">
        <ele>1284.9320068359</ele>
        <time>2010-06-13T07:19:52Z</time>
      </trkpt>
      <trkpt lat="45.64728" lon="5.99046">
        <ele>1286.0870361328</ele>
        <time>2010-06-13T07:19:57Z</time>
      </trkpt>
      <trkpt lat="45.64745" lon="5.99056">
        <ele>1285.7609863281</ele>
        <time>2010-06-13T07:20:02Z</time>
      </trkpt>
      <trkpt lat="45.64755" lon="5.99067">
        <ele>1285.1409912109</ele>
        <time>2010-06-13T07:20:05Z</time>
      </trkpt>
      <trkpt lat="45.64775" lon="5.99101">
        <ele>1284.3470458984</ele>
        <time>2010-06-13T07:20:12Z</time>
      </trkpt>
      <trkpt lat="45.6479" lon="5.99145">
        <ele>1282.9499511719</ele>
        <time>2010-06-13T07:20:18Z</time>
      </trkpt>
      <trkpt lat="45.64806" lon="5.99166">
        <ele>1284.4899902344</ele>
        <time>2010-06-13T07:20:23Z</time>
      </trkpt>
      <trkpt lat="45.64819" lon="5.99173">
        <ele>1284.3160400391</ele>
        <time>2010-06-13T07:20:26Z</time>
      </trkpt>
      <trkpt lat="45.64836" lon="5.99203">
        <ele>1282.2249755859</ele>
        <time>2010-06-13T07:20:31Z</time>
      </trkpt>
      <trkpt lat="45.64837" lon="5.99216">
        <ele>1282.4620361328</ele>
        <time>2010-06-13T07:20:33Z</time>
      </trkpt>
      <trkpt lat="45.64838" lon="5.99267">
        <ele>1283.1879882812</ele>
        <time>2010-06-13T07:20:41Z</time>
      </trkpt>
      <trkpt lat="45.64841" lon="5.99305">
        <ele>1284.4959716797</ele>
        <time>2010-06-13T07:20:48Z</time>
      </trkpt>
      <trkpt lat="45.64854" lon="5.99327">
        <ele>1285.2380371094</ele>
        <time>2010-06-13T07:20:53Z</time>
      </trkpt>
      <trkpt lat="45.64867" lon="5.99348">
        <ele>1286.9739990234</ele>
        <time>2010-06-13T07:20:59Z</time>
      </trkpt>
      <trkpt lat="45.64874" lon="5.99374">
        <ele>1287.2779541016</ele>
        <time>2010-06-13T07:21:05Z</time>
      </trkpt>
      <trkpt lat="45.64873" lon="5.99393">
        <ele>1287.2979736328</ele>
        <time>2010-06-13T07:21:09Z</time>
      </trkpt>
      <trkpt lat="45.64876" lon="5.99426">
        <ele>1286.1080322266</ele>
        <time>2010-06-13T07:21:15Z</time>
      </trkpt>
      <trkpt lat="45.64869" lon="5.99455">
        <ele>1286.3060302734</ele>
        <time>2010-06-13T07:21:21Z</time>
      </trkpt>
      <trkpt lat="45.64871" lon="5.99472">
        <ele>1286.2750244141</ele>
        <time>2010-06-13T07:21:25Z</time>
      </trkpt>
      <trkpt lat="45.64878" lon="5.99497">
        <ele>1285.7669677734</ele>
        <time>2010-06-13T07:21:30Z</time>
      </trkpt>
      <trkpt lat="45.64886" lon="5.99524">
        <ele>1285.9849853516</ele>
        <time>2010-06-13T07:21:36Z</time>
      </trkpt>
      <trkpt lat="45.64901" lon="5.99538">
        <ele>1286.6910400391</ele>
        <time>2010-06-13T07:21:42Z</time>
      </trkpt>
      <trkpt lat="45.64914" lon="5.99556">
        <ele>1286.1080322266</ele>
        <time>2010-06-13T07:21:48Z</time>
      </trkpt>
      <trkpt lat="45.64928" lon="5.99567">
        <ele>1285.6330566406</ele>
        <time>2010-06-13T07:21:53Z</time>
      </trkpt>
      <trkpt lat="45.64936" lon="5.99576">
        <ele>1285.4859619141</ele>
        <time>2010-06-13T07:21:57Z</time>
      </trkpt>
      <trkpt lat="45.6494" lon="5.99596">
        <ele>1284.9019775391</ele>
        <time>2010-06-13T07:22:02Z</time>
      </trkpt>
      <trkpt lat="45.64939" lon="5.996">
        <ele>1284.4670410156</ele>
        <time>2010-06-13T07:22:03Z</time>
      </trkpt>
      <trkpt lat="45.64931" lon="5.99618">
        <ele>1282.8530273438</ele>
        <time>2010-06-13T07:22:07Z</time>
      </trkpt>
      <trkpt lat="45.64931" lon="5.99628">
        <ele>1282.1710205078</ele>
        <time>2010-06-13T07:22:09Z</time>
      </trkpt>
      <trkpt lat="45.6493" lon="5.99636">
        <ele>1282.8199462891</ele>
        <time>2010-06-13T07:22:12Z</time>
      </trkpt>
      <trkpt lat="45.64916" lon="5.99654">
        <ele>1281.2270507812</ele>
        <time>2010-06-13T07:22:18Z</time>
      </trkpt>
      <trkpt lat="45.64905" lon="5.99672">
        <ele>1278.7810058594</ele>
        <time>2010-06-13T07:22:22Z</time>
      </trkpt>
      <trkpt lat="45.64888" lon="5.99697">
        <ele>1274.6810302734</ele>
        <time>2010-06-13T07:22:26Z</time>
      </trkpt>
      <trkpt lat="45.64874" lon="5.99711">
        <ele>1273.5209960938</ele>
        <time>2010-06-13T07:22:29Z</time>
      </trkpt>
      <trkpt lat="45.64861" lon="5.99722">
        <ele>1273.6850585938</ele>
        <time>2010-06-13T07:22:33Z</time>
      </trkpt>
      <trkpt lat="45.64857" lon="5.99725">
        <ele>1273.7430419922</ele>
        <time>2010-06-13T07:22:34Z</time>
      </trkpt>
      <trkpt lat="45.64845" lon="5.99741">
        <ele>1273.8800048828</ele>
        <time>2010-06-13T07:22:39Z</time>
      </trkpt>
      <trkpt lat="45.64838" lon="5.99756">
        <ele>1273.2170410156</ele>
        <time>2010-06-13T07:22:43Z</time>
      </trkpt>
      <trkpt lat="45.6483" lon="5.99772">
        <ele>1271.5379638672</ele>
        <time>2010-06-13T07:22:47Z</time>
      </trkpt>
      <trkpt lat="45.64825" lon="5.99783">
        <ele>1270.6850585938</ele>
        <time>2010-06-13T07:22:51Z</time>
      </trkpt>
      <trkpt lat="45.64819" lon="5.99796">
        <ele>1268.9260253906</ele>
        <time>2010-06-13T07:22:56Z</time>
      </trkpt>
      <trkpt lat="45.64812" lon="5.99809">
        <ele>1266.9909667969</ele>
        <time>2010-06-13T07:23:01Z</time>
      </trkpt>
      <trkpt lat="45.6481" lon="5.99822">
        <ele>1266.4239501953</ele>
        <time>2010-06-13T07:23:05Z</time>
      </trkpt>
      <trkpt lat="45.6481" lon="5.99826">
        <ele>1266.2239990234</ele>
        <time>2010-06-13T07:23:06Z</time>
      </trkpt>
      <trkpt lat="45.64807" lon="5.99839">
        <ele>1265.0500488281</ele>
        <time>2010-06-13T07:23:10Z</time>
      </trkpt>
      <trkpt lat="45.64808" lon="5.9985">
        <ele>1264.0989990234</ele>
        <time>2010-06-13T07:23:15Z</time>
      </trkpt>
      <trkpt lat="45.64802" lon="5.99855">
        <ele>1263.1650390625</ele>
        <time>2010-06-13T07:23:17Z</time>
      </trkpt>
      <trkpt lat="45.64786" lon="5.99867">
        <ele>1260.9150390625</ele>
        <time>2010-06-13T07:23:22Z</time>
      </trkpt>
      <trkpt lat="45.64778" lon="5.99876">
        <ele>1259.9310302734</ele>
        <time>2010-06-13T07:23:26Z</time>
      </trkpt>
      <trkpt lat="45.64779" lon="5.999">
        <ele>1258.7110595703</ele>
        <time>2010-06-13T07:23:31Z</time>
      </trkpt>
      <trkpt lat="45.64779" lon="5.99906">
        <ele>1258.5920410156</ele>
        <time>2010-06-13T07:23:32Z</time>
      </trkpt>
      <trkpt lat="45.64777" lon="5.99947">
        <ele>1257.2819824219</ele>
        <time>2010-06-13T07:23:38Z</time>
      </trkpt>
      <trkpt lat="45.6478" lon="5.99964">
        <ele>1256.6510009766</ele>
        <time>2010-06-13T07:23:41Z</time>
      </trkpt>
      <trkpt lat="45.64783" lon="5.99987">
        <ele>1256.1049804688</ele>
        <time>2010-06-13T07:23:45Z</time>
      </trkpt>
      <trkpt lat="45.64783" lon="6.00005">
        <ele>1255.3409423828</ele>
        <time>2010-06-13T07:23:50Z</time>
      </trkpt>
      <trkpt lat="45.64783" lon="6.00013">
        <ele>1254.9930419922</ele>
        <time>2010-06-13T07:23:54Z</time>
      </trkpt>
      <trkpt lat="45.64783" lon="6.0002">
        <ele>1254.4899902344</ele>
        <time>2010-06-13T07:23:57Z</time>
      </trkpt>
      <trkpt lat="45.64779" lon="6.00036">
        <ele>1252.5649414062</ele>
        <time>2010-06-13T07:24:03Z</time>
      </trkpt>
      <trkpt lat="45.6478" lon="6.00041">
        <ele>1252.33203125</ele>
        <time>2010-06-13T07:24:08Z</time>
      </trkpt>
      <trkpt lat="45.64777" lon="6.00057">
        <ele>1251.7399902344</ele>
        <time>2010-06-13T07:24:14Z</time>
      </trkpt>
      <trkpt lat="45.64783" lon="6.00063">
        <ele>1251.7440185547</ele>
        <time>2010-06-13T07:24:18Z</time>
      </trkpt>
      <trkpt lat="45.6479" lon="6.00068">
        <ele>1252.7149658203</ele>
        <time>2010-06-13T07:24:22Z</time>
      </trkpt>
      <trkpt lat="45.64796" lon="6.00074">
        <ele>1253.9449462891</ele>
        <time>2010-06-13T07:24:25Z</time>
      </trkpt>
      <trkpt lat="45.64801" lon="6.00077">
        <ele>1254.3659667969</ele>
        <time>2010-06-13T07:24:27Z</time>
      </trkpt>
      <trkpt lat="45.64809" lon="6.00079">
        <ele>1255.4040527344</ele>
        <time>2010-06-13T07:24:31Z</time>
      </trkpt>
      <trkpt lat="45.64811" lon="6.00079">
        <ele>1255.8609619141</ele>
        <time>2010-06-13T07:24:32Z</time>
      </trkpt>
      <trkpt lat="45.64819" lon="6.00082">
        <ele>1256.7359619141</ele>
        <time>2010-06-13T07:24:36Z</time>
      </trkpt>
      <trkpt lat="45.64821" lon="6.00082">
        <ele>1256.9990234375</ele>
        <time>2010-06-13T07:24:37Z</time>
      </trkpt>
      <trkpt lat="45.64825" lon="6.00083">
        <ele>1257.6009521484</ele>
        <time>2010-06-13T07:24:39Z</time>
      </trkpt>
      <trkpt lat="45.64828" lon="6.00083">
        <ele>1257.8540039062</ele>
        <time>2010-06-13T07:24:40Z</time>
      </trkpt>
      <trkpt lat="45.64833" lon="6.00083">
        <ele>1258.6639404297</ele>
        <time>2010-06-13T07:24:43Z</time>
      </trkpt>
      <trkpt lat="45.6484" lon="6.00082">
        <ele>1259.9610595703</ele>
        <time>2010-06-13T07:24:49Z</time>
      </trkpt>
      <trkpt lat="45.64844" lon="6.00082">
        <ele>1260.5909423828</ele>
        <time>2010-06-13T07:24:52Z</time>
      </trkpt>
      <trkpt lat="45.6485" lon="6.00094">
        <ele>1262.2099609375</ele>
        <time>2010-06-13T07:25:10Z</time>
      </trkpt>
      <trkpt lat="45.64848" lon="6.00099">
        <ele>1262.8360595703</ele>
        <time>2010-06-13T07:25:15Z</time>
      </trkpt>
      <trkpt lat="45.64847" lon="6.001">
        <ele>1262.9709472656</ele>
        <time>2010-06-13T07:25:16Z</time>
      </trkpt>
      <trkpt lat="45.64845" lon="6.00104">
        <ele>1262.6490478516</ele>
        <time>2010-06-13T07:25:20Z</time>
      </trkpt>
      <trkpt lat="45.64843" lon="6.00108">
        <ele>1262.0500488281</ele>
        <time>2010-06-13T07:25:24Z</time>
      </trkpt>
      <trkpt lat="45.64838" lon="6.00117">
        <ele>1260.7239990234</ele>
        <time>2010-06-13T07:25:30Z</time>
      </trkpt>
      <trkpt lat="45.64832" lon="6.00135">
        <ele>1258.3929443359</ele>
        <time>2010-06-13T07:25:35Z</time>
      </trkpt>
      <trkpt lat="45.6483" lon="6.0015">
        <ele>1257.4940185547</ele>
        <time>2010-06-13T07:25:39Z</time>
      </trkpt>
      <trkpt lat="45.64827" lon="6.00165">
        <ele>1255.5729980469</ele>
        <time>2010-06-13T07:25:43Z</time>
      </trkpt>
      <trkpt lat="45.64819" lon="6.00178">
        <ele>1253.4210205078</ele>
        <time>2010-06-13T07:25:47Z</time>
      </trkpt>
      <trkpt lat="45.64817" lon="6.00192">
        <ele>1251.5710449219</ele>
        <time>2010-06-13T07:25:50Z</time>
      </trkpt>
      <trkpt lat="45.64819" lon="6.00204">
        <ele>1250.8409423828</ele>
        <time>2010-06-13T07:25:52Z</time>
      </trkpt>
      <trkpt lat="45.64819" lon="6.00215">
        <ele>1249.8220214844</ele>
        <time>2010-06-13T07:25:55Z</time>
      </trkpt>
      <trkpt lat="45.64818" lon="6.00226">
        <ele>1248.8079833984</ele>
        <time>2010-06-13T07:25:58Z</time>
      </trkpt>
      <trkpt lat="45.64811" lon="6.00245">
        <ele>1246.2709960938</ele>
        <time>2010-06-13T07:26:01Z</time>
      </trkpt>
      <trkpt lat="45.64809" lon="6.00258">
        <ele>1244.4809570312</ele>
        <time>2010-06-13T07:26:03Z</time>
      </trkpt>
      <trkpt lat="45.6481" lon="6.00278">
        <ele>1242.5229492188</ele>
        <time>2010-06-13T07:26:06Z</time>
      </trkpt>
      <trkpt lat="45.64807" lon="6.00304">
        <ele>1241.1109619141</ele>
        <time>2010-06-13T07:26:11Z</time>
      </trkpt>
      <trkpt lat="45.64796" lon="6.00317">
        <ele>1237.5050048828</ele>
        <time>2010-06-13T07:26:15Z</time>
      </trkpt>
      <trkpt lat="45.64788" lon="6.00325">
        <ele>1236.1829833984</ele>
        <time>2010-06-13T07:26:17Z</time>
      </trkpt>
      <trkpt lat="45.64775" lon="6.00328">
        <ele>1233.4460449219</ele>
        <time>2010-06-13T07:26:19Z</time>
      </trkpt>
      <trkpt lat="45.64748" lon="6.00342">
        <ele>1227.9890136719</ele>
        <time>2010-06-13T07:26:25Z</time>
      </trkpt>
      <trkpt lat="45.64733" lon="6.0036">
        <ele>1224.4010009766</ele>
        <time>2010-06-13T07:26:29Z</time>
      </trkpt>
      <trkpt lat="45.64731" lon="6.00381">
        <ele>1222.5639648438</ele>
        <time>2010-06-13T07:26:32Z</time>
      </trkpt>
      <trkpt lat="45.64741" lon="6.00399">
        <ele>1220.7919921875</ele>
        <time>2010-06-13T07:26:35Z</time>
      </trkpt>
      <trkpt lat="45.64746" lon="6.00412">
        <ele>1219.9300537109</ele>
        <time>2010-06-13T07:26:37Z</time>
      </trkpt>
      <trkpt lat="45.64764" lon="6.00432">
        <ele>1220.123046875</ele>
        <time>2010-06-13T07:26:43Z</time>
      </trkpt>
      <trkpt lat="45.64767" lon="6.00436">
        <ele>1220.1879882812</ele>
        <time>2010-06-13T07:26:44Z</time>
      </trkpt>
      <trkpt lat="45.64784" lon="6.00454">
        <ele>1219.8549804688</ele>
        <time>2010-06-13T07:26:48Z</time>
      </trkpt>
      <trkpt lat="45.64798" lon="6.00482">
        <ele>1220.4050292969</ele>
        <time>2010-06-13T07:26:53Z</time>
      </trkpt>
      <trkpt lat="45.64802" lon="6.00491">
        <ele>1221.2679443359</ele>
        <time>2010-06-13T07:26:56Z</time>
      </trkpt>
      <trkpt lat="45.64808" lon="6.00501">
        <ele>1220.0250244141</ele>
        <time>2010-06-13T07:26:59Z</time>
      </trkpt>
      <trkpt lat="45.64809" lon="6.00505">
        <ele>1219.2760009766</ele>
        <time>2010-06-13T07:27:00Z</time>
      </trkpt>
      <trkpt lat="45.64811" lon="6.0051">
        <ele>1218.4930419922</ele>
        <time>2010-06-13T07:27:01Z</time>
      </trkpt>
      <trkpt lat="45.64815" lon="6.00537">
        <ele>1216.2340087891</ele>
        <time>2010-06-13T07:27:05Z</time>
      </trkpt>
      <trkpt lat="45.6482" lon="6.00563">
        <ele>1215.3909912109</ele>
        <time>2010-06-13T07:27:10Z</time>
      </trkpt>
      <trkpt lat="45.6482" lon="6.00584">
        <ele>1212.9339599609</ele>
        <time>2010-06-13T07:27:14Z</time>
      </trkpt>
      <trkpt lat="45.64822" lon="6.00594">
        <ele>1211.3950195312</ele>
        <time>2010-06-13T07:27:16Z</time>
      </trkpt>
      <trkpt lat="45.64825" lon="6.00595">
        <ele>1210.2080078125</ele>
        <time>2010-06-13T07:27:18Z</time>
      </trkpt>
      <trkpt lat="45.64836" lon="6.00589">
        <ele>1210.4630126953</ele>
        <time>2010-06-13T07:27:24Z</time>
      </trkpt>
      <trkpt lat="45.64847" lon="6.00581">
        <ele>1213.3430175781</ele>
        <time>2010-06-13T07:27:30Z</time>
      </trkpt>
      <trkpt lat="45.64852" lon="6.00575">
        <ele>1213.8859863281</ele>
        <time>2010-06-13T07:27:34Z</time>
      </trkpt>
      <trkpt lat="45.64856" lon="6.00571">
        <ele>1214.4859619141</ele>
        <time>2010-06-13T07:27:37Z</time>
      </trkpt>
      <trkpt lat="45.64857" lon="6.00571">
        <ele>1214.5510253906</ele>
        <time>2010-06-13T07:27:38Z</time>
      </trkpt>
      <trkpt lat="45.64859" lon="6.00572">
        <ele>1214.5290527344</ele>
        <time>2010-06-13T07:27:40Z</time>
      </trkpt>
      <trkpt lat="45.64868" lon="6.00566">
        <ele>1215.0200195312</ele>
        <time>2010-06-13T07:27:46Z</time>
      </trkpt>
      <trkpt lat="45.64876" lon="6.00567">
        <ele>1215.58203125</ele>
        <time>2010-06-13T07:27:52Z</time>
      </trkpt>
      <trkpt lat="45.64883" lon="6.00571">
        <ele>1215.8409423828</ele>
        <time>2010-06-13T07:27:55Z</time>
      </trkpt>
      <trkpt lat="45.64891" lon="6.00577">
        <ele>1216.54296875</ele>
        <time>2010-06-13T07:28:01Z</time>
      </trkpt>
      <trkpt lat="45.64899" lon="6.00578">
        <ele>1217.5949707031</ele>
        <time>2010-06-13T07:28:09Z</time>
      </trkpt>
      <trkpt lat="45.64904" lon="6.0058">
        <ele>1217.6419677734</ele>
        <time>2010-06-13T07:28:13Z</time>
      </trkpt>
      <trkpt lat="45.64911" lon="6.00598">
        <ele>1216.8859863281</ele>
        <time>2010-06-13T07:28:19Z</time>
      </trkpt>
      <trkpt lat="45.64914" lon="6.00616">
        <ele>1215.9759521484</ele>
        <time>2010-06-13T07:28:23Z</time>
      </trkpt>
      <trkpt lat="45.6492" lon="6.00633">
        <ele>1215.5849609375</ele>
        <time>2010-06-13T07:28:27Z</time>
      </trkpt>
      <trkpt lat="45.64934" lon="6.00643">
        <ele>1215.9239501953</ele>
        <time>2010-06-13T07:28:32Z</time>
      </trkpt>
      <trkpt lat="45.64943" lon="6.00663">
        <ele>1216.3950195312</ele>
        <time>2010-06-13T07:28:38Z</time>
      </trkpt>
      <trkpt lat="45.64951" lon="6.0068">
        <ele>1215.5959472656</ele>
        <time>2010-06-13T07:28:43Z</time>
      </trkpt>
      <trkpt lat="45.64962" lon="6.00691">
        <ele>1215.6479492188</ele>
        <time>2010-06-13T07:28:48Z</time>
      </trkpt>
      <trkpt lat="45.64964" lon="6.00692">
        <ele>1215.6479492188</ele>
        <time>2010-06-13T07:28:49Z</time>
      </trkpt>
      <trkpt lat="45.64976" lon="6.00707">
        <ele>1215.9000244141</ele>
        <time>2010-06-13T07:28:54Z</time>
      </trkpt>
      <trkpt lat="45.64984" lon="6.00726">
        <ele>1216.0240478516</ele>
        <time>2010-06-13T07:28:58Z</time>
      </trkpt>
      <trkpt lat="45.64994" lon="6.00739">
        <ele>1216.7010498047</ele>
        <time>2010-06-13T07:29:03Z</time>
      </trkpt>
      <trkpt lat="45.65004" lon="6.00754">
        <ele>1216.9770507812</ele>
        <time>2010-06-13T07:29:09Z</time>
      </trkpt>
      <trkpt lat="45.65017" lon="6.0077">
        <ele>1217.1860351562</ele>
        <time>2010-06-13T07:29:15Z</time>
      </trkpt>
      <trkpt lat="45.6503" lon="6.00792">
        <ele>1217.2280273438</ele>
        <time>2010-06-13T07:29:20Z</time>
      </trkpt>
      <trkpt lat="45.65036" lon="6.00804">
        <ele>1216.7170410156</ele>
        <time>2010-06-13T07:29:22Z</time>
      </trkpt>
      <trkpt lat="45.6505" lon="6.00826">
        <ele>1216.6379394531</ele>
        <time>2010-06-13T07:29:27Z</time>
      </trkpt>
      <trkpt lat="45.65057" lon="6.00838">
        <ele>1216.9460449219</ele>
        <time>2010-06-13T07:29:30Z</time>
      </trkpt>
      <trkpt lat="45.65073" lon="6.00861">
        <ele>1218.0190429688</ele>
        <time>2010-06-13T07:29:36Z</time>
      </trkpt>
      <trkpt lat="45.6508" lon="6.00873">
        <ele>1218.7700195312</ele>
        <time>2010-06-13T07:29:40Z</time>
      </trkpt>
      <trkpt lat="45.65084" lon="6.00894">
        <ele>1219.6629638672</ele>
        <time>2010-06-13T07:29:45Z</time>
      </trkpt>
      <trkpt lat="45.65092" lon="6.00922">
        <ele>1218.6359863281</ele>
        <time>2010-06-13T07:29:50Z</time>
      </trkpt>
      <trkpt lat="45.65097" lon="6.00935">
        <ele>1217.9350585938</ele>
        <time>2010-06-13T07:29:52Z</time>
      </trkpt>
      <trkpt lat="45.651" lon="6.00948">
        <ele>1217.6879882812</ele>
        <time>2010-06-13T07:29:54Z</time>
      </trkpt>
      <trkpt lat="45.65108" lon="6.00964">
        <ele>1217.6989746094</ele>
        <time>2010-06-13T07:29:57Z</time>
      </trkpt>
      <trkpt lat="45.65108" lon="6.00981">
        <ele>1218.5009765625</ele>
        <time>2010-06-13T07:30:01Z</time>
      </trkpt>
      <trkpt lat="45.651" lon="6.01002">
        <ele>1218.8709716797</ele>
        <time>2010-06-13T07:30:06Z</time>
      </trkpt>
      <trkpt lat="45.65087" lon="6.01021">
        <ele>1216.9219970703</ele>
        <time>2010-06-13T07:30:10Z</time>
      </trkpt>
      <trkpt lat="45.65071" lon="6.01038">
        <ele>1214.4709472656</ele>
        <time>2010-06-13T07:30:13Z</time>
      </trkpt>
      <trkpt lat="45.65053" lon="6.01054">
        <ele>1212.1240234375</ele>
        <time>2010-06-13T07:30:17Z</time>
      </trkpt>
      <trkpt lat="45.65038" lon="6.01076">
        <ele>1209.7790527344</ele>
        <time>2010-06-13T07:30:21Z</time>
      </trkpt>
      <trkpt lat="45.65035" lon="6.01083">
        <ele>1209.1140136719</ele>
        <time>2010-06-13T07:30:22Z</time>
      </trkpt>
      <trkpt lat="45.65021" lon="6.01127">
        <ele>1203.9410400391</ele>
        <time>2010-06-13T07:30:28Z</time>
      </trkpt>
      <trkpt lat="45.65015" lon="6.0114">
        <ele>1203</ele>
        <time>2010-06-13T07:30:30Z</time>
      </trkpt>
      <trkpt lat="45.64999" lon="6.01166">
        <ele>1198.5050048828</ele>
        <time>2010-06-13T07:30:34Z</time>
      </trkpt>
      <trkpt lat="45.64993" lon="6.01177">
        <ele>1196.7110595703</ele>
        <time>2010-06-13T07:30:36Z</time>
      </trkpt>
      <trkpt lat="45.65" lon="6.01198">
        <ele>1195.3160400391</ele>
        <time>2010-06-13T07:30:40Z</time>
      </trkpt>
      <trkpt lat="45.65004" lon="6.01202">
        <ele>1195.0140380859</ele>
        <time>2010-06-13T07:30:41Z</time>
      </trkpt>
      <trkpt lat="45.65019" lon="6.01223">
        <ele>1194.5550537109</ele>
        <time>2010-06-13T07:30:45Z</time>
      </trkpt>
      <trkpt lat="45.65039" lon="6.01246">
        <ele>1195.7900390625</ele>
        <time>2010-06-13T07:30:51Z</time>
      </trkpt>
      <trkpt lat="45.65038" lon="6.01257">
        <ele>1196.8719482422</ele>
        <time>2010-06-13T07:30:56Z</time>
      </trkpt>
      <trkpt lat="45.65044" lon="6.01275">
        <ele>1196.4639892578</ele>
        <time>2010-06-13T07:31:01Z</time>
      </trkpt>
      <trkpt lat="45.65046" lon="6.01279">
        <ele>1196.0040283203</ele>
        <time>2010-06-13T07:31:02Z</time>
      </trkpt>
      <trkpt lat="45.65049" lon="6.01289">
        <ele>1194.8719482422</ele>
        <time>2010-06-13T07:31:04Z</time>
      </trkpt>
      <trkpt lat="45.65051" lon="6.01305">
        <ele>1193.1879882812</ele>
        <time>2010-06-13T07:31:06Z</time>
      </trkpt>
      <trkpt lat="45.65055" lon="6.01332">
        <ele>1191.4870605469</ele>
        <time>2010-06-13T07:31:09Z</time>
      </trkpt>
      <trkpt lat="45.65067" lon="6.01355">
        <ele>1192.3919677734</ele>
        <time>2010-06-13T07:31:13Z</time>
      </trkpt>
      <trkpt lat="45.65094" lon="6.01385">
        <ele>1192.5310058594</ele>
        <time>2010-06-13T07:31:19Z</time>
      </trkpt>
      <trkpt lat="45.65098" lon="6.01389">
        <ele>1192.5290527344</ele>
        <time>2010-06-13T07:31:20Z</time>
      </trkpt>
      <trkpt lat="45.65107" lon="6.01412">
        <ele>1193.0379638672</ele>
        <time>2010-06-13T07:31:24Z</time>
      </trkpt>
      <trkpt lat="45.6511" lon="6.01418">
        <ele>1193.0360107422</ele>
        <time>2010-06-13T07:31:25Z</time>
      </trkpt>
      <trkpt lat="45.65117" lon="6.01429">
        <ele>1192.8819580078</ele>
        <time>2010-06-13T07:31:27Z</time>
      </trkpt>
      <trkpt lat="45.65141" lon="6.01462">
        <ele>1190.0209960938</ele>
        <time>2010-06-13T07:31:32Z</time>
      </trkpt>
      <trkpt lat="45.65164" lon="6.01495">
        <ele>1188.5369873047</ele>
        <time>2010-06-13T07:31:37Z</time>
      </trkpt>
      <trkpt lat="45.65169" lon="6.015">
        <ele>1188.4329833984</ele>
        <time>2010-06-13T07:31:38Z</time>
      </trkpt>
      <trkpt lat="45.65185" lon="6.0152">
        <ele>1187.4169921875</ele>
        <time>2010-06-13T07:31:41Z</time>
      </trkpt>
      <trkpt lat="45.65197" lon="6.01547">
        <ele>1186.4119873047</ele>
        <time>2010-06-13T07:31:44Z</time>
      </trkpt>
      <trkpt lat="45.65203" lon="6.01598">
        <ele>1186.1839599609</ele>
        <time>2010-06-13T07:31:50Z</time>
      </trkpt>
      <trkpt lat="45.65204" lon="6.01605">
        <ele>1186.0419921875</ele>
        <time>2010-06-13T07:31:51Z</time>
      </trkpt>
      <trkpt lat="45.65207" lon="6.01634">
        <ele>1185.3699951172</ele>
        <time>2010-06-13T07:31:55Z</time>
      </trkpt>
      <trkpt lat="45.65206" lon="6.01641">
        <ele>1185.1839599609</ele>
        <time>2010-06-13T07:31:56Z</time>
      </trkpt>
      <trkpt lat="45.65194" lon="6.01687">
        <ele>1182.4379882812</ele>
        <time>2010-06-13T07:32:02Z</time>
      </trkpt>
      <trkpt lat="45.65187" lon="6.0171">
        <ele>1180.4890136719</ele>
        <time>2010-06-13T07:32:06Z</time>
      </trkpt>
      <trkpt lat="45.65189" lon="6.01739">
        <ele>1179.1309814453</ele>
        <time>2010-06-13T07:32:12Z</time>
      </trkpt>
      <trkpt lat="45.65187" lon="6.01756">
        <ele>1176.6829833984</ele>
        <time>2010-06-13T07:32:17Z</time>
      </trkpt>
      <trkpt lat="45.65192" lon="6.0178">
        <ele>1175.1020507812</ele>
        <time>2010-06-13T07:32:23Z</time>
      </trkpt>
      <trkpt lat="45.65195" lon="6.01791">
        <ele>1174.4379882812</ele>
        <time>2010-06-13T07:32:25Z</time>
      </trkpt>
      <trkpt lat="45.65192" lon="6.01829">
        <ele>1171.9189453125</ele>
        <time>2010-06-13T07:32:30Z</time>
      </trkpt>
      <trkpt lat="45.65191" lon="6.01837">
        <ele>1171.5269775391</ele>
        <time>2010-06-13T07:32:31Z</time>
      </trkpt>
      <trkpt lat="45.65192" lon="6.01851">
        <ele>1170.9799804688</ele>
        <time>2010-06-13T07:32:33Z</time>
      </trkpt>
      <trkpt lat="45.65202" lon="6.01882">
        <ele>1169.8959960938</ele>
        <time>2010-06-13T07:32:37Z</time>
      </trkpt>
      <trkpt lat="45.65205" lon="6.01912">
        <ele>1168.1500244141</ele>
        <time>2010-06-13T07:32:40Z</time>
      </trkpt>
      <trkpt lat="45.65208" lon="6.01934">
        <ele>1166.7950439453</ele>
        <time>2010-06-13T07:32:42Z</time>
      </trkpt>
      <trkpt lat="45.65214" lon="6.01951">
        <ele>1165.5360107422</ele>
        <time>2010-06-13T07:32:45Z</time>
      </trkpt>
      <trkpt lat="45.65226" lon="6.01955">
        <ele>1165.7380371094</ele>
        <time>2010-06-13T07:32:51Z</time>
      </trkpt>
      <trkpt lat="45.65233" lon="6.01955">
        <ele>1167.1330566406</ele>
        <time>2010-06-13T07:32:55Z</time>
      </trkpt>
      <trkpt lat="45.65246" lon="6.0196">
        <ele>1168.3669433594</ele>
        <time>2010-06-13T07:33:01Z</time>
      </trkpt>
      <trkpt lat="45.65266" lon="6.01966">
        <ele>1169.4909667969</ele>
        <time>2010-06-13T07:33:09Z</time>
      </trkpt>
      <trkpt lat="45.65279" lon="6.01967">
        <ele>1171.0240478516</ele>
        <time>2010-06-13T07:33:16Z</time>
      </trkpt>
      <trkpt lat="45.65289" lon="6.01965">
        <ele>1171.8299560547</ele>
        <time>2010-06-13T07:33:21Z</time>
      </trkpt>
      <trkpt lat="45.65297" lon="6.01962">
        <ele>1173.0870361328</ele>
        <time>2010-06-13T07:33:25Z</time>
      </trkpt>
      <trkpt lat="45.65309" lon="6.01957">
        <ele>1175.5</ele>
        <time>2010-06-13T07:33:32Z</time>
      </trkpt>
      <trkpt lat="45.65321" lon="6.01958">
        <ele>1177.3330078125</ele>
        <time>2010-06-13T07:33:38Z</time>
      </trkpt>
      <trkpt lat="45.65324" lon="6.01956">
        <ele>1177.8850097656</ele>
        <time>2010-06-13T07:33:40Z</time>
      </trkpt>
      <trkpt lat="45.65331" lon="6.01959">
        <ele>1178.9219970703</ele>
        <time>2010-06-13T07:33:44Z</time>
      </trkpt>
      <trkpt lat="45.65342" lon="6.01972">
        <ele>1180.2239990234</ele>
        <time>2010-06-13T07:33:50Z</time>
      </trkpt>
      <trkpt lat="45.65353" lon="6.01994">
        <ele>1179.8549804688</ele>
        <time>2010-06-13T07:33:56Z</time>
      </trkpt>
      <trkpt lat="45.65359" lon="6.02017">
        <ele>1178.8680419922</ele>
        <time>2010-06-13T07:34:01Z</time>
      </trkpt>
      <trkpt lat="45.65366" lon="6.02038">
        <ele>1177.4339599609</ele>
        <time>2010-06-13T07:34:05Z</time>
      </trkpt>
      <trkpt lat="45.65371" lon="6.02048">
        <ele>1176.2709960938</ele>
        <time>2010-06-13T07:34:07Z</time>
      </trkpt>
      <trkpt lat="45.65391" lon="6.02062">
        <ele>1175.3299560547</ele>
        <time>2010-06-13T07:34:11Z</time>
      </trkpt>
      <trkpt lat="45.65407" lon="6.02068">
        <ele>1177.9870605469</ele>
        <time>2010-06-13T07:34:16Z</time>
      </trkpt>
      <trkpt lat="45.65418" lon="6.02067">
        <ele>1179.4909667969</ele>
        <time>2010-06-13T07:34:22Z</time>
      </trkpt>
      <trkpt lat="45.65421" lon="6.02066">
        <ele>1180.7359619141</ele>
        <time>2010-06-13T07:34:25Z</time>
      </trkpt>
      <trkpt lat="45.65424" lon="6.02065">
        <ele>1181.3709716797</ele>
        <time>2010-06-13T07:34:29Z</time>
      </trkpt>
      <trkpt lat="45.65425" lon="6.02065">
        <ele>1181.5510253906</ele>
        <time>2010-06-13T07:34:30Z</time>
      </trkpt>
      <trkpt lat="45.65429" lon="6.02066">
        <ele>1182.5209960938</ele>
        <time>2010-06-13T07:34:35Z</time>
      </trkpt>
      <trkpt lat="45.65443" lon="6.02074">
        <ele>1183.8289794922</ele>
        <time>2010-06-13T07:34:46Z</time>
      </trkpt>
      <trkpt lat="45.65453" lon="6.02079">
        <ele>1184.5949707031</ele>
        <time>2010-06-13T07:34:51Z</time>
      </trkpt>
      <trkpt lat="45.65468" lon="6.02086">
        <ele>1186.1970214844</ele>
        <time>2010-06-13T07:34:59Z</time>
      </trkpt>
      <trkpt lat="45.65481" lon="6.02093">
        <ele>1187.5570068359</ele>
        <time>2010-06-13T07:35:06Z</time>
      </trkpt>
      <trkpt lat="45.6549" lon="6.02098">
        <ele>1188.8699951172</ele>
        <time>2010-06-13T07:35:12Z</time>
      </trkpt>
      <trkpt lat="45.65498" lon="6.021">
        <ele>1190.2020263672</ele>
        <time>2010-06-13T07:35:18Z</time>
      </trkpt>
      <trkpt lat="45.65508" lon="6.02106">
        <ele>1191.5479736328</ele>
        <time>2010-06-13T07:35:26Z</time>
      </trkpt>
      <trkpt lat="45.6552" lon="6.02113">
        <ele>1192.2239990234</ele>
        <time>2010-06-13T07:35:33Z</time>
      </trkpt>
      <trkpt lat="45.65532" lon="6.02118">
        <ele>1193.1080322266</ele>
        <time>2010-06-13T07:35:39Z</time>
      </trkpt>
      <trkpt lat="45.65546" lon="6.02123">
        <ele>1194.3509521484</ele>
        <time>2010-06-13T07:35:46Z</time>
      </trkpt>
      <trkpt lat="45.65562" lon="6.02125">
        <ele>1194.4360351562</ele>
        <time>2010-06-13T07:35:52Z</time>
      </trkpt>
      <trkpt lat="45.65578" lon="6.02124">
        <ele>1194.3270263672</ele>
        <time>2010-06-13T07:35:57Z</time>
      </trkpt>
      <trkpt lat="45.65598" lon="6.02121">
        <ele>1195.2640380859</ele>
        <time>2010-06-13T07:36:04Z</time>
      </trkpt>
      <trkpt lat="45.65615" lon="6.02124">
        <ele>1194.1030273438</ele>
        <time>2010-06-13T07:36:09Z</time>
      </trkpt>
      <trkpt lat="45.65628" lon="6.02135">
        <ele>1193.3909912109</ele>
        <time>2010-06-13T07:36:13Z</time>
      </trkpt>
      <trkpt lat="45.65654" lon="6.02154">
        <ele>1192.8210449219</ele>
        <time>2010-06-13T07:36:20Z</time>
      </trkpt>
      <trkpt lat="45.65673" lon="6.02168">
        <ele>1194.8590087891</ele>
        <time>2010-06-13T07:36:27Z</time>
      </trkpt>
      <trkpt lat="45.65689" lon="6.02177">
        <ele>1196.7380371094</ele>
        <time>2010-06-13T07:36:34Z</time>
      </trkpt>
      <trkpt lat="45.65711" lon="6.02188">
        <ele>1198.54296875</ele>
        <time>2010-06-13T07:36:43Z</time>
      </trkpt>
      <trkpt lat="45.65729" lon="6.02203">
        <ele>1198.9360351562</ele>
        <time>2010-06-13T07:36:50Z</time>
      </trkpt>
      <trkpt lat="45.65748" lon="6.02223">
        <ele>1198.9479980469</ele>
        <time>2010-06-13T07:36:57Z</time>
      </trkpt>
      <trkpt lat="45.65765" lon="6.02239">
        <ele>1198.9899902344</ele>
        <time>2010-06-13T07:37:03Z</time>
      </trkpt>
      <trkpt lat="45.65782" lon="6.02245">
        <ele>1199.6080322266</ele>
        <time>2010-06-13T07:37:08Z</time>
      </trkpt>
      <trkpt lat="45.65809" lon="6.02255">
        <ele>1200.3060302734</ele>
        <time>2010-06-13T07:37:16Z</time>
      </trkpt>
      <trkpt lat="45.65825" lon="6.02261">
        <ele>1200.0860595703</ele>
        <time>2010-06-13T07:37:20Z</time>
      </trkpt>
      <trkpt lat="45.65857" lon="6.0228">
        <ele>1199.8110351562</ele>
        <time>2010-06-13T07:37:28Z</time>
      </trkpt>
      <trkpt lat="45.65878" lon="6.02291">
        <ele>1201.2180175781</ele>
        <time>2010-06-13T07:37:34Z</time>
      </trkpt>
      <trkpt lat="45.65901" lon="6.0231">
        <ele>1203.3000488281</ele>
        <time>2010-06-13T07:37:42Z</time>
      </trkpt>
      <trkpt lat="45.6591" lon="6.02319">
        <ele>1204.4420166016</ele>
        <time>2010-06-13T07:37:47Z</time>
      </trkpt>
      <trkpt lat="45.65925" lon="6.0233">
        <ele>1205.2819824219</ele>
        <time>2010-06-13T07:37:54Z</time>
      </trkpt>
      <trkpt lat="45.65937" lon="6.02339">
        <ele>1205.0660400391</ele>
        <time>2010-06-13T07:37:58Z</time>
      </trkpt>
      <trkpt lat="45.65945" lon="6.02345">
        <ele>1204.9279785156</ele>
        <time>2010-06-13T07:38:00Z</time>
      </trkpt>
      <trkpt lat="45.65979" lon="6.02365">
        <ele>1205.8570556641</ele>
        <time>2010-06-13T07:38:09Z</time>
      </trkpt>
      <trkpt lat="45.65998" lon="6.02375">
        <ele>1207.8530273438</ele>
        <time>2010-06-13T07:38:15Z</time>
      </trkpt>
      <trkpt lat="45.66016" lon="6.02386">
        <ele>1208.9689941406</ele>
        <time>2010-06-13T07:38:21Z</time>
      </trkpt>
      <trkpt lat="45.66037" lon="6.024">
        <ele>1209.0469970703</ele>
        <time>2010-06-13T07:38:27Z</time>
      </trkpt>
      <trkpt lat="45.66064" lon="6.02419">
        <ele>1209.9360351562</ele>
        <time>2010-06-13T07:38:35Z</time>
      </trkpt>
      <trkpt lat="45.66078" lon="6.02426">
        <ele>1211.5379638672</ele>
        <time>2010-06-13T07:38:40Z</time>
      </trkpt>
      <trkpt lat="45.661" lon="6.02438">
        <ele>1213.2220458984</ele>
        <time>2010-06-13T07:38:48Z</time>
      </trkpt>
      <trkpt lat="45.66125" lon="6.02446">
        <ele>1214.4110107422</ele>
        <time>2010-06-13T07:38:57Z</time>
      </trkpt>
      <trkpt lat="45.66145" lon="6.02452">
        <ele>1215.7900390625</ele>
        <time>2010-06-13T07:39:05Z</time>
      </trkpt>
      <trkpt lat="45.66167" lon="6.02464">
        <ele>1218.2700195312</ele>
        <time>2010-06-13T07:39:15Z</time>
      </trkpt>
      <trkpt lat="45.66188" lon="6.02473">
        <ele>1220.1870117188</ele>
        <time>2010-06-13T07:39:24Z</time>
      </trkpt>
      <trkpt lat="45.66209" lon="6.02486">
        <ele>1222.2290039062</ele>
        <time>2010-06-13T07:39:33Z</time>
      </trkpt>
      <trkpt lat="45.66229" lon="6.02501">
        <ele>1223.9709472656</ele>
        <time>2010-06-13T07:39:42Z</time>
      </trkpt>
      <trkpt lat="45.66251" lon="6.02514">
        <ele>1224.2869873047</ele>
        <time>2010-06-13T07:39:50Z</time>
      </trkpt>
      <trkpt lat="45.6628" lon="6.02526">
        <ele>1224.1839599609</ele>
        <time>2010-06-13T07:39:58Z</time>
      </trkpt>
      <trkpt lat="45.66304" lon="6.02533">
        <ele>1224.3649902344</ele>
        <time>2010-06-13T07:40:04Z</time>
      </trkpt>
      <trkpt lat="45.66328" lon="6.02546">
        <ele>1225.5379638672</ele>
        <time>2010-06-13T07:40:11Z</time>
      </trkpt>
      <trkpt lat="45.66347" lon="6.02548">
        <ele>1226.9189453125</ele>
        <time>2010-06-13T07:40:17Z</time>
      </trkpt>
      <trkpt lat="45.66362" lon="6.02544">
        <ele>1228.0789794922</ele>
        <time>2010-06-13T07:40:22Z</time>
      </trkpt>
      <trkpt lat="45.66378" lon="6.02542">
        <ele>1228.7189941406</ele>
        <time>2010-06-13T07:40:27Z</time>
      </trkpt>
      <trkpt lat="45.66396" lon="6.02552">
        <ele>1230.6639404297</ele>
        <time>2010-06-13T07:40:33Z</time>
      </trkpt>
      <trkpt lat="45.66416" lon="6.02567">
        <ele>1231.2209472656</ele>
        <time>2010-06-13T07:40:40Z</time>
      </trkpt>
      <trkpt lat="45.6644" lon="6.02582">
        <ele>1232.1770019531</ele>
        <time>2010-06-13T07:40:47Z</time>
      </trkpt>
      <trkpt lat="45.66453" lon="6.02588">
        <ele>1232.0679931641</ele>
        <time>2010-06-13T07:40:50Z</time>
      </trkpt>
      <trkpt lat="45.66478" lon="6.02594">
        <ele>1230.6190185547</ele>
        <time>2010-06-13T07:40:55Z</time>
      </trkpt>
      <trkpt lat="45.66497" lon="6.02606">
        <ele>1229.791015625</ele>
        <time>2010-06-13T07:40:59Z</time>
      </trkpt>
      <trkpt lat="45.66508" lon="6.02619">
        <ele>1230.0570068359</ele>
        <time>2010-06-13T07:41:02Z</time>
      </trkpt>
      <trkpt lat="45.66529" lon="6.02641">
        <ele>1229.6610107422</ele>
        <time>2010-06-13T07:41:07Z</time>
      </trkpt>
      <trkpt lat="45.66535" lon="6.02643">
        <ele>1229.3260498047</ele>
        <time>2010-06-13T07:41:08Z</time>
      </trkpt>
      <trkpt lat="45.66566" lon="6.0266">
        <ele>1229.2010498047</ele>
        <time>2010-06-13T07:41:14Z</time>
      </trkpt>
      <trkpt lat="45.66577" lon="6.02674">
        <ele>1229.9169921875</ele>
        <time>2010-06-13T07:41:17Z</time>
      </trkpt>
      <trkpt lat="45.6659" lon="6.02696">
        <ele>1229.9320068359</ele>
        <time>2010-06-13T07:41:21Z</time>
      </trkpt>
      <trkpt lat="45.66607" lon="6.02714">
        <ele>1229.4759521484</ele>
        <time>2010-06-13T07:41:25Z</time>
      </trkpt>
      <trkpt lat="45.66638" lon="6.02728">
        <ele>1227.7330322266</ele>
        <time>2010-06-13T07:41:30Z</time>
      </trkpt>
      <trkpt lat="45.66676" lon="6.0274">
        <ele>1228.1540527344</ele>
        <time>2010-06-13T07:41:36Z</time>
      </trkpt>
      <trkpt lat="45.667" lon="6.02749">
        <ele>1227.8869628906</ele>
        <time>2010-06-13T07:41:40Z</time>
      </trkpt>
      <trkpt lat="45.66722" lon="6.02765">
        <ele>1227.9790039062</ele>
        <time>2010-06-13T07:41:44Z</time>
      </trkpt>
      <trkpt lat="45.66733" lon="6.02769">
        <ele>1228.3079833984</ele>
        <time>2010-06-13T07:41:46Z</time>
      </trkpt>
      <trkpt lat="45.66753" lon="6.02766">
        <ele>1228.8680419922</ele>
        <time>2010-06-13T07:41:50Z</time>
      </trkpt>
      <trkpt lat="45.66772" lon="6.02751">
        <ele>1228.9410400391</ele>
        <time>2010-06-13T07:41:54Z</time>
      </trkpt>
      <trkpt lat="45.66793" lon="6.02747">
        <ele>1228.3289794922</ele>
        <time>2010-06-13T07:41:58Z</time>
      </trkpt>
      <trkpt lat="45.66804" lon="6.02749">
        <ele>1228.5889892578</ele>
        <time>2010-06-13T07:42:00Z</time>
      </trkpt>
      <trkpt lat="45.66845" lon="6.02765">
        <ele>1229.2399902344</ele>
        <time>2010-06-13T07:42:08Z</time>
      </trkpt>
      <trkpt lat="45.66866" lon="6.0277">
        <ele>1231.2280273438</ele>
        <time>2010-06-13T07:42:13Z</time>
      </trkpt>
      <trkpt lat="45.66887" lon="6.02766">
        <ele>1232.9229736328</ele>
        <time>2010-06-13T07:42:19Z</time>
      </trkpt>
      <trkpt lat="45.66912" lon="6.0277">
        <ele>1233.6569824219</ele>
        <time>2010-06-13T07:42:26Z</time>
      </trkpt>
      <trkpt lat="45.66932" lon="6.02782">
        <ele>1233.5389404297</ele>
        <time>2010-06-13T07:42:32Z</time>
      </trkpt>
      <trkpt lat="45.66956" lon="6.02793">
        <ele>1232.2099609375</ele>
        <time>2010-06-13T07:42:37Z</time>
      </trkpt>
      <trkpt lat="45.66982" lon="6.02798">
        <ele>1230.7320556641</ele>
        <time>2010-06-13T07:42:41Z</time>
      </trkpt>
      <trkpt lat="45.67004" lon="6.02806">
        <ele>1229.3299560547</ele>
        <time>2010-06-13T07:42:44Z</time>
      </trkpt>
      <trkpt lat="45.67046" lon="6.02821">
        <ele>1228.4229736328</ele>
        <time>2010-06-13T07:42:50Z</time>
      </trkpt>
      <trkpt lat="45.6707" lon="6.0283">
        <ele>1227.1369628906</ele>
        <time>2010-06-13T07:42:53Z</time>
      </trkpt>
      <trkpt lat="45.67104" lon="6.0285">
        <ele>1223.0579833984</ele>
        <time>2010-06-13T07:42:57Z</time>
      </trkpt>
      <trkpt lat="45.67141" lon="6.02878">
        <ele>1219.1290283203</ele>
        <time>2010-06-13T07:43:01Z</time>
      </trkpt>
      <trkpt lat="45.6715" lon="6.02881">
        <ele>1218.8430175781</ele>
        <time>2010-06-13T07:43:02Z</time>
      </trkpt>
      <trkpt lat="45.67159" lon="6.02883">
        <ele>1218.9279785156</ele>
        <time>2010-06-13T07:43:03Z</time>
      </trkpt>
      <trkpt lat="45.67183" lon="6.02888">
        <ele>1220.7060546875</ele>
        <time>2010-06-13T07:43:06Z</time>
      </trkpt>
      <trkpt lat="45.67219" lon="6.02908">
        <ele>1225.2189941406</ele>
        <time>2010-06-13T07:43:12Z</time>
      </trkpt>
      <trkpt lat="45.67242" lon="6.02928">
        <ele>1227.7829589844</ele>
        <time>2010-06-13T07:43:18Z</time>
      </trkpt>
      <trkpt lat="45.67259" lon="6.02936">
        <ele>1229.4060058594</ele>
        <time>2010-06-13T07:43:23Z</time>
      </trkpt>
      <trkpt lat="45.67277" lon="6.02938">
        <ele>1231.1479492188</ele>
        <time>2010-06-13T07:43:29Z</time>
      </trkpt>
      <trkpt lat="45.67297" lon="6.02935">
        <ele>1232.3680419922</ele>
        <time>2010-06-13T07:43:36Z</time>
      </trkpt>
      <trkpt lat="45.67313" lon="6.02933">
        <ele>1233.7399902344</ele>
        <time>2010-06-13T07:43:42Z</time>
      </trkpt>
      <trkpt lat="45.67334" lon="6.0293">
        <ele>1235.8110351562</ele>
        <time>2010-06-13T07:43:50Z</time>
      </trkpt>
      <trkpt lat="45.67353" lon="6.02929">
        <ele>1237.2659912109</ele>
        <time>2010-06-13T07:43:57Z</time>
      </trkpt>
      <trkpt lat="45.67377" lon="6.02926">
        <ele>1238.7900390625</ele>
        <time>2010-06-13T07:44:06Z</time>
      </trkpt>
      <trkpt lat="45.67395" lon="6.02925">
        <ele>1240.4360351562</ele>
        <time>2010-06-13T07:44:13Z</time>
      </trkpt>
      <trkpt lat="45.67414" lon="6.02931">
        <ele>1241.7380371094</ele>
        <time>2010-06-13T07:44:20Z</time>
      </trkpt>
      <trkpt lat="45.67439" lon="6.02953">
        <ele>1243.6099853516</ele>
        <time>2010-06-13T07:44:31Z</time>
      </trkpt>
      <trkpt lat="45.67458" lon="6.02961">
        <ele>1245.1090087891</ele>
        <time>2010-06-13T07:44:38Z</time>
      </trkpt>
      <trkpt lat="45.67479" lon="6.02966">
        <ele>1246.5450439453</ele>
        <time>2010-06-13T07:44:46Z</time>
      </trkpt>
      <trkpt lat="45.675" lon="6.0297">
        <ele>1247.9530029297</ele>
        <time>2010-06-13T07:44:54Z</time>
      </trkpt>
      <trkpt lat="45.67518" lon="6.02974">
        <ele>1249.5140380859</ele>
        <time>2010-06-13T07:45:01Z</time>
      </trkpt>
      <trkpt lat="45.67544" lon="6.02975">
        <ele>1251.3530273438</ele>
        <time>2010-06-13T07:45:10Z</time>
      </trkpt>
      <trkpt lat="45.67572" lon="6.02976">
        <ele>1253.7729492188</ele>
        <time>2010-06-13T07:45:20Z</time>
      </trkpt>
      <trkpt lat="45.67598" lon="6.02979">
        <ele>1256.0069580078</ele>
        <time>2010-06-13T07:45:30Z</time>
      </trkpt>
      <trkpt lat="45.6762" lon="6.02994">
        <ele>1258.1440429688</ele>
        <time>2010-06-13T07:45:39Z</time>
      </trkpt>
      <trkpt lat="45.6764" lon="6.03012">
        <ele>1260.2290039062</ele>
        <time>2010-06-13T07:45:48Z</time>
      </trkpt>
      <trkpt lat="45.67656" lon="6.03034">
        <ele>1261.8840332031</ele>
        <time>2010-06-13T07:45:56Z</time>
      </trkpt>
      <trkpt lat="45.6767" lon="6.03068">
        <ele>1264.5810546875</ele>
        <time>2010-06-13T07:46:06Z</time>
      </trkpt>
      <trkpt lat="45.6768" lon="6.03092">
        <ele>1265.7950439453</ele>
        <time>2010-06-13T07:46:13Z</time>
      </trkpt>
      <trkpt lat="45.67687" lon="6.03118">
        <ele>1266.9659423828</ele>
        <time>2010-06-13T07:46:20Z</time>
      </trkpt>
      <trkpt lat="45.67699" lon="6.03146">
        <ele>1268.5610351562</ele>
        <time>2010-06-13T07:46:28Z</time>
      </trkpt>
      <trkpt lat="45.67716" lon="6.03161">
        <ele>1269.9449462891</ele>
        <time>2010-06-13T07:46:35Z</time>
      </trkpt>
      <trkpt lat="45.67731" lon="6.03171">
        <ele>1271.2060546875</ele>
        <time>2010-06-13T07:46:41Z</time>
      </trkpt>
      <trkpt lat="45.67744" lon="6.03177">
        <ele>1272.2760009766</ele>
        <time>2010-06-13T07:46:46Z</time>
      </trkpt>
      <trkpt lat="45.67762" lon="6.03185">
        <ele>1273.0560302734</ele>
        <time>2010-06-13T07:46:52Z</time>
      </trkpt>
      <trkpt lat="45.67771" lon="6.03204">
        <ele>1274.1350097656</ele>
        <time>2010-06-13T07:46:58Z</time>
      </trkpt>
      <trkpt lat="45.6777" lon="6.03233">
        <ele>1273.4549560547</ele>
        <time>2010-06-13T07:47:04Z</time>
      </trkpt>
      <trkpt lat="45.67778" lon="6.03246">
        <ele>1273.3590087891</ele>
        <time>2010-06-13T07:47:08Z</time>
      </trkpt>
      <trkpt lat="45.67788" lon="6.0326">
        <ele>1272.9489746094</ele>
        <time>2010-06-13T07:47:12Z</time>
      </trkpt>
      <trkpt lat="45.67807" lon="6.03269">
        <ele>1272.5909423828</ele>
        <time>2010-06-13T07:47:17Z</time>
      </trkpt>
      <trkpt lat="45.67841" lon="6.03285">
        <ele>1271.4019775391</ele>
        <time>2010-06-13T07:47:25Z</time>
      </trkpt>
      <trkpt lat="45.67882" lon="6.03295">
        <ele>1270.1739501953</ele>
        <time>2010-06-13T07:47:33Z</time>
      </trkpt>
      <trkpt lat="45.67936" lon="6.03311">
        <ele>1269.5610351562</ele>
        <time>2010-06-13T07:47:44Z</time>
      </trkpt>
      <trkpt lat="45.67953" lon="6.03322">
        <ele>1269.4200439453</ele>
        <time>2010-06-13T07:47:48Z</time>
      </trkpt>
      <trkpt lat="45.67962" lon="6.03332">
        <ele>1268.8100585938</ele>
        <time>2010-06-13T07:47:50Z</time>
      </trkpt>
      <trkpt lat="45.67994" lon="6.03355">
        <ele>1265.0240478516</ele>
        <time>2010-06-13T07:47:55Z</time>
      </trkpt>
      <trkpt lat="45.68007" lon="6.03362">
        <ele>1264.0970458984</ele>
        <time>2010-06-13T07:47:57Z</time>
      </trkpt>
      <trkpt lat="45.68014" lon="6.03366">
        <ele>1263.8979492188</ele>
        <time>2010-06-13T07:47:58Z</time>
      </trkpt>
      <trkpt lat="45.68044" lon="6.03364">
        <ele>1264.1209716797</ele>
        <time>2010-06-13T07:48:03Z</time>
      </trkpt>
      <trkpt lat="45.68065" lon="6.03347">
        <ele>1263.6469726562</ele>
        <time>2010-06-13T07:48:07Z</time>
      </trkpt>
      <trkpt lat="45.68081" lon="6.03317">
        <ele>1263.0770263672</ele>
        <time>2010-06-13T07:48:11Z</time>
      </trkpt>
      <trkpt lat="45.68105" lon="6.03287">
        <ele>1262.6600341797</ele>
        <time>2010-06-13T07:48:16Z</time>
      </trkpt>
      <trkpt lat="45.68121" lon="6.03281">
        <ele>1263.5550537109</ele>
        <time>2010-06-13T07:48:19Z</time>
      </trkpt>
      <trkpt lat="45.68142" lon="6.03273">
        <ele>1266.6009521484</ele>
        <time>2010-06-13T07:48:25Z</time>
      </trkpt>
      <trkpt lat="45.68164" lon="6.0326">
        <ele>1267.8210449219</ele>
        <time>2010-06-13T07:48:32Z</time>
      </trkpt>
      <trkpt lat="45.68182" lon="6.03256">
        <ele>1268.3449707031</ele>
        <time>2010-06-13T07:48:37Z</time>
      </trkpt>
      <trkpt lat="45.68212" lon="6.03258">
        <ele>1267.3050537109</ele>
        <time>2010-06-13T07:48:44Z</time>
      </trkpt>
      <trkpt lat="45.68226" lon="6.0327">
        <ele>1268.2430419922</ele>
        <time>2010-06-13T07:48:49Z</time>
      </trkpt>
      <trkpt lat="45.68232" lon="6.0329">
        <ele>1269.5159912109</ele>
        <time>2010-06-13T07:48:54Z</time>
      </trkpt>
      <trkpt lat="45.6824" lon="6.03314">
        <ele>1270.9110107422</ele>
        <time>2010-06-13T07:49:01Z</time>
      </trkpt>
      <trkpt lat="45.68253" lon="6.03329">
        <ele>1271.9279785156</ele>
        <time>2010-06-13T07:49:07Z</time>
      </trkpt>
      <trkpt lat="45.68271" lon="6.03342">
        <ele>1273.4820556641</ele>
        <time>2010-06-13T07:49:14Z</time>
      </trkpt>
      <trkpt lat="45.68292" lon="6.03352">
        <ele>1274.3809814453</ele>
        <time>2010-06-13T07:49:22Z</time>
      </trkpt>
      <trkpt lat="45.68313" lon="6.03353">
        <ele>1274.4479980469</ele>
        <time>2010-06-13T07:49:29Z</time>
      </trkpt>
      <trkpt lat="45.68335" lon="6.03348">
        <ele>1276.4780273438</ele>
        <time>2010-06-13T07:49:37Z</time>
      </trkpt>
      <trkpt lat="45.68356" lon="6.03352">
        <ele>1277.3280029297</ele>
        <time>2010-06-13T07:49:45Z</time>
      </trkpt>
      <trkpt lat="45.68368" lon="6.03364">
        <ele>1277.6929931641</ele>
        <time>2010-06-13T07:49:50Z</time>
      </trkpt>
      <trkpt lat="45.68386" lon="6.03383">
        <ele>1279.0030517578</ele>
        <time>2010-06-13T07:49:58Z</time>
      </trkpt>
      <trkpt lat="45.68405" lon="6.0339">
        <ele>1279.5269775391</ele>
        <time>2010-06-13T07:50:05Z</time>
      </trkpt>
      <trkpt lat="45.68425" lon="6.03389">
        <ele>1280.2259521484</ele>
        <time>2010-06-13T07:50:12Z</time>
      </trkpt>
      <trkpt lat="45.68436" lon="6.03399">
        <ele>1281.1280517578</ele>
        <time>2010-06-13T07:50:17Z</time>
      </trkpt>
      <trkpt lat="45.68445" lon="6.03417">
        <ele>1281.0789794922</ele>
        <time>2010-06-13T07:50:22Z</time>
      </trkpt>
      <trkpt lat="45.6846" lon="6.03438">
        <ele>1280.6080322266</ele>
        <time>2010-06-13T07:50:28Z</time>
      </trkpt>
      <trkpt lat="45.68471" lon="6.0346">
        <ele>1280.9029541016</ele>
        <time>2010-06-13T07:50:33Z</time>
      </trkpt>
      <trkpt lat="45.68484" lon="6.03493">
        <ele>1281.3160400391</ele>
        <time>2010-06-13T07:50:40Z</time>
      </trkpt>
      <trkpt lat="45.68502" lon="6.03517">
        <ele>1282.5589599609</ele>
        <time>2010-06-13T07:50:47Z</time>
      </trkpt>
      <trkpt lat="45.68513" lon="6.03542">
        <ele>1283.7440185547</ele>
        <time>2010-06-13T07:50:54Z</time>
      </trkpt>
      <trkpt lat="45.68518" lon="6.03571">
        <ele>1284.7669677734</ele>
        <time>2010-06-13T07:51:02Z</time>
      </trkpt>
      <trkpt lat="45.68526" lon="6.03591">
        <ele>1285.2459716797</ele>
        <time>2010-06-13T07:51:08Z</time>
      </trkpt>
      <trkpt lat="45.68539" lon="6.03615">
        <ele>1284.4079589844</ele>
        <time>2010-06-13T07:51:14Z</time>
      </trkpt>
      <trkpt lat="45.68564" lon="6.03642">
        <ele>1282.8299560547</ele>
        <time>2010-06-13T07:51:21Z</time>
      </trkpt>
      <trkpt lat="45.68583" lon="6.03646">
        <ele>1282.7950439453</ele>
        <time>2010-06-13T07:51:26Z</time>
      </trkpt>
      <trkpt lat="45.6859" lon="6.03633">
        <ele>1282.9720458984</ele>
        <time>2010-06-13T07:51:29Z</time>
      </trkpt>
      <trkpt lat="45.68594" lon="6.03623">
        <ele>1282.9069824219</ele>
        <time>2010-06-13T07:51:31Z</time>
      </trkpt>
      <trkpt lat="45.6861" lon="6.03598">
        <ele>1282.2309570312</ele>
        <time>2010-06-13T07:51:37Z</time>
      </trkpt>
      <trkpt lat="45.6863" lon="6.03582">
        <ele>1283.2359619141</ele>
        <time>2010-06-13T07:51:43Z</time>
      </trkpt>
      <trkpt lat="45.68644" lon="6.03578">
        <ele>1283.9919433594</ele>
        <time>2010-06-13T07:51:48Z</time>
      </trkpt>
      <trkpt lat="45.68663" lon="6.03579">
        <ele>1283.8189697266</ele>
        <time>2010-06-13T07:51:55Z</time>
      </trkpt>
      <trkpt lat="45.68674" lon="6.03581">
        <ele>1284.1130371094</ele>
        <time>2010-06-13T07:52:00Z</time>
      </trkpt>
      <trkpt lat="45.68686" lon="6.0358">
        <ele>1284.6879882812</ele>
        <time>2010-06-13T07:52:05Z</time>
      </trkpt>
      <trkpt lat="45.68687" lon="6.0358">
        <ele>1284.58203125</ele>
        <time>2010-06-13T07:52:06Z</time>
      </trkpt>
      <trkpt lat="45.68691" lon="6.03592">
        <ele>1283.8430175781</ele>
        <time>2010-06-13T07:52:11Z</time>
      </trkpt>
      <trkpt lat="45.68684" lon="6.0361">
        <ele>1279.7239990234</ele>
        <time>2010-06-13T07:52:15Z</time>
      </trkpt>
      <trkpt lat="45.6867" lon="6.03617">
        <ele>1277.6190185547</ele>
        <time>2010-06-13T07:52:18Z</time>
      </trkpt>
      <trkpt lat="45.68654" lon="6.03621">
        <ele>1277.6629638672</ele>
        <time>2010-06-13T07:52:21Z</time>
      </trkpt>
      <trkpt lat="45.68633" lon="6.03632">
        <ele>1277.9790039062</ele>
        <time>2010-06-13T07:52:25Z</time>
      </trkpt>
      <trkpt lat="45.68611" lon="6.03642">
        <ele>1276.5260009766</ele>
        <time>2010-06-13T07:52:29Z</time>
      </trkpt>
      <trkpt lat="45.686" lon="6.03661">
        <ele>1277.0250244141</ele>
        <time>2010-06-13T07:52:34Z</time>
      </trkpt>
      <trkpt lat="45.68592" lon="6.0368">
        <ele>1275.6040039062</ele>
        <time>2010-06-13T07:52:37Z</time>
      </trkpt>
      <trkpt lat="45.68583" lon="6.03698">
        <ele>1274.4530029297</ele>
        <time>2010-06-13T07:52:40Z</time>
      </trkpt>
      <trkpt lat="45.6857" lon="6.03712">
        <ele>1272.1429443359</ele>
        <time>2010-06-13T07:52:43Z</time>
      </trkpt>
      <trkpt lat="45.6856" lon="6.03729">
        <ele>1270.1739501953</ele>
        <time>2010-06-13T07:52:46Z</time>
      </trkpt>
      <trkpt lat="45.68541" lon="6.03752">
        <ele>1266.20703125</ele>
        <time>2010-06-13T07:52:51Z</time>
      </trkpt>
      <trkpt lat="45.68533" lon="6.0376">
        <ele>1264.2540283203</ele>
        <time>2010-06-13T07:52:53Z</time>
      </trkpt>
      <trkpt lat="45.68524" lon="6.03773">
        <ele>1261.6519775391</ele>
        <time>2010-06-13T07:52:55Z</time>
      </trkpt>
      <trkpt lat="45.68515" lon="6.03788">
        <ele>1259.2969970703</ele>
        <time>2010-06-13T07:52:57Z</time>
      </trkpt>
      <trkpt lat="45.68506" lon="6.03824">
        <ele>1255.0009765625</ele>
        <time>2010-06-13T07:53:02Z</time>
      </trkpt>
      <trkpt lat="45.68496" lon="6.03831">
        <ele>1252.1800537109</ele>
        <time>2010-06-13T07:53:05Z</time>
      </trkpt>
      <trkpt lat="45.68493" lon="6.0383">
        <ele>1251.0589599609</ele>
        <time>2010-06-13T07:53:06Z</time>
      </trkpt>
      <trkpt lat="45.68485" lon="6.03827">
        <ele>1248.7139892578</ele>
        <time>2010-06-13T07:53:08Z</time>
      </trkpt>
      <trkpt lat="45.68462" lon="6.03822">
        <ele>1243.8669433594</ele>
        <time>2010-06-13T07:53:13Z</time>
      </trkpt>
      <trkpt lat="45.68458" lon="6.03819">
        <ele>1242.875</ele>
        <time>2010-06-13T07:53:14Z</time>
      </trkpt>
      <trkpt lat="45.68451" lon="6.03811">
        <ele>1241.0560302734</ele>
        <time>2010-06-13T07:53:16Z</time>
      </trkpt>
      <trkpt lat="45.68428" lon="6.03801">
        <ele>1234.9770507812</ele>
        <time>2010-06-13T07:53:21Z</time>
      </trkpt>
      <trkpt lat="45.68418" lon="6.03815">
        <ele>1230.6109619141</ele>
        <time>2010-06-13T07:53:25Z</time>
      </trkpt>
      <trkpt lat="45.68421" lon="6.03841">
        <ele>1226.458984375</ele>
        <time>2010-06-13T07:53:28Z</time>
      </trkpt>
      <trkpt lat="45.68423" lon="6.03863">
        <ele>1224.3480224609</ele>
        <time>2010-06-13T07:53:30Z</time>
      </trkpt>
      <trkpt lat="45.68424" lon="6.03901">
        <ele>1221.8449707031</ele>
        <time>2010-06-13T07:53:34Z</time>
      </trkpt>
      <trkpt lat="45.68435" lon="6.03935">
        <ele>1219.6600341797</ele>
        <time>2010-06-13T07:53:38Z</time>
      </trkpt>
      <trkpt lat="45.6845" lon="6.03959">
        <ele>1217.9410400391</ele>
        <time>2010-06-13T07:53:41Z</time>
      </trkpt>
      <trkpt lat="45.68472" lon="6.03996">
        <ele>1214.5789794922</ele>
        <time>2010-06-13T07:53:45Z</time>
      </trkpt>
      <trkpt lat="45.68496" lon="6.04046">
        <ele>1211.6109619141</ele>
        <time>2010-06-13T07:53:50Z</time>
      </trkpt>
      <trkpt lat="45.68512" lon="6.04093">
        <ele>1209.3270263672</ele>
        <time>2010-06-13T07:53:55Z</time>
      </trkpt>
      <trkpt lat="45.68533" lon="6.04132">
        <ele>1207.5229492188</ele>
        <time>2010-06-13T07:54:00Z</time>
      </trkpt>
      <trkpt lat="45.68555" lon="6.04164">
        <ele>1204.4759521484</ele>
        <time>2010-06-13T07:54:04Z</time>
      </trkpt>
      <trkpt lat="45.68577" lon="6.04198">
        <ele>1202.1330566406</ele>
        <time>2010-06-13T07:54:08Z</time>
      </trkpt>
      <trkpt lat="45.68602" lon="6.04253">
        <ele>1197.9040527344</ele>
        <time>2010-06-13T07:54:13Z</time>
      </trkpt>
      <trkpt lat="45.68618" lon="6.04284">
        <ele>1195.1989746094</ele>
        <time>2010-06-13T07:54:16Z</time>
      </trkpt>
      <trkpt lat="45.68647" lon="6.04313">
        <ele>1191.9040527344</ele>
        <time>2010-06-13T07:54:20Z</time>
      </trkpt>
      <trkpt lat="45.68688" lon="6.04345">
        <ele>1189.0059814453</ele>
        <time>2010-06-13T07:54:25Z</time>
      </trkpt>
      <trkpt lat="45.6871" lon="6.04373">
        <ele>1186.8909912109</ele>
        <time>2010-06-13T07:54:28Z</time>
      </trkpt>
      <trkpt lat="45.68742" lon="6.04407">
        <ele>1183.7490234375</ele>
        <time>2010-06-13T07:54:32Z</time>
      </trkpt>
      <trkpt lat="45.68801" lon="6.04464">
        <ele>1178.1259765625</ele>
        <time>2010-06-13T07:54:39Z</time>
      </trkpt>
      <trkpt lat="45.68828" lon="6.04489">
        <ele>1176.2149658203</ele>
        <time>2010-06-13T07:54:42Z</time>
      </trkpt>
      <trkpt lat="45.68877" lon="6.04515">
        <ele>1171.9189453125</ele>
        <time>2010-06-13T07:54:47Z</time>
      </trkpt>
      <trkpt lat="45.68886" lon="6.0452">
        <ele>1171.0240478516</ele>
        <time>2010-06-13T07:54:48Z</time>
      </trkpt>
      <trkpt lat="45.68903" lon="6.04534">
        <ele>1170.2509765625</ele>
        <time>2010-06-13T07:54:50Z</time>
      </trkpt>
      <trkpt lat="45.68922" lon="6.04565">
        <ele>1167.9659423828</ele>
        <time>2010-06-13T07:54:53Z</time>
      </trkpt>
      <trkpt lat="45.68925" lon="6.04577">
        <ele>1167.375</ele>
        <time>2010-06-13T07:54:54Z</time>
      </trkpt>
      <trkpt lat="45.68946" lon="6.04626">
        <ele>1164.5539550781</ele>
        <time>2010-06-13T07:54:59Z</time>
      </trkpt>
      <trkpt lat="45.68958" lon="6.04641">
        <ele>1164.1359863281</ele>
        <time>2010-06-13T07:55:01Z</time>
      </trkpt>
      <trkpt lat="45.68986" lon="6.04667">
        <ele>1168.0949707031</ele>
        <time>2010-06-13T07:55:07Z</time>
      </trkpt>
      <trkpt lat="45.68998" lon="6.04668">
        <ele>1170.1920166016</ele>
        <time>2010-06-13T07:55:10Z</time>
      </trkpt>
      <trkpt lat="45.69004" lon="6.04667">
        <ele>1171.4940185547</ele>
        <time>2010-06-13T07:55:12Z</time>
      </trkpt>
      <trkpt lat="45.69012" lon="6.04667">
        <ele>1172.7490234375</ele>
        <time>2010-06-13T07:55:15Z</time>
      </trkpt>
      <trkpt lat="45.69017" lon="6.04666">
        <ele>1173.0870361328</ele>
        <time>2010-06-13T07:55:17Z</time>
      </trkpt>
      <trkpt lat="45.69026" lon="6.04667">
        <ele>1173.8919677734</ele>
        <time>2010-06-13T07:55:20Z</time>
      </trkpt>
      <trkpt lat="45.69029" lon="6.04668">
        <ele>1174.2399902344</ele>
        <time>2010-06-13T07:55:21Z</time>
      </trkpt>
      <trkpt lat="45.6904" lon="6.04671">
        <ele>1175.2850341797</ele>
        <time>2010-06-13T07:55:25Z</time>
      </trkpt>
      <trkpt lat="45.69053" lon="6.04679">
        <ele>1176.541015625</ele>
        <time>2010-06-13T07:55:30Z</time>
      </trkpt>
      <trkpt lat="45.69066" lon="6.04689">
        <ele>1177.9830322266</ele>
        <time>2010-06-13T07:55:36Z</time>
      </trkpt>
      <trkpt lat="45.69089" lon="6.04704">
        <ele>1179.0560302734</ele>
        <time>2010-06-13T07:55:45Z</time>
      </trkpt>
      <trkpt lat="45.69109" lon="6.04713">
        <ele>1180.7139892578</ele>
        <time>2010-06-13T07:55:53Z</time>
      </trkpt>
      <trkpt lat="45.69125" lon="6.04722">
        <ele>1181.8220214844</ele>
        <time>2010-06-13T07:56:00Z</time>
      </trkpt>
      <trkpt lat="45.69146" lon="6.04735">
        <ele>1183.9959716797</ele>
        <time>2010-06-13T07:56:09Z</time>
      </trkpt>
      <trkpt lat="45.69157" lon="6.04736">
        <ele>1185.04296875</ele>
        <time>2010-06-13T07:56:14Z</time>
      </trkpt>
      <trkpt lat="45.6916" lon="6.04735">
        <ele>1185.2010498047</ele>
        <time>2010-06-13T07:56:15Z</time>
      </trkpt>
      <trkpt lat="45.69174" lon="6.04725">
        <ele>1186.4649658203</ele>
        <time>2010-06-13T07:56:22Z</time>
      </trkpt>
      <trkpt lat="45.69189" lon="6.04719">
        <ele>1187.8120117188</ele>
        <time>2010-06-13T07:56:29Z</time>
      </trkpt>
      <trkpt lat="45.69192" lon="6.04719">
        <ele>1188.5310058594</ele>
        <time>2010-06-13T07:56:33Z</time>
      </trkpt>
      <trkpt lat="45.69196" lon="6.04721">
        <ele>1188.623046875</ele>
        <time>2010-06-13T07:56:43Z</time>
      </trkpt>
      <trkpt lat="45.69197" lon="6.04721">
        <ele>1188.7159423828</ele>
        <time>2010-06-13T07:56:44Z</time>
      </trkpt>
      <trkpt lat="45.69214" lon="6.04722">
        <ele>1189.8719482422</ele>
        <time>2010-06-13T07:56:52Z</time>
      </trkpt>
      <trkpt lat="45.6923" lon="6.04731">
        <ele>1190.8010253906</ele>
        <time>2010-06-13T07:56:59Z</time>
      </trkpt>
      <trkpt lat="45.69245" lon="6.04741">
        <ele>1192.0980224609</ele>
        <time>2010-06-13T07:57:06Z</time>
      </trkpt>
      <trkpt lat="45.69247" lon="6.04742">
        <ele>1192.3299560547</ele>
        <time>2010-06-13T07:57:07Z</time>
      </trkpt>
      <trkpt lat="45.6926" lon="6.04734">
        <ele>1193.5729980469</ele>
        <time>2010-06-13T07:57:13Z</time>
      </trkpt>
      <trkpt lat="45.69273" lon="6.0472">
        <ele>1194.4350585938</ele>
        <time>2010-06-13T07:57:20Z</time>
      </trkpt>
      <trkpt lat="45.69294" lon="6.04714">
        <ele>1195.7590332031</ele>
        <time>2010-06-13T07:57:29Z</time>
      </trkpt>
      <trkpt lat="45.69299" lon="6.04712">
        <ele>1195.9449462891</ele>
        <time>2010-06-13T07:57:31Z</time>
      </trkpt>
      <trkpt lat="45.69312" lon="6.04693">
        <ele>1197.5600585938</ele>
        <time>2010-06-13T07:57:39Z</time>
      </trkpt>
      <trkpt lat="45.69322" lon="6.04677">
        <ele>1198.6629638672</ele>
        <time>2010-06-13T07:57:45Z</time>
      </trkpt>
      <trkpt lat="45.69333" lon="6.04663">
        <ele>1199.4919433594</ele>
        <time>2010-06-13T07:57:51Z</time>
      </trkpt>
      <trkpt lat="45.69349" lon="6.04664">
        <ele>1200.6560058594</ele>
        <time>2010-06-13T07:57:58Z</time>
      </trkpt>
      <trkpt lat="45.69363" lon="6.04674">
        <ele>1202.6700439453</ele>
        <time>2010-06-13T07:58:06Z</time>
      </trkpt>
      <trkpt lat="45.69374" lon="6.04679">
        <ele>1203.6099853516</ele>
        <time>2010-06-13T07:58:13Z</time>
      </trkpt>
      <trkpt lat="45.69386" lon="6.04669">
        <ele>1204.958984375</ele>
        <time>2010-06-13T07:58:20Z</time>
      </trkpt>
      <trkpt lat="45.69395" lon="6.04657">
        <ele>1205.5880126953</ele>
        <time>2010-06-13T07:58:26Z</time>
      </trkpt>
      <trkpt lat="45.69407" lon="6.04646">
        <ele>1206.625</ele>
        <time>2010-06-13T07:58:33Z</time>
      </trkpt>
      <trkpt lat="45.69422" lon="6.04646">
        <ele>1207.5679931641</ele>
        <time>2010-06-13T07:58:40Z</time>
      </trkpt>
      <trkpt lat="45.69438" lon="6.04653">
        <ele>1208.8449707031</ele>
        <time>2010-06-13T07:58:48Z</time>
      </trkpt>
      <trkpt lat="45.69447" lon="6.04665">
        <ele>1209.6739501953</ele>
        <time>2010-06-13T07:58:54Z</time>
      </trkpt>
      <trkpt lat="45.69458" lon="6.04679">
        <ele>1210.5949707031</ele>
        <time>2010-06-13T07:59:01Z</time>
      </trkpt>
      <trkpt lat="45.69471" lon="6.04696">
        <ele>1211.5229492188</ele>
        <time>2010-06-13T07:59:09Z</time>
      </trkpt>
      <trkpt lat="45.69482" lon="6.04712">
        <ele>1212.3919677734</ele>
        <time>2010-06-13T07:59:16Z</time>
      </trkpt>
      <trkpt lat="45.69491" lon="6.04735">
        <ele>1213.4799804688</ele>
        <time>2010-06-13T07:59:24Z</time>
      </trkpt>
      <trkpt lat="45.69501" lon="6.04747">
        <ele>1214.1750488281</ele>
        <time>2010-06-13T07:59:30Z</time>
      </trkpt>
      <trkpt lat="45.69517" lon="6.04746">
        <ele>1215.3050537109</ele>
        <time>2010-06-13T07:59:37Z</time>
      </trkpt>
      <trkpt lat="45.69529" lon="6.04738">
        <ele>1216.4890136719</ele>
        <time>2010-06-13T07:59:43Z</time>
      </trkpt>
      <trkpt lat="45.69542" lon="6.0473">
        <ele>1217.0860595703</ele>
        <time>2010-06-13T07:59:49Z</time>
      </trkpt>
      <trkpt lat="45.69557" lon="6.04723">
        <ele>1217.9530029297</ele>
        <time>2010-06-13T07:59:56Z</time>
      </trkpt>
      <trkpt lat="45.69571" lon="6.04719">
        <ele>1218.583984375</ele>
        <time>2010-06-13T08:00:02Z</time>
      </trkpt>
      <trkpt lat="45.69585" lon="6.0472">
        <ele>1219.6259765625</ele>
        <time>2010-06-13T08:00:08Z</time>
      </trkpt>
      <trkpt lat="45.696" lon="6.04722">
        <ele>1220.8790283203</ele>
        <time>2010-06-13T08:00:15Z</time>
      </trkpt>
      <trkpt lat="45.69614" lon="6.04716">
        <ele>1221.5059814453</ele>
        <time>2010-06-13T08:00:21Z</time>
      </trkpt>
      <trkpt lat="45.69634" lon="6.04704">
        <ele>1223.1390380859</ele>
        <time>2010-06-13T08:00:30Z</time>
      </trkpt>
      <trkpt lat="45.69652" lon="6.04692">
        <ele>1224.2740478516</ele>
        <time>2010-06-13T08:00:38Z</time>
      </trkpt>
      <trkpt lat="45.69668" lon="6.04687">
        <ele>1224.9539794922</ele>
        <time>2010-06-13T08:00:45Z</time>
      </trkpt>
      <trkpt lat="45.69687" lon="6.04681">
        <ele>1226.0159912109</ele>
        <time>2010-06-13T08:00:53Z</time>
      </trkpt>
      <trkpt lat="45.69698" lon="6.0467">
        <ele>1227.0319824219</ele>
        <time>2010-06-13T08:00:59Z</time>
      </trkpt>
      <trkpt lat="45.69705" lon="6.04658">
        <ele>1227.5749511719</ele>
        <time>2010-06-13T08:01:04Z</time>
      </trkpt>
      <trkpt lat="45.697" lon="6.04645">
        <ele>1228.1639404297</ele>
        <time>2010-06-13T08:01:09Z</time>
      </trkpt>
      <trkpt lat="45.69696" lon="6.04644">
        <ele>1228.3669433594</ele>
        <time>2010-06-13T08:01:11Z</time>
      </trkpt>
      <trkpt lat="45.69675" lon="6.04648">
        <ele>1230.5810546875</ele>
        <time>2010-06-13T08:01:21Z</time>
      </trkpt>
      <trkpt lat="45.69655" lon="6.04656">
        <ele>1232.4670410156</ele>
        <time>2010-06-13T08:01:31Z</time>
      </trkpt>
      <trkpt lat="45.69641" lon="6.04654">
        <ele>1233.7060546875</ele>
        <time>2010-06-13T08:01:38Z</time>
      </trkpt>
      <trkpt lat="45.69625" lon="6.04643">
        <ele>1235.2530517578</ele>
        <time>2010-06-13T08:01:47Z</time>
      </trkpt>
      <trkpt lat="45.69614" lon="6.04631">
        <ele>1236.3919677734</ele>
        <time>2010-06-13T08:01:54Z</time>
      </trkpt>
      <trkpt lat="45.69597" lon="6.04618">
        <ele>1237.8919677734</ele>
        <time>2010-06-13T08:02:03Z</time>
      </trkpt>
      <trkpt lat="45.69583" lon="6.04609">
        <ele>1239.4119873047</ele>
        <time>2010-06-13T08:02:11Z</time>
      </trkpt>
      <trkpt lat="45.69576" lon="6.04596">
        <ele>1240.3370361328</ele>
        <time>2010-06-13T08:02:17Z</time>
      </trkpt>
      <trkpt lat="45.69574" lon="6.04574">
        <ele>1240.9880371094</ele>
        <time>2010-06-13T08:02:25Z</time>
      </trkpt>
      <trkpt lat="45.69571" lon="6.04558">
        <ele>1242.1219482422</ele>
        <time>2010-06-13T08:02:31Z</time>
      </trkpt>
      <trkpt lat="45.69561" lon="6.04536">
        <ele>1243.375</ele>
        <time>2010-06-13T08:02:40Z</time>
      </trkpt>
      <trkpt lat="45.69554" lon="6.04518">
        <ele>1244.5600585938</ele>
        <time>2010-06-13T08:02:47Z</time>
      </trkpt>
      <trkpt lat="45.69551" lon="6.04496">
        <ele>1245.7230224609</ele>
        <time>2010-06-13T08:02:55Z</time>
      </trkpt>
      <trkpt lat="45.69552" lon="6.04467">
        <ele>1247.4499511719</ele>
        <time>2010-06-13T08:03:05Z</time>
      </trkpt>
      <trkpt lat="45.69558" lon="6.04443">
        <ele>1248.2330322266</ele>
        <time>2010-06-13T08:03:14Z</time>
      </trkpt>
      <trkpt lat="45.69566" lon="6.04427">
        <ele>1249.0749511719</ele>
        <time>2010-06-13T08:03:20Z</time>
      </trkpt>
      <trkpt lat="45.69574" lon="6.04408">
        <ele>1249.25</ele>
        <time>2010-06-13T08:03:26Z</time>
      </trkpt>
      <trkpt lat="45.6958" lon="6.04389">
        <ele>1249.416015625</ele>
        <time>2010-06-13T08:03:32Z</time>
      </trkpt>
      <trkpt lat="45.69591" lon="6.04372">
        <ele>1249.5930175781</ele>
        <time>2010-06-13T08:03:38Z</time>
      </trkpt>
      <trkpt lat="45.69606" lon="6.04353">
        <ele>1249.8039550781</ele>
        <time>2010-06-13T08:03:45Z</time>
      </trkpt>
      <trkpt lat="45.69618" lon="6.04336">
        <ele>1249.9010009766</ele>
        <time>2010-06-13T08:03:51Z</time>
      </trkpt>
      <trkpt lat="45.69633" lon="6.04321">
        <ele>1250.1519775391</ele>
        <time>2010-06-13T08:03:57Z</time>
      </trkpt>
      <trkpt lat="45.69654" lon="6.04294">
        <ele>1251.1070556641</ele>
        <time>2010-06-13T08:04:06Z</time>
      </trkpt>
      <trkpt lat="45.69674" lon="6.04279">
        <ele>1250.7490234375</ele>
        <time>2010-06-13T08:04:13Z</time>
      </trkpt>
      <trkpt lat="45.69695" lon="6.04258">
        <ele>1249.8609619141</ele>
        <time>2010-06-13T08:04:20Z</time>
      </trkpt>
      <trkpt lat="45.69711" lon="6.04238">
        <ele>1249.5830078125</ele>
        <time>2010-06-13T08:04:26Z</time>
      </trkpt>
      <trkpt lat="45.69714" lon="6.04216">
        <ele>1249.4870605469</ele>
        <time>2010-06-13T08:04:31Z</time>
      </trkpt>
      <trkpt lat="45.69708" lon="6.04197">
        <ele>1249.3489990234</ele>
        <time>2010-06-13T08:04:35Z</time>
      </trkpt>
      <trkpt lat="45.69691" lon="6.0418">
        <ele>1248.9670410156</ele>
        <time>2010-06-13T08:04:40Z</time>
      </trkpt>
      <trkpt lat="45.69676" lon="6.04172">
        <ele>1248.7590332031</ele>
        <time>2010-06-13T08:04:44Z</time>
      </trkpt>
      <trkpt lat="45.69653" lon="6.0417">
        <ele>1249.0799560547</ele>
        <time>2010-06-13T08:04:50Z</time>
      </trkpt>
      <trkpt lat="45.69633" lon="6.04159">
        <ele>1249.4940185547</ele>
        <time>2010-06-13T08:04:56Z</time>
      </trkpt>
      <trkpt lat="45.69616" lon="6.04135">
        <ele>1250.5</ele>
        <time>2010-06-13T08:05:02Z</time>
      </trkpt>
      <trkpt lat="45.69603" lon="6.04132">
        <ele>1251.4809570312</ele>
        <time>2010-06-13T08:05:06Z</time>
      </trkpt>
      <trkpt lat="45.69583" lon="6.04137">
        <ele>1253.1259765625</ele>
        <time>2010-06-13T08:05:12Z</time>
      </trkpt>
      <trkpt lat="45.69571" lon="6.0414">
        <ele>1253.95703125</ele>
        <time>2010-06-13T08:05:16Z</time>
      </trkpt>
      <trkpt lat="45.69559" lon="6.04147">
        <ele>1254.9139404297</ele>
        <time>2010-06-13T08:05:21Z</time>
      </trkpt>
      <trkpt lat="45.6955" lon="6.0416">
        <ele>1255.7199707031</ele>
        <time>2010-06-13T08:05:26Z</time>
      </trkpt>
      <trkpt lat="45.69541" lon="6.04185">
        <ele>1257.6440429688</ele>
        <time>2010-06-13T08:05:33Z</time>
      </trkpt>
      <trkpt lat="45.6953" lon="6.04203">
        <ele>1258.7459716797</ele>
        <time>2010-06-13T08:05:39Z</time>
      </trkpt>
      <trkpt lat="45.69518" lon="6.04206">
        <ele>1258.8890380859</ele>
        <time>2010-06-13T08:05:43Z</time>
      </trkpt>
      <trkpt lat="45.69501" lon="6.04191">
        <ele>1259.7900390625</ele>
        <time>2010-06-13T08:05:49Z</time>
      </trkpt>
      <trkpt lat="45.69493" lon="6.04171">
        <ele>1260.873046875</ele>
        <time>2010-06-13T08:05:54Z</time>
      </trkpt>
      <trkpt lat="45.69491" lon="6.04142">
        <ele>1261.9260253906</ele>
        <time>2010-06-13T08:06:01Z</time>
      </trkpt>
      <trkpt lat="45.69487" lon="6.04111">
        <ele>1261.9069824219</ele>
        <time>2010-06-13T08:06:08Z</time>
      </trkpt>
      <trkpt lat="45.69477" lon="6.04084">
        <ele>1263.5439453125</ele>
        <time>2010-06-13T08:06:15Z</time>
      </trkpt>
      <trkpt lat="45.69464" lon="6.04074">
        <ele>1264.5489501953</ele>
        <time>2010-06-13T08:06:20Z</time>
      </trkpt>
      <trkpt lat="45.6945" lon="6.04082">
        <ele>1264.83203125</ele>
        <time>2010-06-13T08:06:25Z</time>
      </trkpt>
      <trkpt lat="45.69429" lon="6.04093">
        <ele>1265.3260498047</ele>
        <time>2010-06-13T08:06:32Z</time>
      </trkpt>
      <trkpt lat="45.69416" lon="6.04096">
        <ele>1266.2239990234</ele>
        <time>2010-06-13T08:06:37Z</time>
      </trkpt>
      <trkpt lat="45.69395" lon="6.04108">
        <ele>1267.1319580078</ele>
        <time>2010-06-13T08:06:44Z</time>
      </trkpt>
      <trkpt lat="45.69381" lon="6.04119">
        <ele>1268.0369873047</ele>
        <time>2010-06-13T08:06:50Z</time>
      </trkpt>
      <trkpt lat="45.69361" lon="6.04127">
        <ele>1268.2979736328</ele>
        <time>2010-06-13T08:06:57Z</time>
      </trkpt>
      <trkpt lat="45.69348" lon="6.04117">
        <ele>1268.7270507812</ele>
        <time>2010-06-13T08:07:02Z</time>
      </trkpt>
      <trkpt lat="45.69335" lon="6.04099">
        <ele>1269.1899414062</ele>
        <time>2010-06-13T08:07:08Z</time>
      </trkpt>
      <trkpt lat="45.69323" lon="6.04081">
        <ele>1268.9990234375</ele>
        <time>2010-06-13T08:07:13Z</time>
      </trkpt>
      <trkpt lat="45.69311" lon="6.04061">
        <ele>1269.5450439453</ele>
        <time>2010-06-13T08:07:18Z</time>
      </trkpt>
      <trkpt lat="45.69292" lon="6.04031">
        <ele>1270.751953125</ele>
        <time>2010-06-13T08:07:26Z</time>
      </trkpt>
      <trkpt lat="45.69278" lon="6.04009">
        <ele>1271.3389892578</ele>
        <time>2010-06-13T08:07:32Z</time>
      </trkpt>
      <trkpt lat="45.69267" lon="6.03973">
        <ele>1272.8740234375</ele>
        <time>2010-06-13T08:07:40Z</time>
      </trkpt>
      <trkpt lat="45.69256" lon="6.03951">
        <ele>1274.4000244141</ele>
        <time>2010-06-13T08:07:46Z</time>
      </trkpt>
      <trkpt lat="45.69242" lon="6.03944">
        <ele>1274.7330322266</ele>
        <time>2010-06-13T08:07:50Z</time>
      </trkpt>
      <trkpt lat="45.69222" lon="6.03935">
        <ele>1276.0510253906</ele>
        <time>2010-06-13T08:07:56Z</time>
      </trkpt>
      <trkpt lat="45.69194" lon="6.03924">
        <ele>1276.79296875</ele>
        <time>2010-06-13T08:08:04Z</time>
      </trkpt>
      <trkpt lat="45.69172" lon="6.03913">
        <ele>1277.8790283203</ele>
        <time>2010-06-13T08:08:11Z</time>
      </trkpt>
      <trkpt lat="45.69153" lon="6.03899">
        <ele>1278.3430175781</ele>
        <time>2010-06-13T08:08:17Z</time>
      </trkpt>
      <trkpt lat="45.69126" lon="6.03872">
        <ele>1278.1330566406</ele>
        <time>2010-06-13T08:08:25Z</time>
      </trkpt>
      <trkpt lat="45.69118" lon="6.03866">
        <ele>1277.9399414062</ele>
        <time>2010-06-13T08:08:27Z</time>
      </trkpt>
      <trkpt lat="45.69104" lon="6.03862">
        <ele>1277.5939941406</ele>
        <time>2010-06-13T08:08:30Z</time>
      </trkpt>
      <trkpt lat="45.69088" lon="6.0386">
        <ele>1277.3160400391</ele>
        <time>2010-06-13T08:08:33Z</time>
      </trkpt>
      <trkpt lat="45.69062" lon="6.03853">
        <ele>1276.7180175781</ele>
        <time>2010-06-13T08:08:38Z</time>
      </trkpt>
      <trkpt lat="45.69054" lon="6.03844">
        <ele>1276.7430419922</ele>
        <time>2010-06-13T08:08:40Z</time>
      </trkpt>
      <trkpt lat="45.6904" lon="6.03816">
        <ele>1277.3000488281</ele>
        <time>2010-06-13T08:08:45Z</time>
      </trkpt>
      <trkpt lat="45.69033" lon="6.03798">
        <ele>1277.6519775391</ele>
        <time>2010-06-13T08:08:48Z</time>
      </trkpt>
      <trkpt lat="45.69029" lon="6.03761">
        <ele>1278.5830078125</ele>
        <time>2010-06-13T08:08:54Z</time>
      </trkpt>
      <trkpt lat="45.69018" lon="6.03727">
        <ele>1279.7370605469</ele>
        <time>2010-06-13T08:09:00Z</time>
      </trkpt>
      <trkpt lat="45.69014" lon="6.03716">
        <ele>1280.1070556641</ele>
        <time>2010-06-13T08:09:02Z</time>
      </trkpt>
      <trkpt lat="45.69008" lon="6.03695">
        <ele>1280.7209472656</ele>
        <time>2010-06-13T08:09:06Z</time>
      </trkpt>
      <trkpt lat="45.68997" lon="6.03668">
        <ele>1281.6259765625</ele>
        <time>2010-06-13T08:09:11Z</time>
      </trkpt>
      <trkpt lat="45.68992" lon="6.03658">
        <ele>1282.1070556641</ele>
        <time>2010-06-13T08:09:13Z</time>
      </trkpt>
      <trkpt lat="45.68969" lon="6.03641">
        <ele>1281.8199462891</ele>
        <time>2010-06-13T08:09:19Z</time>
      </trkpt>
      <trkpt lat="45.68959" lon="6.03645">
        <ele>1282.2559814453</ele>
        <time>2010-06-13T08:09:22Z</time>
      </trkpt>
      <trkpt lat="45.68941" lon="6.03658">
        <ele>1282.5080566406</ele>
        <time>2010-06-13T08:09:27Z</time>
      </trkpt>
      <trkpt lat="45.68908" lon="6.03675">
        <ele>1281.2209472656</ele>
        <time>2010-06-13T08:09:34Z</time>
      </trkpt>
      <trkpt lat="45.68903" lon="6.03677">
        <ele>1280.9010009766</ele>
        <time>2010-06-13T08:09:35Z</time>
      </trkpt>
      <trkpt lat="45.68872" lon="6.03674">
        <ele>1279.0250244141</ele>
        <time>2010-06-13T08:09:40Z</time>
      </trkpt>
      <trkpt lat="45.68853" lon="6.03651">
        <ele>1278.6130371094</ele>
        <time>2010-06-13T08:09:44Z</time>
      </trkpt>
      <trkpt lat="45.68842" lon="6.03632">
        <ele>1278.3719482422</ele>
        <time>2010-06-13T08:09:47Z</time>
      </trkpt>
      <trkpt lat="45.68831" lon="6.03605">
        <ele>1278.3070068359</ele>
        <time>2010-06-13T08:09:51Z</time>
      </trkpt>
      <trkpt lat="45.68832" lon="6.03597">
        <ele>1278.1979980469</ele>
        <time>2010-06-13T08:09:52Z</time>
      </trkpt>
      <trkpt lat="45.68833" lon="6.03545">
        <ele>1278.6579589844</ele>
        <time>2010-06-13T08:09:59Z</time>
      </trkpt>
      <trkpt lat="45.68832" lon="6.03518">
        <ele>1278.7540283203</ele>
        <time>2010-06-13T08:10:03Z</time>
      </trkpt>
      <trkpt lat="45.68835" lon="6.03505">
        <ele>1278.5179443359</ele>
        <time>2010-06-13T08:10:05Z</time>
      </trkpt>
      <trkpt lat="45.68832" lon="6.03467">
        <ele>1278.083984375</ele>
        <time>2010-06-13T08:10:10Z</time>
      </trkpt>
      <trkpt lat="45.68817" lon="6.03438">
        <ele>1278.2440185547</ele>
        <time>2010-06-13T08:10:15Z</time>
      </trkpt>
      <trkpt lat="45.68794" lon="6.03408">
        <ele>1278.8580322266</ele>
        <time>2010-06-13T08:10:21Z</time>
      </trkpt>
      <trkpt lat="45.68778" lon="6.0339">
        <ele>1279.1319580078</ele>
        <time>2010-06-13T08:10:25Z</time>
      </trkpt>
      <trkpt lat="45.68745" lon="6.0335">
        <ele>1280.5250244141</ele>
        <time>2010-06-13T08:10:34Z</time>
      </trkpt>
      <trkpt lat="45.68724" lon="6.03326">
        <ele>1282.7189941406</ele>
        <time>2010-06-13T08:10:41Z</time>
      </trkpt>
      <trkpt lat="45.68715" lon="6.03316">
        <ele>1283.9620361328</ele>
        <time>2010-06-13T08:10:44Z</time>
      </trkpt>
      <trkpt lat="45.687" lon="6.03301">
        <ele>1285.001953125</ele>
        <time>2010-06-13T08:10:49Z</time>
      </trkpt>
      <trkpt lat="45.68688" lon="6.0329">
        <ele>1285.8990478516</ele>
        <time>2010-06-13T08:10:53Z</time>
      </trkpt>
      <trkpt lat="45.68668" lon="6.03274">
        <ele>1287.0629882812</ele>
        <time>2010-06-13T08:10:59Z</time>
      </trkpt>
      <trkpt lat="45.6865" lon="6.03254">
        <ele>1287.8540039062</ele>
        <time>2010-06-13T08:11:05Z</time>
      </trkpt>
      <trkpt lat="45.68644" lon="6.03248">
        <ele>1288.2559814453</ele>
        <time>2010-06-13T08:11:07Z</time>
      </trkpt>
      <trkpt lat="45.68617" lon="6.03245">
        <ele>1288.3070068359</ele>
        <time>2010-06-13T08:11:13Z</time>
      </trkpt>
      <trkpt lat="45.68606" lon="6.03247">
        <ele>1288.2390136719</ele>
        <time>2010-06-13T08:11:15Z</time>
      </trkpt>
      <trkpt lat="45.68572" lon="6.03245">
        <ele>1286.8890380859</ele>
        <time>2010-06-13T08:11:21Z</time>
      </trkpt>
      <trkpt lat="45.68534" lon="6.03245">
        <ele>1285.5710449219</ele>
        <time>2010-06-13T08:11:27Z</time>
      </trkpt>
      <trkpt lat="45.68503" lon="6.03249">
        <ele>1284.8020019531</ele>
        <time>2010-06-13T08:11:32Z</time>
      </trkpt>
      <trkpt lat="45.68481" lon="6.03243">
        <ele>1284.2230224609</ele>
        <time>2010-06-13T08:11:36Z</time>
      </trkpt>
      <trkpt lat="45.6848" lon="6.0323">
        <ele>1284.0649414062</ele>
        <time>2010-06-13T08:11:38Z</time>
      </trkpt>
      <trkpt lat="45.68485" lon="6.03213">
        <ele>1284.4840087891</ele>
        <time>2010-06-13T08:11:41Z</time>
      </trkpt>
      <trkpt lat="45.68488" lon="6.03193">
        <ele>1285.3129882812</ele>
        <time>2010-06-13T08:11:44Z</time>
      </trkpt>
      <trkpt lat="45.68486" lon="6.03158">
        <ele>1286.5980224609</ele>
        <time>2010-06-13T08:11:49Z</time>
      </trkpt>
      <trkpt lat="45.68486" lon="6.03144">
        <ele>1286.9909667969</ele>
        <time>2010-06-13T08:11:51Z</time>
      </trkpt>
      <trkpt lat="45.68489" lon="6.03107">
        <ele>1288.5460205078</ele>
        <time>2010-06-13T08:11:57Z</time>
      </trkpt>
      <trkpt lat="45.68489" lon="6.03101">
        <ele>1288.9399414062</ele>
        <time>2010-06-13T08:11:58Z</time>
      </trkpt>
      <trkpt lat="45.6849" lon="6.03062">
        <ele>1290.5450439453</ele>
        <time>2010-06-13T08:12:05Z</time>
      </trkpt>
      <trkpt lat="45.68486" lon="6.03023">
        <ele>1291.5780029297</ele>
        <time>2010-06-13T08:12:12Z</time>
      </trkpt>
      <trkpt lat="45.6848" lon="6.02997">
        <ele>1292.8409423828</ele>
        <time>2010-06-13T08:12:17Z</time>
      </trkpt>
      <trkpt lat="45.68463" lon="6.02976">
        <ele>1293.8280029297</ele>
        <time>2010-06-13T08:12:23Z</time>
      </trkpt>
      <trkpt lat="45.68442" lon="6.02956">
        <ele>1295.0360107422</ele>
        <time>2010-06-13T08:12:30Z</time>
      </trkpt>
      <trkpt lat="45.68436" lon="6.02933">
        <ele>1296.0290527344</ele>
        <time>2010-06-13T08:12:35Z</time>
      </trkpt>
      <trkpt lat="45.68436" lon="6.02895">
        <ele>1297.3580322266</ele>
        <time>2010-06-13T08:12:42Z</time>
      </trkpt>
      <trkpt lat="45.68442" lon="6.02873">
        <ele>1298.3079833984</ele>
        <time>2010-06-13T08:12:47Z</time>
      </trkpt>
      <trkpt lat="45.68456" lon="6.02858">
        <ele>1299.2230224609</ele>
        <time>2010-06-13T08:12:52Z</time>
      </trkpt>
      <trkpt lat="45.68469" lon="6.02845">
        <ele>1300.1400146484</ele>
        <time>2010-06-13T08:12:57Z</time>
      </trkpt>
      <trkpt lat="45.6848" lon="6.02819">
        <ele>1301.7230224609</ele>
        <time>2010-06-13T08:13:04Z</time>
      </trkpt>
      <trkpt lat="45.68488" lon="6.02785">
        <ele>1302.7719726562</ele>
        <time>2010-06-13T08:13:12Z</time>
      </trkpt>
      <trkpt lat="45.68493" lon="6.02753">
        <ele>1303.666015625</ele>
        <time>2010-06-13T08:13:19Z</time>
      </trkpt>
      <trkpt lat="45.68498" lon="6.02721">
        <ele>1304.8640136719</ele>
        <time>2010-06-13T08:13:26Z</time>
      </trkpt>
      <trkpt lat="45.68498" lon="6.02682">
        <ele>1306.6020507812</ele>
        <time>2010-06-13T08:13:34Z</time>
      </trkpt>
      <trkpt lat="45.68494" lon="6.02653">
        <ele>1307.5290527344</ele>
        <time>2010-06-13T08:13:40Z</time>
      </trkpt>
      <trkpt lat="45.68494" lon="6.02608">
        <ele>1309.123046875</ele>
        <time>2010-06-13T08:13:49Z</time>
      </trkpt>
      <trkpt lat="45.68494" lon="6.02574">
        <ele>1310.1169433594</ele>
        <time>2010-06-13T08:13:56Z</time>
      </trkpt>
      <trkpt lat="45.68488" lon="6.02542">
        <ele>1311.626953125</ele>
        <time>2010-06-13T08:14:03Z</time>
      </trkpt>
      <trkpt lat="45.68475" lon="6.02516">
        <ele>1313.1850585938</ele>
        <time>2010-06-13T08:14:10Z</time>
      </trkpt>
      <trkpt lat="45.68459" lon="6.025">
        <ele>1313.8330078125</ele>
        <time>2010-06-13T08:14:16Z</time>
      </trkpt>
      <trkpt lat="45.68437" lon="6.02491">
        <ele>1315.3270263672</ele>
        <time>2010-06-13T08:14:23Z</time>
      </trkpt>
      <trkpt lat="45.6841" lon="6.02482">
        <ele>1316.6519775391</ele>
        <time>2010-06-13T08:14:31Z</time>
      </trkpt>
      <trkpt lat="45.68382" lon="6.02467">
        <ele>1317.7600097656</ele>
        <time>2010-06-13T08:14:39Z</time>
      </trkpt>
      <trkpt lat="45.68355" lon="6.02444">
        <ele>1319.2209472656</ele>
        <time>2010-06-13T08:14:48Z</time>
      </trkpt>
      <trkpt lat="45.68333" lon="6.02425">
        <ele>1320.3260498047</ele>
        <time>2010-06-13T08:14:55Z</time>
      </trkpt>
      <trkpt lat="45.68314" lon="6.02411">
        <ele>1321.3079833984</ele>
        <time>2010-06-13T08:15:01Z</time>
      </trkpt>
      <trkpt lat="45.68285" lon="6.02399">
        <ele>1321.9300537109</ele>
        <time>2010-06-13T08:15:09Z</time>
      </trkpt>
      <trkpt lat="45.68264" lon="6.0238">
        <ele>1322.0889892578</ele>
        <time>2010-06-13T08:15:15Z</time>
      </trkpt>
      <trkpt lat="45.68258" lon="6.02372">
        <ele>1322.2679443359</ele>
        <time>2010-06-13T08:15:17Z</time>
      </trkpt>
      <trkpt lat="45.68237" lon="6.02335">
        <ele>1322.5770263672</ele>
        <time>2010-06-13T08:15:24Z</time>
      </trkpt>
      <trkpt lat="45.68226" lon="6.02312">
        <ele>1322.2430419922</ele>
        <time>2010-06-13T08:15:28Z</time>
      </trkpt>
      <trkpt lat="45.68216" lon="6.02288">
        <ele>1321.7320556641</ele>
        <time>2010-06-13T08:15:32Z</time>
      </trkpt>
      <trkpt lat="45.68202" lon="6.02266">
        <ele>1321.3100585938</ele>
        <time>2010-06-13T08:15:36Z</time>
      </trkpt>
      <trkpt lat="45.68185" lon="6.02247">
        <ele>1320.6750488281</ele>
        <time>2010-06-13T08:15:40Z</time>
      </trkpt>
      <trkpt lat="45.68172" lon="6.02232">
        <ele>1319.9870605469</ele>
        <time>2010-06-13T08:15:43Z</time>
      </trkpt>
      <trkpt lat="45.68148" lon="6.02196">
        <ele>1319.0059814453</ele>
        <time>2010-06-13T08:15:49Z</time>
      </trkpt>
      <trkpt lat="45.68134" lon="6.02172">
        <ele>1318.875</ele>
        <time>2010-06-13T08:15:53Z</time>
      </trkpt>
      <trkpt lat="45.68121" lon="6.02156">
        <ele>1318.3299560547</ele>
        <time>2010-06-13T08:15:56Z</time>
      </trkpt>
      <trkpt lat="45.6809" lon="6.02133">
        <ele>1317.0059814453</ele>
        <time>2010-06-13T08:16:02Z</time>
      </trkpt>
      <trkpt lat="45.68068" lon="6.02119">
        <ele>1315.875</ele>
        <time>2010-06-13T08:16:06Z</time>
      </trkpt>
      <trkpt lat="45.68046" lon="6.02097">
        <ele>1314.1979980469</ele>
        <time>2010-06-13T08:16:10Z</time>
      </trkpt>
      <trkpt lat="45.68039" lon="6.02075">
        <ele>1313.208984375</ele>
        <time>2010-06-13T08:16:13Z</time>
      </trkpt>
      <trkpt lat="45.68031" lon="6.02063">
        <ele>1313.1639404297</ele>
        <time>2010-06-13T08:16:16Z</time>
      </trkpt>
      <trkpt lat="45.68022" lon="6.02072">
        <ele>1313.6300048828</ele>
        <time>2010-06-13T08:16:19Z</time>
      </trkpt>
      <trkpt lat="45.68019" lon="6.0208">
        <ele>1314.1529541016</ele>
        <time>2010-06-13T08:16:21Z</time>
      </trkpt>
      <trkpt lat="45.68015" lon="6.0211">
        <ele>1316.2979736328</ele>
        <time>2010-06-13T08:16:28Z</time>
      </trkpt>
      <trkpt lat="45.68008" lon="6.02142">
        <ele>1317.7669677734</ele>
        <time>2010-06-13T08:16:35Z</time>
      </trkpt>
      <trkpt lat="45.68002" lon="6.02162">
        <ele>1319.1820068359</ele>
        <time>2010-06-13T08:16:40Z</time>
      </trkpt>
      <trkpt lat="45.67994" lon="6.02179">
        <ele>1320.8050537109</ele>
        <time>2010-06-13T08:16:45Z</time>
      </trkpt>
      <trkpt lat="45.67982" lon="6.02194">
        <ele>1321.3170166016</ele>
        <time>2010-06-13T08:16:51Z</time>
      </trkpt>
      <trkpt lat="45.67969" lon="6.02193">
        <ele>1323.3630371094</ele>
        <time>2010-06-13T08:16:57Z</time>
      </trkpt>
      <trkpt lat="45.67964" lon="6.02188">
        <ele>1324.4799804688</ele>
        <time>2010-06-13T08:17:00Z</time>
      </trkpt>
      <trkpt lat="45.67959" lon="6.0217">
        <ele>1325.7180175781</ele>
        <time>2010-06-13T08:17:07Z</time>
      </trkpt>
      <trkpt lat="45.67955" lon="6.02154">
        <ele>1327.3599853516</ele>
        <time>2010-06-13T08:17:13Z</time>
      </trkpt>
      <trkpt lat="45.67946" lon="6.02134">
        <ele>1328.4549560547</ele>
        <time>2010-06-13T08:17:20Z</time>
      </trkpt>
      <trkpt lat="45.67936" lon="6.02116">
        <ele>1328.6590576172</ele>
        <time>2010-06-13T08:17:25Z</time>
      </trkpt>
      <trkpt lat="45.67927" lon="6.02098">
        <ele>1329.1500244141</ele>
        <time>2010-06-13T08:17:30Z</time>
      </trkpt>
      <trkpt lat="45.67914" lon="6.02074">
        <ele>1330.1639404297</ele>
        <time>2010-06-13T08:17:37Z</time>
      </trkpt>
      <trkpt lat="45.67904" lon="6.02053">
        <ele>1330</ele>
        <time>2010-06-13T08:17:42Z</time>
      </trkpt>
      <trkpt lat="45.67895" lon="6.02027">
        <ele>1330.8349609375</ele>
        <time>2010-06-13T08:17:48Z</time>
      </trkpt>
      <trkpt lat="45.67889" lon="6.02007">
        <ele>1331.9189453125</ele>
        <time>2010-06-13T08:17:53Z</time>
      </trkpt>
      <trkpt lat="45.67881" lon="6.01988">
        <ele>1331.9880371094</ele>
        <time>2010-06-13T08:17:58Z</time>
      </trkpt>
      <trkpt lat="45.67879" lon="6.01983">
        <ele>1332.1719970703</ele>
        <time>2010-06-13T08:17:59Z</time>
      </trkpt>
      <trkpt lat="45.67884" lon="6.01964">
        <ele>1330.1710205078</ele>
        <time>2010-06-13T08:18:04Z</time>
      </trkpt>
      <trkpt lat="45.67889" lon="6.01952">
        <ele>1328.8380126953</ele>
        <time>2010-06-13T08:18:07Z</time>
      </trkpt>
      <trkpt lat="45.67893" lon="6.01941">
        <ele>1330.6529541016</ele>
        <time>2010-06-13T08:18:11Z</time>
      </trkpt>
      <trkpt lat="45.67895" lon="6.01936">
        <ele>1331.4019775391</ele>
        <time>2010-06-13T08:18:13Z</time>
      </trkpt>
      <trkpt lat="45.679" lon="6.01925">
        <ele>1332.3370361328</ele>
        <time>2010-06-13T08:18:18Z</time>
      </trkpt>
      <trkpt lat="45.67908" lon="6.01909">
        <ele>1334.1560058594</ele>
        <time>2010-06-13T08:18:26Z</time>
      </trkpt>
      <trkpt lat="45.67912" lon="6.01903">
        <ele>1334.0870361328</ele>
        <time>2010-06-13T08:18:31Z</time>
      </trkpt>
      <trkpt lat="45.67916" lon="6.01891">
        <ele>1333.3430175781</ele>
        <time>2010-06-13T08:18:48Z</time>
      </trkpt>
      <trkpt lat="45.67918" lon="6.01887">
        <ele>1332.5009765625</ele>
        <time>2010-06-13T08:18:51Z</time>
      </trkpt>
      <trkpt lat="45.67919" lon="6.01882">
        <ele>1332.7180175781</ele>
        <time>2010-06-13T08:18:55Z</time>
      </trkpt>
      <trkpt lat="45.67922" lon="6.01869">
        <ele>1331.8900146484</ele>
        <time>2010-06-13T08:19:01Z</time>
      </trkpt>
      <trkpt lat="45.67928" lon="6.01855">
        <ele>1328.9129638672</ele>
        <time>2010-06-13T08:19:06Z</time>
      </trkpt>
      <trkpt lat="45.67929" lon="6.01821">
        <ele>1323.8229980469</ele>
        <time>2010-06-13T08:19:11Z</time>
      </trkpt>
      <trkpt lat="45.67928" lon="6.01816">
        <ele>1323.8260498047</ele>
        <time>2010-06-13T08:19:12Z</time>
      </trkpt>
      <trkpt lat="45.6792" lon="6.01788">
        <ele>1325.3859863281</ele>
        <time>2010-06-13T08:19:19Z</time>
      </trkpt>
      <trkpt lat="45.67909" lon="6.01774">
        <ele>1325.9339599609</ele>
        <time>2010-06-13T08:19:24Z</time>
      </trkpt>
      <trkpt lat="45.67898" lon="6.0176">
        <ele>1325.5589599609</ele>
        <time>2010-06-13T08:19:29Z</time>
      </trkpt>
      <trkpt lat="45.67896" lon="6.01756">
        <ele>1325.4300537109</ele>
        <time>2010-06-13T08:19:30Z</time>
      </trkpt>
      <trkpt lat="45.67873" lon="6.01743">
        <ele>1325.5200195312</ele>
        <time>2010-06-13T08:19:36Z</time>
      </trkpt>
      <trkpt lat="45.67869" lon="6.01741">
        <ele>1325.5260009766</ele>
        <time>2010-06-13T08:19:37Z</time>
      </trkpt>
      <trkpt lat="45.67861" lon="6.01735">
        <ele>1325.8690185547</ele>
        <time>2010-06-13T08:19:39Z</time>
      </trkpt>
      <trkpt lat="45.6782" lon="6.01718">
        <ele>1325.7049560547</ele>
        <time>2010-06-13T08:19:48Z</time>
      </trkpt>
      <trkpt lat="45.67793" lon="6.01712">
        <ele>1325.5909423828</ele>
        <time>2010-06-13T08:19:54Z</time>
      </trkpt>
      <trkpt lat="45.67778" lon="6.01706">
        <ele>1325.4940185547</ele>
        <time>2010-06-13T08:19:57Z</time>
      </trkpt>
      <trkpt lat="45.67763" lon="6.01698">
        <ele>1325.3620605469</ele>
        <time>2010-06-13T08:20:00Z</time>
      </trkpt>
      <trkpt lat="45.6775" lon="6.01687">
        <ele>1325.2939453125</ele>
        <time>2010-06-13T08:20:03Z</time>
      </trkpt>
      <trkpt lat="45.67741" lon="6.01667">
        <ele>1325.6440429688</ele>
        <time>2010-06-13T08:20:07Z</time>
      </trkpt>
      <trkpt lat="45.67742" lon="6.01644">
        <ele>1324.2540283203</ele>
        <time>2010-06-13T08:20:11Z</time>
      </trkpt>
      <trkpt lat="45.67752" lon="6.01624">
        <ele>1321.2320556641</ele>
        <time>2010-06-13T08:20:14Z</time>
      </trkpt>
      <trkpt lat="45.6776" lon="6.01608">
        <ele>1319.1149902344</ele>
        <time>2010-06-13T08:20:16Z</time>
      </trkpt>
      <trkpt lat="45.67773" lon="6.01577">
        <ele>1317.3430175781</ele>
        <time>2010-06-13T08:20:20Z</time>
      </trkpt>
      <trkpt lat="45.67784" lon="6.01541">
        <ele>1318.3630371094</ele>
        <time>2010-06-13T08:20:26Z</time>
      </trkpt>
      <trkpt lat="45.67786" lon="6.01525">
        <ele>1319.6550292969</ele>
        <time>2010-06-13T08:20:30Z</time>
      </trkpt>
      <trkpt lat="45.67794" lon="6.01503">
        <ele>1320.3170166016</ele>
        <time>2010-06-13T08:20:36Z</time>
      </trkpt>
      <trkpt lat="45.67801" lon="6.01487">
        <ele>1318.4580078125</ele>
        <time>2010-06-13T08:20:39Z</time>
      </trkpt>
      <trkpt lat="45.67802" lon="6.0148">
        <ele>1319.875</ele>
        <time>2010-06-13T08:20:42Z</time>
      </trkpt>
      <trkpt lat="45.67801" lon="6.01472">
        <ele>1321.4210205078</ele>
        <time>2010-06-13T08:20:49Z</time>
      </trkpt>
      <trkpt lat="45.67805" lon="6.01468">
        <ele>1323.2810058594</ele>
        <time>2010-06-13T08:20:55Z</time>
      </trkpt>
      <trkpt lat="45.6781" lon="6.01454">
        <ele>1322.876953125</ele>
        <time>2010-06-13T08:21:00Z</time>
      </trkpt>
      <trkpt lat="45.6782" lon="6.01433">
        <ele>1321.8990478516</ele>
        <time>2010-06-13T08:21:05Z</time>
      </trkpt>
      <trkpt lat="45.67823" lon="6.0142">
        <ele>1320.6870117188</ele>
        <time>2010-06-13T08:21:07Z</time>
      </trkpt>
      <trkpt lat="45.67834" lon="6.01385">
        <ele>1319.2850341797</ele>
        <time>2010-06-13T08:21:12Z</time>
      </trkpt>
      <trkpt lat="45.67841" lon="6.01345">
        <ele>1315.7790527344</ele>
        <time>2010-06-13T08:21:18Z</time>
      </trkpt>
      <trkpt lat="45.67843" lon="6.0134">
        <ele>1314.3879394531</ele>
        <time>2010-06-13T08:21:20Z</time>
      </trkpt>
      <trkpt lat="45.6785" lon="6.01328">
        <ele>1312.8819580078</ele>
        <time>2010-06-13T08:21:23Z</time>
      </trkpt>
      <trkpt lat="45.67858" lon="6.01306">
        <ele>1309.8129882812</ele>
        <time>2010-06-13T08:21:28Z</time>
      </trkpt>
      <trkpt lat="45.67859" lon="6.01304">
        <ele>1309.9169921875</ele>
        <time>2010-06-13T08:21:29Z</time>
      </trkpt>
      <trkpt lat="45.67867" lon="6.0129">
        <ele>1310.9770507812</ele>
        <time>2010-06-13T08:21:36Z</time>
      </trkpt>
      <trkpt lat="45.67869" lon="6.01286">
        <ele>1312.8100585938</ele>
        <time>2010-06-13T08:21:40Z</time>
      </trkpt>
      <trkpt lat="45.67869" lon="6.01282">
        <ele>1313.4599609375</ele>
        <time>2010-06-13T08:21:45Z</time>
      </trkpt>
      <trkpt lat="45.67872" lon="6.01276">
        <ele>1314.1180419922</ele>
        <time>2010-06-13T08:21:50Z</time>
      </trkpt>
      <trkpt lat="45.67874" lon="6.01267">
        <ele>1312.9620361328</ele>
        <time>2010-06-13T08:21:52Z</time>
      </trkpt>
      <trkpt lat="45.67886" lon="6.01244">
        <ele>1309.5899658203</ele>
        <time>2010-06-13T08:21:56Z</time>
      </trkpt>
      <trkpt lat="45.67889" lon="6.01228">
        <ele>1309.8940429688</ele>
        <time>2010-06-13T08:21:59Z</time>
      </trkpt>
      <trkpt lat="45.67884" lon="6.01212">
        <ele>1310.8509521484</ele>
        <time>2010-06-13T08:22:03Z</time>
      </trkpt>
      <trkpt lat="45.67884" lon="6.01202">
        <ele>1311.2149658203</ele>
        <time>2010-06-13T08:22:05Z</time>
      </trkpt>
      <trkpt lat="45.6789" lon="6.01179">
        <ele>1312.0469970703</ele>
        <time>2010-06-13T08:22:11Z</time>
      </trkpt>
      <trkpt lat="45.67892" lon="6.01168">
        <ele>1313.5300292969</ele>
        <time>2010-06-13T08:22:17Z</time>
      </trkpt>
      <trkpt lat="45.67894" lon="6.01157">
        <ele>1315.4620361328</ele>
        <time>2010-06-13T08:22:23Z</time>
      </trkpt>
      <trkpt lat="45.67899" lon="6.01147">
        <ele>1316.4620361328</ele>
        <time>2010-06-13T08:22:29Z</time>
      </trkpt>
      <trkpt lat="45.67903" lon="6.01138">
        <ele>1314.8480224609</ele>
        <time>2010-06-13T08:22:32Z</time>
      </trkpt>
      <trkpt lat="45.67907" lon="6.01132">
        <ele>1314.1519775391</ele>
        <time>2010-06-13T08:22:34Z</time>
      </trkpt>
      <trkpt lat="45.67925" lon="6.01127">
        <ele>1310.248046875</ele>
        <time>2010-06-13T08:22:38Z</time>
      </trkpt>
      <trkpt lat="45.67931" lon="6.01125">
        <ele>1309.2769775391</ele>
        <time>2010-06-13T08:22:39Z</time>
      </trkpt>
      <trkpt lat="45.67961" lon="6.01124">
        <ele>1307.0849609375</ele>
        <time>2010-06-13T08:22:44Z</time>
      </trkpt>
      <trkpt lat="45.67974" lon="6.01132">
        <ele>1306.0439453125</ele>
        <time>2010-06-13T08:22:46Z</time>
      </trkpt>
      <trkpt lat="45.67997" lon="6.01132">
        <ele>1305.2800292969</ele>
        <time>2010-06-13T08:22:50Z</time>
      </trkpt>
      <trkpt lat="45.68016" lon="6.01116">
        <ele>1307.3630371094</ele>
        <time>2010-06-13T08:22:57Z</time>
      </trkpt>
      <trkpt lat="45.68022" lon="6.01116">
        <ele>1307.2320556641</ele>
        <time>2010-06-13T08:22:59Z</time>
      </trkpt>
      <trkpt lat="45.68027" lon="6.01105">
        <ele>1307.0689697266</ele>
        <time>2010-06-13T08:23:03Z</time>
      </trkpt>
      <trkpt lat="45.68023" lon="6.011">
        <ele>1307.2110595703</ele>
        <time>2010-06-13T08:23:05Z</time>
      </trkpt>
      <trkpt lat="45.67998" lon="6.01074">
        <ele>1306.7170410156</ele>
        <time>2010-06-13T08:23:13Z</time>
      </trkpt>
      <trkpt lat="45.67974" lon="6.01061">
        <ele>1307.0959472656</ele>
        <time>2010-06-13T08:23:19Z</time>
      </trkpt>
      <trkpt lat="45.67966" lon="6.01058">
        <ele>1307.2249755859</ele>
        <time>2010-06-13T08:23:21Z</time>
      </trkpt>
      <trkpt lat="45.67945" lon="6.01036">
        <ele>1307.6379394531</ele>
        <time>2010-06-13T08:23:27Z</time>
      </trkpt>
      <trkpt lat="45.6794" lon="6.01009">
        <ele>1307.4370117188</ele>
        <time>2010-06-13T08:23:31Z</time>
      </trkpt>
      <trkpt lat="45.67943" lon="6.00981">
        <ele>1307.2919921875</ele>
        <time>2010-06-13T08:23:35Z</time>
      </trkpt>
      <trkpt lat="45.67944" lon="6.00974">
        <ele>1307.1939697266</ele>
        <time>2010-06-13T08:23:36Z</time>
      </trkpt>
      <trkpt lat="45.67954" lon="6.00933">
        <ele>1307.5699462891</ele>
        <time>2010-06-13T08:23:42Z</time>
      </trkpt>
      <trkpt lat="45.67974" lon="6.00876">
        <ele>1307.2399902344</ele>
        <time>2010-06-13T08:23:50Z</time>
      </trkpt>
      <trkpt lat="45.6798" lon="6.00861">
        <ele>1306.4670410156</ele>
        <time>2010-06-13T08:23:52Z</time>
      </trkpt>
      <trkpt lat="45.68008" lon="6.00822">
        <ele>1304.5660400391</ele>
        <time>2010-06-13T08:23:58Z</time>
      </trkpt>
      <trkpt lat="45.6803" lon="6.00797">
        <ele>1303.0529785156</ele>
        <time>2010-06-13T08:24:02Z</time>
      </trkpt>
      <trkpt lat="45.68039" lon="6.00761">
        <ele>1301.5059814453</ele>
        <time>2010-06-13T08:24:06Z</time>
      </trkpt>
      <trkpt lat="45.6804" lon="6.00722">
        <ele>1300.1440429688</ele>
        <time>2010-06-13T08:24:10Z</time>
      </trkpt>
      <trkpt lat="45.68042" lon="6.00713">
        <ele>1300.2170410156</ele>
        <time>2010-06-13T08:24:11Z</time>
      </trkpt>
      <trkpt lat="45.68045" lon="6.00668">
        <ele>1300.5600585938</ele>
        <time>2010-06-13T08:24:16Z</time>
      </trkpt>
      <trkpt lat="45.68045" lon="6.0065">
        <ele>1300.8580322266</ele>
        <time>2010-06-13T08:24:18Z</time>
      </trkpt>
      <trkpt lat="45.68039" lon="6.0063">
        <ele>1301.9229736328</ele>
        <time>2010-06-13T08:24:21Z</time>
      </trkpt>
      <trkpt lat="45.68024" lon="6.00629">
        <ele>1303.0870361328</ele>
        <time>2010-06-13T08:24:24Z</time>
      </trkpt>
      <trkpt lat="45.68019" lon="6.00631">
        <ele>1303.3959960938</ele>
        <time>2010-06-13T08:24:25Z</time>
      </trkpt>
      <trkpt lat="45.68003" lon="6.00638">
        <ele>1303.5610351562</ele>
        <time>2010-06-13T08:24:28Z</time>
      </trkpt>
      <trkpt lat="45.6798" lon="6.00636">
        <ele>1303.3959960938</ele>
        <time>2010-06-13T08:24:32Z</time>
      </trkpt>
      <trkpt lat="45.67959" lon="6.00626">
        <ele>1304.9250488281</ele>
        <time>2010-06-13T08:24:37Z</time>
      </trkpt>
      <trkpt lat="45.67945" lon="6.00628">
        <ele>1306.6839599609</ele>
        <time>2010-06-13T08:24:42Z</time>
      </trkpt>
      <trkpt lat="45.67936" lon="6.00638">
        <ele>1309.1009521484</ele>
        <time>2010-06-13T08:24:48Z</time>
      </trkpt>
      <trkpt lat="45.67931" lon="6.0066">
        <ele>1310.2220458984</ele>
        <time>2010-06-13T08:24:55Z</time>
      </trkpt>
      <trkpt lat="45.67926" lon="6.00683">
        <ele>1309.2860107422</ele>
        <time>2010-06-13T08:25:00Z</time>
      </trkpt>
      <trkpt lat="45.67921" lon="6.00691">
        <ele>1309.0030517578</ele>
        <time>2010-06-13T08:25:02Z</time>
      </trkpt>
      <trkpt lat="45.67907" lon="6.00692">
        <ele>1309.1149902344</ele>
        <time>2010-06-13T08:25:06Z</time>
      </trkpt>
      <trkpt lat="45.67888" lon="6.00691">
        <ele>1311.6800537109</ele>
        <time>2010-06-13T08:25:12Z</time>
      </trkpt>
      <trkpt lat="45.67873" lon="6.00702">
        <ele>1311.5629882812</ele>
        <time>2010-06-13T08:25:17Z</time>
      </trkpt>
      <trkpt lat="45.67865" lon="6.00692">
        <ele>1310.9680175781</ele>
        <time>2010-06-13T08:25:21Z</time>
      </trkpt>
      <trkpt lat="45.67862" lon="6.00668">
        <ele>1311.8449707031</ele>
        <time>2010-06-13T08:25:26Z</time>
      </trkpt>
      <trkpt lat="45.67861" lon="6.0064">
        <ele>1312.6770019531</ele>
        <time>2010-06-13T08:25:32Z</time>
      </trkpt>
      <trkpt lat="45.67873" lon="6.00625">
        <ele>1313.6899414062</ele>
        <time>2010-06-13T08:25:37Z</time>
      </trkpt>
      <trkpt lat="45.67887" lon="6.00606">
        <ele>1316.0889892578</ele>
        <time>2010-06-13T08:25:44Z</time>
      </trkpt>
      <trkpt lat="45.67898" lon="6.00589">
        <ele>1316.8399658203</ele>
        <time>2010-06-13T08:25:50Z</time>
      </trkpt>
      <trkpt lat="45.67907" lon="6.00566">
        <ele>1317.5290527344</ele>
        <time>2010-06-13T08:25:57Z</time>
      </trkpt>
      <trkpt lat="45.67913" lon="6.00546">
        <ele>1319.1479492188</ele>
        <time>2010-06-13T08:26:03Z</time>
      </trkpt>
      <trkpt lat="45.67925" lon="6.00513">
        <ele>1320.8530273438</ele>
        <time>2010-06-13T08:26:13Z</time>
      </trkpt>
      <trkpt lat="45.6793" lon="6.00482">
        <ele>1322.751953125</ele>
        <time>2010-06-13T08:26:22Z</time>
      </trkpt>
      <trkpt lat="45.67937" lon="6.00462">
        <ele>1323.9129638672</ele>
        <time>2010-06-13T08:26:29Z</time>
      </trkpt>
      <trkpt lat="45.67947" lon="6.00437">
        <ele>1325.0880126953</ele>
        <time>2010-06-13T08:26:38Z</time>
      </trkpt>
      <trkpt lat="45.67947" lon="6.00411">
        <ele>1325.0949707031</ele>
        <time>2010-06-13T08:26:45Z</time>
      </trkpt>
      <trkpt lat="45.67946" lon="6.00394">
        <ele>1325.8149414062</ele>
        <time>2010-06-13T08:26:50Z</time>
      </trkpt>
      <trkpt lat="45.67948" lon="6.00375">
        <ele>1327.6180419922</ele>
        <time>2010-06-13T08:26:56Z</time>
      </trkpt>
      <trkpt lat="45.67957" lon="6.00355">
        <ele>1329.1159667969</ele>
        <time>2010-06-13T08:27:03Z</time>
      </trkpt>
      <trkpt lat="45.67975" lon="6.00329">
        <ele>1331.0009765625</ele>
        <time>2010-06-13T08:27:13Z</time>
      </trkpt>
      <trkpt lat="45.67984" lon="6.00306">
        <ele>1331.8580322266</ele>
        <time>2010-06-13T08:27:20Z</time>
      </trkpt>
      <trkpt lat="45.67987" lon="6.00281">
        <ele>1333.0589599609</ele>
        <time>2010-06-13T08:27:27Z</time>
      </trkpt>
      <trkpt lat="45.67982" lon="6.00266">
        <ele>1334.7440185547</ele>
        <time>2010-06-13T08:27:32Z</time>
      </trkpt>
      <trkpt lat="45.67972" lon="6.00249">
        <ele>1336.0570068359</ele>
        <time>2010-06-13T08:27:39Z</time>
      </trkpt>
      <trkpt lat="45.67962" lon="6.00228">
        <ele>1338.8509521484</ele>
        <time>2010-06-13T08:27:48Z</time>
      </trkpt>
      <trkpt lat="45.67958" lon="6.00207">
        <ele>1339.9659423828</ele>
        <time>2010-06-13T08:27:55Z</time>
      </trkpt>
      <trkpt lat="45.67956" lon="6.00176">
        <ele>1340.8179931641</ele>
        <time>2010-06-13T08:28:03Z</time>
      </trkpt>
      <trkpt lat="45.67954" lon="6.00162">
        <ele>1340.8759765625</ele>
        <time>2010-06-13T08:28:06Z</time>
      </trkpt>
      <trkpt lat="45.67949" lon="6.00139">
        <ele>1340.166015625</ele>
        <time>2010-06-13T08:28:10Z</time>
      </trkpt>
      <trkpt lat="45.67948" lon="6.00111">
        <ele>1341.6130371094</ele>
        <time>2010-06-13T08:28:16Z</time>
      </trkpt>
      <trkpt lat="45.67944" lon="6.00084">
        <ele>1343.1889648438</ele>
        <time>2010-06-13T08:28:23Z</time>
      </trkpt>
      <trkpt lat="45.67936" lon="6.00062">
        <ele>1344.3299560547</ele>
        <time>2010-06-13T08:28:29Z</time>
      </trkpt>
      <trkpt lat="45.67925" lon="6.00042">
        <ele>1344.6090087891</ele>
        <time>2010-06-13T08:28:35Z</time>
      </trkpt>
      <trkpt lat="45.67909" lon="6.00016">
        <ele>1345.1839599609</ele>
        <time>2010-06-13T08:28:43Z</time>
      </trkpt>
      <trkpt lat="45.67896" lon="5.99993">
        <ele>1344.7390136719</ele>
        <time>2010-06-13T08:28:49Z</time>
      </trkpt>
      <trkpt lat="45.67885" lon="5.99979">
        <ele>1344.4150390625</ele>
        <time>2010-06-13T08:28:52Z</time>
      </trkpt>
      <trkpt lat="45.67865" lon="5.9996">
        <ele>1342.04296875</ele>
        <time>2010-06-13T08:28:56Z</time>
      </trkpt>
      <trkpt lat="45.67847" lon="5.99951">
        <ele>1340.9749755859</ele>
        <time>2010-06-13T08:28:59Z</time>
      </trkpt>
      <trkpt lat="45.67836" lon="5.99926">
        <ele>1341.1330566406</ele>
        <time>2010-06-13T08:29:03Z</time>
      </trkpt>
      <trkpt lat="45.67838" lon="5.99899">
        <ele>1343.2340087891</ele>
        <time>2010-06-13T08:29:09Z</time>
      </trkpt>
      <trkpt lat="45.6784" lon="5.9989">
        <ele>1343.8890380859</ele>
        <time>2010-06-13T08:29:12Z</time>
      </trkpt>
      <trkpt lat="45.67839" lon="5.99886">
        <ele>1344.3299560547</ele>
        <time>2010-06-13T08:29:16Z</time>
      </trkpt>
      <trkpt lat="45.6784" lon="5.99879">
        <ele>1344.3010253906</ele>
        <time>2010-06-13T08:29:28Z</time>
      </trkpt>
      <trkpt lat="45.67845" lon="5.9988">
        <ele>1345.1149902344</ele>
        <time>2010-06-13T08:39:09Z</time>
      </trkpt>
      <trkpt lat="45.67854" lon="5.99877">
        <ele>1345.9310302734</ele>
        <time>2010-06-13T08:39:17Z</time>
      </trkpt>
      <trkpt lat="45.67854" lon="5.99877">
        <ele>1346.1610107422</ele>
        <time>2010-06-13T08:39:18Z</time>
      </trkpt>
      <trkpt lat="45.67854" lon="5.99873">
        <ele>1347.9790039062</ele>
        <time>2010-06-13T08:45:32Z</time>
      </trkpt>
      <trkpt lat="45.67854" lon="5.99873">
        <ele>1347.9329833984</ele>
        <time>2010-06-13T08:45:33Z</time>
      </trkpt>
      <trkpt lat="45.67862" lon="5.99889">
        <ele>1347.5980224609</ele>
        <time>2010-06-13T08:47:11Z</time>
      </trkpt>
      <trkpt lat="45.67881" lon="5.99894">
        <ele>1347.3699951172</ele>
        <time>2010-06-13T08:47:18Z</time>
      </trkpt>
      <trkpt lat="45.67888" lon="5.99889">
        <ele>1347.9169921875</ele>
        <time>2010-06-13T08:47:23Z</time>
      </trkpt>
      <trkpt lat="45.67892" lon="5.99886">
        <ele>1347.8840332031</ele>
        <time>2010-06-13T08:47:29Z</time>
      </trkpt>
      <trkpt lat="45.67892" lon="5.99886">
        <ele>1347.9790039062</ele>
        <time>2010-06-13T08:47:30Z</time>
      </trkpt>
      <trkpt lat="45.67891" lon="5.99877">
        <ele>1348.5229492188</ele>
        <time>2010-06-13T08:48:44Z</time>
      </trkpt>
      <trkpt lat="45.67894" lon="5.99859">
        <ele>1350.6330566406</ele>
        <time>2010-06-13T08:48:51Z</time>
      </trkpt>
      <trkpt lat="45.67896" lon="5.99853">
        <ele>1351.8630371094</ele>
        <time>2010-06-13T08:48:54Z</time>
      </trkpt>
      <trkpt lat="45.67898" lon="5.99848">
        <ele>1352.5319824219</ele>
        <time>2010-06-13T08:48:57Z</time>
      </trkpt>
      <trkpt lat="45.67901" lon="5.99845">
        <ele>1353.1929931641</ele>
        <time>2010-06-13T08:49:00Z</time>
      </trkpt>
      <trkpt lat="45.67903" lon="5.99844">
        <ele>1353.2889404297</ele>
        <time>2010-06-13T08:49:01Z</time>
      </trkpt>
      <trkpt lat="45.67907" lon="5.99845">
        <ele>1353.4489746094</ele>
        <time>2010-06-13T08:49:04Z</time>
      </trkpt>
      <trkpt lat="45.67908" lon="5.99846">
        <ele>1353.4499511719</ele>
        <time>2010-06-13T08:49:05Z</time>
      </trkpt>
      <trkpt lat="45.67917" lon="5.99852">
        <ele>1353.6610107422</ele>
        <time>2010-06-13T08:49:11Z</time>
      </trkpt>
      <trkpt lat="45.6793" lon="5.99847">
        <ele>1353.2280273438</ele>
        <time>2010-06-13T08:49:18Z</time>
      </trkpt>
      <trkpt lat="45.67932" lon="5.99843">
        <ele>1352.9439697266</ele>
        <time>2010-06-13T08:49:19Z</time>
      </trkpt>
      <trkpt lat="45.67943" lon="5.9982">
        <ele>1351.0579833984</ele>
        <time>2010-06-13T08:49:23Z</time>
      </trkpt>
      <trkpt lat="45.67947" lon="5.99778">
        <ele>1348.8530273438</ele>
        <time>2010-06-13T08:49:28Z</time>
      </trkpt>
      <trkpt lat="45.67953" lon="5.99764">
        <ele>1348.1939697266</ele>
        <time>2010-06-13T08:49:30Z</time>
      </trkpt>
      <trkpt lat="45.67968" lon="5.99757">
        <ele>1346.6719970703</ele>
        <time>2010-06-13T08:49:33Z</time>
      </trkpt>
      <trkpt lat="45.67993" lon="5.99745">
        <ele>1344.9870605469</ele>
        <time>2010-06-13T08:49:37Z</time>
      </trkpt>
      <trkpt lat="45.6801" lon="5.99725">
        <ele>1345.5209960938</ele>
        <time>2010-06-13T08:49:41Z</time>
      </trkpt>
      <trkpt lat="45.68036" lon="5.9971">
        <ele>1342.7740478516</ele>
        <time>2010-06-13T08:49:45Z</time>
      </trkpt>
      <trkpt lat="45.68049" lon="5.99703">
        <ele>1345.2819824219</ele>
        <time>2010-06-13T08:49:48Z</time>
      </trkpt>
      <trkpt lat="45.68052" lon="5.99688">
        <ele>1347.4169921875</ele>
        <time>2010-06-13T08:49:51Z</time>
      </trkpt>
      <trkpt lat="45.68052" lon="5.99683">
        <ele>1347.751953125</ele>
        <time>2010-06-13T08:49:52Z</time>
      </trkpt>
      <trkpt lat="45.68047" lon="5.99652">
        <ele>1349.6600341797</ele>
        <time>2010-06-13T08:49:59Z</time>
      </trkpt>
      <trkpt lat="45.6805" lon="5.99633">
        <ele>1350.6540527344</ele>
        <time>2010-06-13T08:50:04Z</time>
      </trkpt>
      <trkpt lat="45.68057" lon="5.99607">
        <ele>1353.1169433594</ele>
        <time>2010-06-13T08:50:12Z</time>
      </trkpt>
      <trkpt lat="45.6806" lon="5.99597">
        <ele>1354.1379394531</ele>
        <time>2010-06-13T08:50:15Z</time>
      </trkpt>
      <trkpt lat="45.68055" lon="5.99567">
        <ele>1355.0660400391</ele>
        <time>2010-06-13T08:50:23Z</time>
      </trkpt>
      <trkpt lat="45.68049" lon="5.9953">
        <ele>1355.4539794922</ele>
        <time>2010-06-13T08:50:31Z</time>
      </trkpt>
      <trkpt lat="45.68047" lon="5.99493">
        <ele>1356.3559570312</ele>
        <time>2010-06-13T08:50:39Z</time>
      </trkpt>
      <trkpt lat="45.68047" lon="5.99465">
        <ele>1358.6700439453</ele>
        <time>2010-06-13T08:50:46Z</time>
      </trkpt>
      <trkpt lat="45.68046" lon="5.99438">
        <ele>1360.8179931641</ele>
        <time>2010-06-13T08:50:54Z</time>
      </trkpt>
      <trkpt lat="45.68045" lon="5.99422">
        <ele>1362.0920410156</ele>
        <time>2010-06-13T08:50:59Z</time>
      </trkpt>
      <trkpt lat="45.68044" lon="5.99405">
        <ele>1363.8509521484</ele>
        <time>2010-06-13T08:51:05Z</time>
      </trkpt>
      <trkpt lat="45.6805" lon="5.99385">
        <ele>1362.9530029297</ele>
        <time>2010-06-13T08:51:10Z</time>
      </trkpt>
      <trkpt lat="45.68064" lon="5.99359">
        <ele>1361.7270507812</ele>
        <time>2010-06-13T08:51:15Z</time>
      </trkpt>
      <trkpt lat="45.68072" lon="5.99332">
        <ele>1362.5959472656</ele>
        <time>2010-06-13T08:51:20Z</time>
      </trkpt>
      <trkpt lat="45.68072" lon="5.99327">
        <ele>1362.6700439453</ele>
        <time>2010-06-13T08:51:21Z</time>
      </trkpt>
      <trkpt lat="45.68076" lon="5.99292">
        <ele>1365.1820068359</ele>
        <time>2010-06-13T08:51:29Z</time>
      </trkpt>
      <trkpt lat="45.68078" lon="5.99275">
        <ele>1366.3640136719</ele>
        <time>2010-06-13T08:51:34Z</time>
      </trkpt>
      <trkpt lat="45.68075" lon="5.99255">
        <ele>1367.4270019531</ele>
        <time>2010-06-13T08:51:40Z</time>
      </trkpt>
      <trkpt lat="45.68072" lon="5.99249">
        <ele>1367.8680419922</ele>
        <time>2010-06-13T08:51:42Z</time>
      </trkpt>
      <trkpt lat="45.68063" lon="5.99243">
        <ele>1368.4539794922</ele>
        <time>2010-06-13T08:51:46Z</time>
      </trkpt>
      <trkpt lat="45.68048" lon="5.99226">
        <ele>1370.1710205078</ele>
        <time>2010-06-13T08:51:54Z</time>
      </trkpt>
      <trkpt lat="45.68036" lon="5.99214">
        <ele>1371.6500244141</ele>
        <time>2010-06-13T08:52:01Z</time>
      </trkpt>
      <trkpt lat="45.68026" lon="5.99208">
        <ele>1372.666015625</ele>
        <time>2010-06-13T08:52:07Z</time>
      </trkpt>
      <trkpt lat="45.68018" lon="5.99199">
        <ele>1373.8740234375</ele>
        <time>2010-06-13T08:52:14Z</time>
      </trkpt>
      <trkpt lat="45.68009" lon="5.9919">
        <ele>1374.9499511719</ele>
        <time>2010-06-13T08:52:20Z</time>
      </trkpt>
      <trkpt lat="45.67996" lon="5.99185">
        <ele>1376.1020507812</ele>
        <time>2010-06-13T08:52:27Z</time>
      </trkpt>
      <trkpt lat="45.67992" lon="5.99181">
        <ele>1376.7320556641</ele>
        <time>2010-06-13T08:52:30Z</time>
      </trkpt>
      <trkpt lat="45.67987" lon="5.99166">
        <ele>1376.8509521484</ele>
        <time>2010-06-13T08:52:35Z</time>
      </trkpt>
      <trkpt lat="45.67977" lon="5.99162">
        <ele>1376.9969482422</ele>
        <time>2010-06-13T08:52:40Z</time>
      </trkpt>
      <trkpt lat="45.67973" lon="5.99151">
        <ele>1377.6309814453</ele>
        <time>2010-06-13T08:52:44Z</time>
      </trkpt>
      <trkpt lat="45.67972" lon="5.99111">
        <ele>1377.9969482422</ele>
        <time>2010-06-13T08:52:53Z</time>
      </trkpt>
      <trkpt lat="45.67975" lon="5.99088">
        <ele>1379.1020507812</ele>
        <time>2010-06-13T08:52:59Z</time>
      </trkpt>
      <trkpt lat="45.67983" lon="5.99067">
        <ele>1379.9289550781</ele>
        <time>2010-06-13T08:53:07Z</time>
      </trkpt>
      <trkpt lat="45.6799" lon="5.99048">
        <ele>1381.9019775391</ele>
        <time>2010-06-13T08:53:14Z</time>
      </trkpt>
      <trkpt lat="45.67999" lon="5.99034">
        <ele>1384.5589599609</ele>
        <time>2010-06-13T08:53:21Z</time>
      </trkpt>
      <trkpt lat="45.68013" lon="5.9902">
        <ele>1386.7900390625</ele>
        <time>2010-06-13T08:53:30Z</time>
      </trkpt>
      <trkpt lat="45.68031" lon="5.99008">
        <ele>1388.376953125</ele>
        <time>2010-06-13T08:53:39Z</time>
      </trkpt>
      <trkpt lat="45.68044" lon="5.98999">
        <ele>1389.3969726562</ele>
        <time>2010-06-13T08:53:45Z</time>
      </trkpt>
      <trkpt lat="45.68054" lon="5.98989">
        <ele>1391.1379394531</ele>
        <time>2010-06-13T08:53:51Z</time>
      </trkpt>
      <trkpt lat="45.68069" lon="5.98983">
        <ele>1390.166015625</ele>
        <time>2010-06-13T08:53:57Z</time>
      </trkpt>
      <trkpt lat="45.68085" lon="5.98979">
        <ele>1390.4439697266</ele>
        <time>2010-06-13T08:54:03Z</time>
      </trkpt>
      <trkpt lat="45.68101" lon="5.98965">
        <ele>1391.9840087891</ele>
        <time>2010-06-13T08:54:11Z</time>
      </trkpt>
      <trkpt lat="45.68113" lon="5.98947">
        <ele>1393.54296875</ele>
        <time>2010-06-13T08:54:19Z</time>
      </trkpt>
      <trkpt lat="45.68123" lon="5.98935">
        <ele>1395.7719726562</ele>
        <time>2010-06-13T08:54:26Z</time>
      </trkpt>
      <trkpt lat="45.68137" lon="5.98924">
        <ele>1398.1429443359</ele>
        <time>2010-06-13T08:54:35Z</time>
      </trkpt>
      <trkpt lat="45.68149" lon="5.98913">
        <ele>1399.4410400391</ele>
        <time>2010-06-13T08:54:43Z</time>
      </trkpt>
      <trkpt lat="45.68163" lon="5.98908">
        <ele>1401.5959472656</ele>
        <time>2010-06-13T08:54:51Z</time>
      </trkpt>
      <trkpt lat="45.6818" lon="5.9891">
        <ele>1403.2159423828</ele>
        <time>2010-06-13T08:55:00Z</time>
      </trkpt>
      <trkpt lat="45.68193" lon="5.9891">
        <ele>1403.2869873047</ele>
        <time>2010-06-13T08:55:06Z</time>
      </trkpt>
      <trkpt lat="45.68203" lon="5.98907">
        <ele>1402.7709960938</ele>
        <time>2010-06-13T08:55:09Z</time>
      </trkpt>
      <trkpt lat="45.68221" lon="5.98891">
        <ele>1403.1259765625</ele>
        <time>2010-06-13T08:55:15Z</time>
      </trkpt>
      <trkpt lat="45.68231" lon="5.98869">
        <ele>1404.0570068359</ele>
        <time>2010-06-13T08:55:21Z</time>
      </trkpt>
      <trkpt lat="45.68232" lon="5.98855">
        <ele>1404.9139404297</ele>
        <time>2010-06-13T08:55:26Z</time>
      </trkpt>
      <trkpt lat="45.68228" lon="5.98845">
        <ele>1406.5639648438</ele>
        <time>2010-06-13T08:55:32Z</time>
      </trkpt>
      <trkpt lat="45.68223" lon="5.98832">
        <ele>1409.7679443359</ele>
        <time>2010-06-13T08:55:39Z</time>
      </trkpt>
      <trkpt lat="45.68215" lon="5.98824">
        <ele>1412.1879882812</ele>
        <time>2010-06-13T08:55:47Z</time>
      </trkpt>
      <trkpt lat="45.68208" lon="5.9882">
        <ele>1413.5469970703</ele>
        <time>2010-06-13T08:55:53Z</time>
      </trkpt>
      <trkpt lat="45.68198" lon="5.98817">
        <ele>1414.7810058594</ele>
        <time>2010-06-13T08:56:00Z</time>
      </trkpt>
      <trkpt lat="45.68193" lon="5.98817">
        <ele>1415.4410400391</ele>
        <time>2010-06-13T08:56:03Z</time>
      </trkpt>
      <trkpt lat="45.68182" lon="5.98816">
        <ele>1416.6789550781</ele>
        <time>2010-06-13T08:56:10Z</time>
      </trkpt>
      <trkpt lat="45.68167" lon="5.98813">
        <ele>1417.6629638672</ele>
        <time>2010-06-13T08:56:17Z</time>
      </trkpt>
      <trkpt lat="45.68153" lon="5.98805">
        <ele>1418.6669921875</ele>
        <time>2010-06-13T08:56:24Z</time>
      </trkpt>
      <trkpt lat="45.68135" lon="5.98795">
        <ele>1417.9580078125</ele>
        <time>2010-06-13T08:56:30Z</time>
      </trkpt>
      <trkpt lat="45.68126" lon="5.9879">
        <ele>1417.41796875</ele>
        <time>2010-06-13T08:56:32Z</time>
      </trkpt>
      <trkpt lat="45.68112" lon="5.98782">
        <ele>1416.3780517578</ele>
        <time>2010-06-13T08:56:35Z</time>
      </trkpt>
      <trkpt lat="45.68088" lon="5.98762">
        <ele>1417.5109863281</ele>
        <time>2010-06-13T08:56:42Z</time>
      </trkpt>
      <trkpt lat="45.68079" lon="5.98751">
        <ele>1417.9880371094</ele>
        <time>2010-06-13T08:56:45Z</time>
      </trkpt>
      <trkpt lat="45.68061" lon="5.98738">
        <ele>1418.6169433594</ele>
        <time>2010-06-13T08:56:51Z</time>
      </trkpt>
      <trkpt lat="45.68051" lon="5.9873">
        <ele>1420.1569824219</ele>
        <time>2010-06-13T08:56:57Z</time>
      </trkpt>
      <trkpt lat="45.68044" lon="5.98726">
        <ele>1422.3409423828</ele>
        <time>2010-06-13T08:57:03Z</time>
      </trkpt>
      <trkpt lat="45.68036" lon="5.98721">
        <ele>1423.4119873047</ele>
        <time>2010-06-13T08:57:08Z</time>
      </trkpt>
      <trkpt lat="45.68026" lon="5.98718">
        <ele>1425.3079833984</ele>
        <time>2010-06-13T08:57:15Z</time>
      </trkpt>
      <trkpt lat="45.68012" lon="5.98711">
        <ele>1425.5179443359</ele>
        <time>2010-06-13T08:57:22Z</time>
      </trkpt>
      <trkpt lat="45.67996" lon="5.98704">
        <ele>1424.8580322266</ele>
        <time>2010-06-13T08:57:28Z</time>
      </trkpt>
      <trkpt lat="45.67984" lon="5.98694">
        <ele>1424.8380126953</ele>
        <time>2010-06-13T08:57:33Z</time>
      </trkpt>
      <trkpt lat="45.67969" lon="5.98678">
        <ele>1425.0780029297</ele>
        <time>2010-06-13T08:57:38Z</time>
      </trkpt>
      <trkpt lat="45.67958" lon="5.98667">
        <ele>1425.41796875</ele>
        <time>2010-06-13T08:57:42Z</time>
      </trkpt>
      <trkpt lat="45.6795" lon="5.98665">
        <ele>1425.9770507812</ele>
        <time>2010-06-13T08:57:45Z</time>
      </trkpt>
      <trkpt lat="45.67937" lon="5.98664">
        <ele>1424.6739501953</ele>
        <time>2010-06-13T08:57:50Z</time>
      </trkpt>
      <trkpt lat="45.67931" lon="5.98657">
        <ele>1425.2659912109</ele>
        <time>2010-06-13T08:57:55Z</time>
      </trkpt>
      <trkpt lat="45.67931" lon="5.98656">
        <ele>1425.3559570312</ele>
        <time>2010-06-13T08:57:56Z</time>
      </trkpt>
      <trkpt lat="45.67927" lon="5.98654">
        <ele>1425.4339599609</ele>
        <time>2010-06-13T08:57:59Z</time>
      </trkpt>
      <trkpt lat="45.67918" lon="5.98644">
        <ele>1425.0310058594</ele>
        <time>2010-06-13T08:58:05Z</time>
      </trkpt>
      <trkpt lat="45.67915" lon="5.98638">
        <ele>1424.8969726562</ele>
        <time>2010-06-13T08:58:07Z</time>
      </trkpt>
      <trkpt lat="45.67913" lon="5.98633">
        <ele>1425.1579589844</ele>
        <time>2010-06-13T08:58:11Z</time>
      </trkpt>
      <trkpt lat="45.67912" lon="5.98627">
        <ele>1425.4219970703</ele>
        <time>2010-06-13T08:58:16Z</time>
      </trkpt>
      <trkpt lat="45.67906" lon="5.98609">
        <ele>1425.5489501953</ele>
        <time>2010-06-13T08:58:23Z</time>
      </trkpt>
      <trkpt lat="45.67905" lon="5.98607">
        <ele>1425.7330322266</ele>
        <time>2010-06-13T08:58:24Z</time>
      </trkpt>
      <trkpt lat="45.67895" lon="5.98589">
        <ele>1426.8199462891</ele>
        <time>2010-06-13T08:58:31Z</time>
      </trkpt>
      <trkpt lat="45.67887" lon="5.98576">
        <ele>1429.1560058594</ele>
        <time>2010-06-13T08:58:37Z</time>
      </trkpt>
      <trkpt lat="45.67878" lon="5.98569">
        <ele>1429.0319824219</ele>
        <time>2010-06-13T08:58:42Z</time>
      </trkpt>
      <trkpt lat="45.67863" lon="5.98557">
        <ele>1428.4470214844</ele>
        <time>2010-06-13T08:58:47Z</time>
      </trkpt>
      <trkpt lat="45.67857" lon="5.98553">
        <ele>1427.9759521484</ele>
        <time>2010-06-13T08:58:49Z</time>
      </trkpt>
      <trkpt lat="45.67849" lon="5.98552">
        <ele>1426.6510009766</ele>
        <time>2010-06-13T08:58:54Z</time>
      </trkpt>
      <trkpt lat="45.67847" lon="5.98551">
        <ele>1426.4770507812</ele>
        <time>2010-06-13T08:58:55Z</time>
      </trkpt>
      <trkpt lat="45.6783" lon="5.9855">
        <ele>1423.7860107422</ele>
        <time>2010-06-13T08:59:01Z</time>
      </trkpt>
      <trkpt lat="45.67821" lon="5.98547">
        <ele>1422.0949707031</ele>
        <time>2010-06-13T08:59:03Z</time>
      </trkpt>
      <trkpt lat="45.67807" lon="5.98541">
        <ele>1419.9150390625</ele>
        <time>2010-06-13T08:59:08Z</time>
      </trkpt>
      <trkpt lat="45.67796" lon="5.98546">
        <ele>1417.6459960938</ele>
        <time>2010-06-13T08:59:12Z</time>
      </trkpt>
      <trkpt lat="45.6779" lon="5.98549">
        <ele>1415.5620117188</ele>
        <time>2010-06-13T08:59:15Z</time>
      </trkpt>
      <trkpt lat="45.67782" lon="5.98557">
        <ele>1412.9410400391</ele>
        <time>2010-06-13T08:59:19Z</time>
      </trkpt>
      <trkpt lat="45.67777" lon="5.98561">
        <ele>1411.4780273438</ele>
        <time>2010-06-13T08:59:21Z</time>
      </trkpt>
      <trkpt lat="45.67765" lon="5.9858">
        <ele>1408.4940185547</ele>
        <time>2010-06-13T08:59:25Z</time>
      </trkpt>
      <trkpt lat="45.67749" lon="5.9861">
        <ele>1405.5830078125</ele>
        <time>2010-06-13T08:59:31Z</time>
      </trkpt>
      <trkpt lat="45.67737" lon="5.98613">
        <ele>1404.2449951172</ele>
        <time>2010-06-13T08:59:35Z</time>
      </trkpt>
      <trkpt lat="45.67717" lon="5.98616">
        <ele>1400.1929931641</ele>
        <time>2010-06-13T08:59:40Z</time>
      </trkpt>
      <trkpt lat="45.67714" lon="5.98618">
        <ele>1399.5959472656</ele>
        <time>2010-06-13T08:59:41Z</time>
      </trkpt>
      <trkpt lat="45.67704" lon="5.98641">
        <ele>1397.8680419922</ele>
        <time>2010-06-13T08:59:46Z</time>
      </trkpt>
      <trkpt lat="45.67701" lon="5.98642">
        <ele>1397.6059570312</ele>
        <time>2010-06-13T08:59:47Z</time>
      </trkpt>
      <trkpt lat="45.67677" lon="5.98651">
        <ele>1393.7729492188</ele>
        <time>2010-06-13T08:59:52Z</time>
      </trkpt>
      <trkpt lat="45.67665" lon="5.98646">
        <ele>1392.3330078125</ele>
        <time>2010-06-13T08:59:55Z</time>
      </trkpt>
      <trkpt lat="45.67664" lon="5.98642">
        <ele>1392.3790283203</ele>
        <time>2010-06-13T08:59:56Z</time>
      </trkpt>
      <trkpt lat="45.67663" lon="5.98632">
        <ele>1393.6739501953</ele>
        <time>2010-06-13T08:59:59Z</time>
      </trkpt>
      <trkpt lat="45.67662" lon="5.98614">
        <ele>1393.2700195312</ele>
        <time>2010-06-13T09:00:04Z</time>
      </trkpt>
      <trkpt lat="45.67656" lon="5.98598">
        <ele>1392.0350341797</ele>
        <time>2010-06-13T09:00:08Z</time>
      </trkpt>
      <trkpt lat="45.67653" lon="5.98596">
        <ele>1391.8409423828</ele>
        <time>2010-06-13T09:00:09Z</time>
      </trkpt>
      <trkpt lat="45.67624" lon="5.98585">
        <ele>1387.9320068359</ele>
        <time>2010-06-13T09:00:15Z</time>
      </trkpt>
      <trkpt lat="45.67583" lon="5.98603">
        <ele>1381.125</ele>
        <time>2010-06-13T09:00:21Z</time>
      </trkpt>
      <trkpt lat="45.67564" lon="5.98612">
        <ele>1378.7209472656</ele>
        <time>2010-06-13T09:00:23Z</time>
      </trkpt>
      <trkpt lat="45.67541" lon="5.9863">
        <ele>1377.2440185547</ele>
        <time>2010-06-13T09:00:26Z</time>
      </trkpt>
      <trkpt lat="45.67518" lon="5.9865">
        <ele>1373.8869628906</ele>
        <time>2010-06-13T09:00:30Z</time>
      </trkpt>
      <trkpt lat="45.67502" lon="5.98646">
        <ele>1372.2099609375</ele>
        <time>2010-06-13T09:00:33Z</time>
      </trkpt>
      <trkpt lat="45.67487" lon="5.98627">
        <ele>1370.0729980469</ele>
        <time>2010-06-13T09:00:36Z</time>
      </trkpt>
      <trkpt lat="45.67476" lon="5.98612">
        <ele>1368.6519775391</ele>
        <time>2010-06-13T09:00:38Z</time>
      </trkpt>
      <trkpt lat="45.67456" lon="5.98596">
        <ele>1366.8680419922</ele>
        <time>2010-06-13T09:00:41Z</time>
      </trkpt>
      <trkpt lat="45.6744" lon="5.98597">
        <ele>1368.0889892578</ele>
        <time>2010-06-13T09:00:44Z</time>
      </trkpt>
      <trkpt lat="45.67437" lon="5.98599">
        <ele>1368.7729492188</ele>
        <time>2010-06-13T09:00:45Z</time>
      </trkpt>
      <trkpt lat="45.67422" lon="5.98608">
        <ele>1370.9520263672</ele>
        <time>2010-06-13T09:00:50Z</time>
      </trkpt>
      <trkpt lat="45.67419" lon="5.98609">
        <ele>1370.9530029297</ele>
        <time>2010-06-13T09:00:51Z</time>
      </trkpt>
      <trkpt lat="45.67418" lon="5.98634">
        <ele>1370.0050048828</ele>
        <time>2010-06-13T09:00:55Z</time>
      </trkpt>
      <trkpt lat="45.67419" lon="5.98653">
        <ele>1366.5250244141</ele>
        <time>2010-06-13T09:00:57Z</time>
      </trkpt>
      <trkpt lat="45.67421" lon="5.98689">
        <ele>1359.4399414062</ele>
        <time>2010-06-13T09:01:00Z</time>
      </trkpt>
      <trkpt lat="45.67434" lon="5.9875">
        <ele>1356.2359619141</ele>
        <time>2010-06-13T09:01:05Z</time>
      </trkpt>
      <trkpt lat="45.67436" lon="5.98792">
        <ele>1359.0400390625</ele>
        <time>2010-06-13T09:01:09Z</time>
      </trkpt>
      <trkpt lat="45.67434" lon="5.98812">
        <ele>1363.3969726562</ele>
        <time>2010-06-13T09:01:13Z</time>
      </trkpt>
      <trkpt lat="45.67434" lon="5.98815">
        <ele>1363.3969726562</ele>
        <time>2010-06-13T09:01:14Z</time>
      </trkpt>
      <trkpt lat="45.67435" lon="5.98818">
        <ele>1364.6450195312</ele>
        <time>2010-06-13T09:01:15Z</time>
      </trkpt>
      <trkpt lat="45.67434" lon="5.98837">
        <ele>1364.5699462891</ele>
        <time>2010-06-13T09:01:18Z</time>
      </trkpt>
      <trkpt lat="45.67425" lon="5.98864">
        <ele>1363.8330078125</ele>
        <time>2010-06-13T09:01:23Z</time>
      </trkpt>
      <trkpt lat="45.67416" lon="5.98882">
        <ele>1365.2409667969</ele>
        <time>2010-06-13T09:01:27Z</time>
      </trkpt>
      <trkpt lat="45.67407" lon="5.98901">
        <ele>1366.4720458984</ele>
        <time>2010-06-13T09:01:32Z</time>
      </trkpt>
      <trkpt lat="45.67404" lon="5.98905">
        <ele>1366.3039550781</ele>
        <time>2010-06-13T09:01:33Z</time>
      </trkpt>
      <trkpt lat="45.67383" lon="5.98924">
        <ele>1365.9709472656</ele>
        <time>2010-06-13T09:01:39Z</time>
      </trkpt>
      <trkpt lat="45.67368" lon="5.98945">
        <ele>1368.1910400391</ele>
        <time>2010-06-13T09:01:45Z</time>
      </trkpt>
      <trkpt lat="45.67359" lon="5.98953">
        <ele>1368.6319580078</ele>
        <time>2010-06-13T09:01:48Z</time>
      </trkpt>
      <trkpt lat="45.67337" lon="5.98962">
        <ele>1366.751953125</ele>
        <time>2010-06-13T09:01:52Z</time>
      </trkpt>
      <trkpt lat="45.67314" lon="5.98966">
        <ele>1366.5489501953</ele>
        <time>2010-06-13T09:01:56Z</time>
      </trkpt>
      <trkpt lat="45.6729" lon="5.98971">
        <ele>1367.45703125</ele>
        <time>2010-06-13T09:02:01Z</time>
      </trkpt>
      <trkpt lat="45.67276" lon="5.98972">
        <ele>1370.3310546875</ele>
        <time>2010-06-13T09:02:06Z</time>
      </trkpt>
      <trkpt lat="45.67261" lon="5.98964">
        <ele>1370.3800048828</ele>
        <time>2010-06-13T09:02:11Z</time>
      </trkpt>
      <trkpt lat="45.67243" lon="5.98945">
        <ele>1367.6619873047</ele>
        <time>2010-06-13T09:02:15Z</time>
      </trkpt>
      <trkpt lat="45.67239" lon="5.98929">
        <ele>1368.7550048828</ele>
        <time>2010-06-13T09:02:18Z</time>
      </trkpt>
      <trkpt lat="45.6723" lon="5.98912">
        <ele>1369.6939697266</ele>
        <time>2010-06-13T09:02:22Z</time>
      </trkpt>
      <trkpt lat="45.67217" lon="5.98906">
        <ele>1370.9250488281</ele>
        <time>2010-06-13T09:02:26Z</time>
      </trkpt>
      <trkpt lat="45.67211" lon="5.98895">
        <ele>1371.2449951172</ele>
        <time>2010-06-13T09:02:29Z</time>
      </trkpt>
      <trkpt lat="45.6721" lon="5.98889">
        <ele>1371.1240234375</ele>
        <time>2010-06-13T09:02:30Z</time>
      </trkpt>
      <trkpt lat="45.67201" lon="5.98858">
        <ele>1371.0989990234</ele>
        <time>2010-06-13T09:02:36Z</time>
      </trkpt>
      <trkpt lat="45.67189" lon="5.98839">
        <ele>1371.9129638672</ele>
        <time>2010-06-13T09:02:41Z</time>
      </trkpt>
      <trkpt lat="45.67173" lon="5.98838">
        <ele>1370.8530273438</ele>
        <time>2010-06-13T09:02:45Z</time>
      </trkpt>
      <trkpt lat="45.67156" lon="5.98855">
        <ele>1368.8310546875</ele>
        <time>2010-06-13T09:02:49Z</time>
      </trkpt>
      <trkpt lat="45.67139" lon="5.98858">
        <ele>1367.7860107422</ele>
        <time>2010-06-13T09:02:52Z</time>
      </trkpt>
      <trkpt lat="45.67116" lon="5.98871">
        <ele>1365.8270263672</ele>
        <time>2010-06-13T09:02:56Z</time>
      </trkpt>
      <trkpt lat="45.67107" lon="5.98884">
        <ele>1364.4360351562</ele>
        <time>2010-06-13T09:02:59Z</time>
      </trkpt>
      <trkpt lat="45.67101" lon="5.98886">
        <ele>1364.7509765625</ele>
        <time>2010-06-13T09:03:02Z</time>
      </trkpt>
      <trkpt lat="45.67101" lon="5.98886">
        <ele>1364.8549804688</ele>
        <time>2010-06-13T09:03:04Z</time>
      </trkpt>
      <trkpt lat="45.67099" lon="5.98885">
        <ele>1365.1999511719</ele>
        <time>2010-06-13T09:03:31Z</time>
      </trkpt>
      <trkpt lat="45.671" lon="5.98876">
        <ele>1365.6300048828</ele>
        <time>2010-06-13T09:03:35Z</time>
      </trkpt>
      <trkpt lat="45.67099" lon="5.98871">
        <ele>1366.0770263672</ele>
        <time>2010-06-13T09:03:37Z</time>
      </trkpt>
      <trkpt lat="45.67093" lon="5.98863">
        <ele>1367.5109863281</ele>
        <time>2010-06-13T09:03:42Z</time>
      </trkpt>
      <trkpt lat="45.67089" lon="5.98855">
        <ele>1367.7719726562</ele>
        <time>2010-06-13T09:03:45Z</time>
      </trkpt>
      <trkpt lat="45.67078" lon="5.98838">
        <ele>1368.0360107422</ele>
        <time>2010-06-13T09:03:52Z</time>
      </trkpt>
      <trkpt lat="45.67077" lon="5.98836">
        <ele>1368.1710205078</ele>
        <time>2010-06-13T09:03:53Z</time>
      </trkpt>
      <trkpt lat="45.67074" lon="5.98828">
        <ele>1368.3210449219</ele>
        <time>2010-06-13T09:03:56Z</time>
      </trkpt>
      <trkpt lat="45.67067" lon="5.98831">
        <ele>1368.291015625</ele>
        <time>2010-06-13T09:04:00Z</time>
      </trkpt>
      <trkpt lat="45.67062" lon="5.98831">
        <ele>1368.0460205078</ele>
        <time>2010-06-13T09:04:03Z</time>
      </trkpt>
      <trkpt lat="45.67055" lon="5.98825">
        <ele>1368.3759765625</ele>
        <time>2010-06-13T09:04:07Z</time>
      </trkpt>
      <trkpt lat="45.67055" lon="5.98817">
        <ele>1368.7729492188</ele>
        <time>2010-06-13T09:04:09Z</time>
      </trkpt>
      <trkpt lat="45.67051" lon="5.98801">
        <ele>1369.8420410156</ele>
        <time>2010-06-13T09:04:15Z</time>
      </trkpt>
      <trkpt lat="45.67046" lon="5.98791">
        <ele>1370.9420166016</ele>
        <time>2010-06-13T09:04:20Z</time>
      </trkpt>
      <trkpt lat="45.67044" lon="5.98789">
        <ele>1371.5620117188</ele>
        <time>2010-06-13T09:04:22Z</time>
      </trkpt>
      <trkpt lat="45.67032" lon="5.98781">
        <ele>1371.2829589844</ele>
        <time>2010-06-13T09:04:28Z</time>
      </trkpt>
      <trkpt lat="45.67022" lon="5.98774">
        <ele>1369.876953125</ele>
        <time>2010-06-13T09:04:31Z</time>
      </trkpt>
      <trkpt lat="45.67006" lon="5.98767">
        <ele>1367.8430175781</ele>
        <time>2010-06-13T09:04:36Z</time>
      </trkpt>
      <trkpt lat="45.67002" lon="5.98766">
        <ele>1367.0720214844</ele>
        <time>2010-06-13T09:04:37Z</time>
      </trkpt>
      <trkpt lat="45.66982" lon="5.98766">
        <ele>1364.5930175781</ele>
        <time>2010-06-13T09:04:41Z</time>
      </trkpt>
      <trkpt lat="45.66963" lon="5.98774">
        <ele>1362.1970214844</ele>
        <time>2010-06-13T09:04:46Z</time>
      </trkpt>
      <trkpt lat="45.66955" lon="5.98771">
        <ele>1361.33203125</ele>
        <time>2010-06-13T09:04:48Z</time>
      </trkpt>
      <trkpt lat="45.66933" lon="5.98761">
        <ele>1360.3260498047</ele>
        <time>2010-06-13T09:04:53Z</time>
      </trkpt>
      <trkpt lat="45.669" lon="5.98746">
        <ele>1357.8020019531</ele>
        <time>2010-06-13T09:04:59Z</time>
      </trkpt>
      <trkpt lat="45.66886" lon="5.98745">
        <ele>1358.2569580078</ele>
        <time>2010-06-13T09:05:03Z</time>
      </trkpt>
      <trkpt lat="45.66876" lon="5.98747">
        <ele>1358.9219970703</ele>
        <time>2010-06-13T09:05:07Z</time>
      </trkpt>
      <trkpt lat="45.66859" lon="5.9874">
        <ele>1357.6600341797</ele>
        <time>2010-06-13T09:05:11Z</time>
      </trkpt>
      <trkpt lat="45.66846" lon="5.98729">
        <ele>1357.2020263672</ele>
        <time>2010-06-13T09:05:14Z</time>
      </trkpt>
      <trkpt lat="45.66831" lon="5.987">
        <ele>1355.7679443359</ele>
        <time>2010-06-13T09:05:19Z</time>
      </trkpt>
      <trkpt lat="45.66826" lon="5.98686">
        <ele>1355.0190429688</ele>
        <time>2010-06-13T09:05:21Z</time>
      </trkpt>
      <trkpt lat="45.6681" lon="5.9867">
        <ele>1352.7309570312</ele>
        <time>2010-06-13T09:05:25Z</time>
      </trkpt>
      <trkpt lat="45.66789" lon="5.98649">
        <ele>1350.9530029297</ele>
        <time>2010-06-13T09:05:30Z</time>
      </trkpt>
      <trkpt lat="45.66764" lon="5.98636">
        <ele>1346.8709716797</ele>
        <time>2010-06-13T09:05:35Z</time>
      </trkpt>
      <trkpt lat="45.66729" lon="5.98623">
        <ele>1342.0009765625</ele>
        <time>2010-06-13T09:05:41Z</time>
      </trkpt>
      <trkpt lat="45.66715" lon="5.98608">
        <ele>1340.5570068359</ele>
        <time>2010-06-13T09:05:44Z</time>
      </trkpt>
      <trkpt lat="45.66706" lon="5.98602">
        <ele>1340.1180419922</ele>
        <time>2010-06-13T09:05:46Z</time>
      </trkpt>
      <trkpt lat="45.66681" lon="5.98587">
        <ele>1340.0649414062</ele>
        <time>2010-06-13T09:05:51Z</time>
      </trkpt>
      <trkpt lat="45.66671" lon="5.98583">
        <ele>1340.3070068359</ele>
        <time>2010-06-13T09:05:53Z</time>
      </trkpt>
      <trkpt lat="45.66656" lon="5.9856">
        <ele>1339.6510009766</ele>
        <time>2010-06-13T09:05:57Z</time>
      </trkpt>
      <trkpt lat="45.6665" lon="5.98546">
        <ele>1338.7330322266</ele>
        <time>2010-06-13T09:05:59Z</time>
      </trkpt>
      <trkpt lat="45.66631" lon="5.98514">
        <ele>1338.9610595703</ele>
        <time>2010-06-13T09:06:05Z</time>
      </trkpt>
      <trkpt lat="45.66604" lon="5.9848">
        <ele>1338.9790039062</ele>
        <time>2010-06-13T09:06:13Z</time>
      </trkpt>
      <trkpt lat="45.66587" lon="5.98462">
        <ele>1338.5710449219</ele>
        <time>2010-06-13T09:06:17Z</time>
      </trkpt>
      <trkpt lat="45.66574" lon="5.9845">
        <ele>1338.6889648438</ele>
        <time>2010-06-13T09:06:20Z</time>
      </trkpt>
      <trkpt lat="45.66561" lon="5.98439">
        <ele>1338.8940429688</ele>
        <time>2010-06-13T09:06:23Z</time>
      </trkpt>
      <trkpt lat="45.66544" lon="5.98425">
        <ele>1338.5880126953</ele>
        <time>2010-06-13T09:06:27Z</time>
      </trkpt>
      <trkpt lat="45.66507" lon="5.98394">
        <ele>1338.7869873047</ele>
        <time>2010-06-13T09:06:35Z</time>
      </trkpt>
      <trkpt lat="45.66488" lon="5.98385">
        <ele>1338.6070556641</ele>
        <time>2010-06-13T09:06:39Z</time>
      </trkpt>
      <trkpt lat="45.66461" lon="5.98396">
        <ele>1338.7609863281</ele>
        <time>2010-06-13T09:06:44Z</time>
      </trkpt>
      <trkpt lat="45.66432" lon="5.9842">
        <ele>1339.1920166016</ele>
        <time>2010-06-13T09:06:50Z</time>
      </trkpt>
      <trkpt lat="45.66423" lon="5.98429">
        <ele>1339.5729980469</ele>
        <time>2010-06-13T09:06:52Z</time>
      </trkpt>
      <trkpt lat="45.66399" lon="5.98448">
        <ele>1339.9689941406</ele>
        <time>2010-06-13T09:06:57Z</time>
      </trkpt>
      <trkpt lat="45.66377" lon="5.9847">
        <ele>1340.7399902344</ele>
        <time>2010-06-13T09:07:02Z</time>
      </trkpt>
      <trkpt lat="45.66359" lon="5.98499">
        <ele>1342.083984375</ele>
        <time>2010-06-13T09:07:08Z</time>
      </trkpt>
      <trkpt lat="45.66352" lon="5.98514">
        <ele>1342.5789794922</ele>
        <time>2010-06-13T09:07:12Z</time>
      </trkpt>
      <trkpt lat="45.66351" lon="5.98532">
        <ele>1343.25</ele>
        <time>2010-06-13T09:07:16Z</time>
      </trkpt>
      <trkpt lat="45.66354" lon="5.98558">
        <ele>1343.4790039062</ele>
        <time>2010-06-13T09:07:21Z</time>
      </trkpt>
      <trkpt lat="45.66349" lon="5.98588">
        <ele>1343.4770507812</ele>
        <time>2010-06-13T09:07:27Z</time>
      </trkpt>
      <trkpt lat="45.66349" lon="5.98593">
        <ele>1343.5729980469</ele>
        <time>2010-06-13T09:07:28Z</time>
      </trkpt>
      <trkpt lat="45.66353" lon="5.98604">
        <ele>1343.2740478516</ele>
        <time>2010-06-13T09:07:30Z</time>
      </trkpt>
      <trkpt lat="45.66363" lon="5.98637">
        <ele>1342.2679443359</ele>
        <time>2010-06-13T09:07:35Z</time>
      </trkpt>
      <trkpt lat="45.66373" lon="5.9867">
        <ele>1343.2860107422</ele>
        <time>2010-06-13T09:07:41Z</time>
      </trkpt>
      <trkpt lat="45.66381" lon="5.98702">
        <ele>1344.4090576172</ele>
        <time>2010-06-13T09:07:47Z</time>
      </trkpt>
      <trkpt lat="45.66383" lon="5.98725">
        <ele>1343.9730224609</ele>
        <time>2010-06-13T09:07:51Z</time>
      </trkpt>
      <trkpt lat="45.66383" lon="5.98745">
        <ele>1343.7659912109</ele>
        <time>2010-06-13T09:07:54Z</time>
      </trkpt>
      <trkpt lat="45.66387" lon="5.98772">
        <ele>1343.6810302734</ele>
        <time>2010-06-13T09:07:58Z</time>
      </trkpt>
      <trkpt lat="45.66391" lon="5.98786">
        <ele>1343.5510253906</ele>
        <time>2010-06-13T09:08:00Z</time>
      </trkpt>
      <trkpt lat="45.66394" lon="5.988">
        <ele>1343.2199707031</ele>
        <time>2010-06-13T09:08:02Z</time>
      </trkpt>
      <trkpt lat="45.66408" lon="5.98855">
        <ele>1344.3959960938</ele>
        <time>2010-06-13T09:08:10Z</time>
      </trkpt>
      <trkpt lat="45.66415" lon="5.98884">
        <ele>1346.0870361328</ele>
        <time>2010-06-13T09:08:15Z</time>
      </trkpt>
      <trkpt lat="45.66428" lon="5.98922">
        <ele>1345.3280029297</ele>
        <time>2010-06-13T09:08:21Z</time>
      </trkpt>
      <trkpt lat="45.66431" lon="5.98936">
        <ele>1344.9329833984</ele>
        <time>2010-06-13T09:08:23Z</time>
      </trkpt>
      <trkpt lat="45.66435" lon="5.98957">
        <ele>1344.623046875</ele>
        <time>2010-06-13T09:08:26Z</time>
      </trkpt>
      <trkpt lat="45.66448" lon="5.98998">
        <ele>1343.8060302734</ele>
        <time>2010-06-13T09:08:32Z</time>
      </trkpt>
      <trkpt lat="45.66454" lon="5.99031">
        <ele>1343.2039794922</ele>
        <time>2010-06-13T09:08:36Z</time>
      </trkpt>
      <trkpt lat="45.66457" lon="5.99039">
        <ele>1342.9739990234</ele>
        <time>2010-06-13T09:08:37Z</time>
      </trkpt>
      <trkpt lat="45.66467" lon="5.99068">
        <ele>1342.6030273438</ele>
        <time>2010-06-13T09:08:41Z</time>
      </trkpt>
      <trkpt lat="45.66475" lon="5.99102">
        <ele>1344.8439941406</ele>
        <time>2010-06-13T09:08:47Z</time>
      </trkpt>
      <trkpt lat="45.66481" lon="5.99129">
        <ele>1345.6180419922</ele>
        <time>2010-06-13T09:08:52Z</time>
      </trkpt>
      <trkpt lat="45.66483" lon="5.99133">
        <ele>1345.8430175781</ele>
        <time>2010-06-13T09:08:53Z</time>
      </trkpt>
      <trkpt lat="45.66501" lon="5.9915">
        <ele>1346.416015625</ele>
        <time>2010-06-13T09:08:58Z</time>
      </trkpt>
      <trkpt lat="45.6651" lon="5.99156">
        <ele>1344.9969482422</ele>
        <time>2010-06-13T09:09:00Z</time>
      </trkpt>
      <trkpt lat="45.66531" lon="5.99189">
        <ele>1341.2110595703</ele>
        <time>2010-06-13T09:09:04Z</time>
      </trkpt>
      <trkpt lat="45.6654" lon="5.99221">
        <ele>1339.5190429688</ele>
        <time>2010-06-13T09:09:07Z</time>
      </trkpt>
      <trkpt lat="45.6654" lon="5.99241">
        <ele>1338.8649902344</ele>
        <time>2010-06-13T09:09:09Z</time>
      </trkpt>
      <trkpt lat="45.66536" lon="5.99272">
        <ele>1338.0200195312</ele>
        <time>2010-06-13T09:09:12Z</time>
      </trkpt>
      <trkpt lat="45.66541" lon="5.99329">
        <ele>1334.7919921875</ele>
        <time>2010-06-13T09:09:17Z</time>
      </trkpt>
      <trkpt lat="45.66542" lon="5.99368">
        <ele>1333.4859619141</ele>
        <time>2010-06-13T09:09:20Z</time>
      </trkpt>
      <trkpt lat="45.6655" lon="5.99418">
        <ele>1330.3959960938</ele>
        <time>2010-06-13T09:09:24Z</time>
      </trkpt>
      <trkpt lat="45.66541" lon="5.99451">
        <ele>1329.3409423828</ele>
        <time>2010-06-13T09:09:27Z</time>
      </trkpt>
      <trkpt lat="45.66531" lon="5.9947">
        <ele>1330.0040283203</ele>
        <time>2010-06-13T09:09:29Z</time>
      </trkpt>
      <trkpt lat="45.66518" lon="5.99496">
        <ele>1330.4530029297</ele>
        <time>2010-06-13T09:09:32Z</time>
      </trkpt>
      <trkpt lat="45.66502" lon="5.9954">
        <ele>1332.7459716797</ele>
        <time>2010-06-13T09:09:38Z</time>
      </trkpt>
      <trkpt lat="45.66504" lon="5.99565">
        <ele>1333.4069824219</ele>
        <time>2010-06-13T09:09:42Z</time>
      </trkpt>
      <trkpt lat="45.66508" lon="5.99577">
        <ele>1333.5510253906</ele>
        <time>2010-06-13T09:09:44Z</time>
      </trkpt>
      <trkpt lat="45.6651" lon="5.99595">
        <ele>1334.2650146484</ele>
        <time>2010-06-13T09:09:47Z</time>
      </trkpt>
      <trkpt lat="45.66507" lon="5.99616">
        <ele>1335.4649658203</ele>
        <time>2010-06-13T09:09:51Z</time>
      </trkpt>
      <trkpt lat="45.66498" lon="5.99636">
        <ele>1337.3800048828</ele>
        <time>2010-06-13T09:09:57Z</time>
      </trkpt>
      <trkpt lat="45.665" lon="5.99654">
        <ele>1338.2550048828</ele>
        <time>2010-06-13T09:10:02Z</time>
      </trkpt>
      <trkpt lat="45.66503" lon="5.99676">
        <ele>1338.7189941406</ele>
        <time>2010-06-13T09:10:07Z</time>
      </trkpt>
      <trkpt lat="45.66499" lon="5.99707">
        <ele>1337.4200439453</ele>
        <time>2010-06-13T09:10:12Z</time>
      </trkpt>
      <trkpt lat="45.66498" lon="5.99713">
        <ele>1337.376953125</ele>
        <time>2010-06-13T09:10:13Z</time>
      </trkpt>
      <trkpt lat="45.66494" lon="5.99745">
        <ele>1338.4809570312</ele>
        <time>2010-06-13T09:10:19Z</time>
      </trkpt>
      <trkpt lat="45.66491" lon="5.99754">
        <ele>1339.0610351562</ele>
        <time>2010-06-13T09:10:21Z</time>
      </trkpt>
      <trkpt lat="45.66478" lon="5.9977">
        <ele>1339.0190429688</ele>
        <time>2010-06-13T09:10:25Z</time>
      </trkpt>
      <trkpt lat="45.66458" lon="5.9979">
        <ele>1338.7989501953</ele>
        <time>2010-06-13T09:10:31Z</time>
      </trkpt>
      <trkpt lat="45.66441" lon="5.99813">
        <ele>1339.7779541016</ele>
        <time>2010-06-13T09:10:37Z</time>
      </trkpt>
      <trkpt lat="45.66429" lon="5.99836">
        <ele>1340.4119873047</ele>
        <time>2010-06-13T09:10:42Z</time>
      </trkpt>
      <trkpt lat="45.66425" lon="5.9985">
        <ele>1340.7049560547</ele>
        <time>2010-06-13T09:10:45Z</time>
      </trkpt>
      <trkpt lat="45.66429" lon="5.99886">
        <ele>1340.4300537109</ele>
        <time>2010-06-13T09:10:51Z</time>
      </trkpt>
      <trkpt lat="45.66436" lon="5.99915">
        <ele>1339.2130126953</ele>
        <time>2010-06-13T09:10:55Z</time>
      </trkpt>
      <trkpt lat="45.66439" lon="5.99948">
        <ele>1340.4210205078</ele>
        <time>2010-06-13T09:11:01Z</time>
      </trkpt>
      <trkpt lat="45.66436" lon="5.99958">
        <ele>1340.4809570312</ele>
        <time>2010-06-13T09:11:03Z</time>
      </trkpt>
      <trkpt lat="45.66436" lon="5.99991">
        <ele>1337.8940429688</ele>
        <time>2010-06-13T09:11:07Z</time>
      </trkpt>
      <trkpt lat="45.66439" lon="6.00008">
        <ele>1336.3399658203</ele>
        <time>2010-06-13T09:11:09Z</time>
      </trkpt>
      <trkpt lat="45.66433" lon="6.00031">
        <ele>1337.9689941406</ele>
        <time>2010-06-13T09:11:13Z</time>
      </trkpt>
      <trkpt lat="45.66428" lon="6.00039">
        <ele>1339.1359863281</ele>
        <time>2010-06-13T09:11:15Z</time>
      </trkpt>
      <trkpt lat="45.66426" lon="6.00061">
        <ele>1337.8959960938</ele>
        <time>2010-06-13T09:11:19Z</time>
      </trkpt>
      <trkpt lat="45.66442" lon="6.00083">
        <ele>1336.9499511719</ele>
        <time>2010-06-13T09:11:23Z</time>
      </trkpt>
      <trkpt lat="45.66458" lon="6.00113">
        <ele>1335.5290527344</ele>
        <time>2010-06-13T09:11:27Z</time>
      </trkpt>
      <trkpt lat="45.66492" lon="6.00145">
        <ele>1333.3630371094</ele>
        <time>2010-06-13T09:11:33Z</time>
      </trkpt>
      <trkpt lat="45.66521" lon="6.00158">
        <ele>1334.2130126953</ele>
        <time>2010-06-13T09:11:38Z</time>
      </trkpt>
      <trkpt lat="45.66532" lon="6.00167">
        <ele>1334.1560058594</ele>
        <time>2010-06-13T09:11:40Z</time>
      </trkpt>
      <trkpt lat="45.66551" lon="6.00188">
        <ele>1333.2159423828</ele>
        <time>2010-06-13T09:11:44Z</time>
      </trkpt>
      <trkpt lat="45.66575" lon="6.00223">
        <ele>1332.0350341797</ele>
        <time>2010-06-13T09:11:49Z</time>
      </trkpt>
      <trkpt lat="45.66596" lon="6.00239">
        <ele>1332.9840087891</ele>
        <time>2010-06-13T09:11:53Z</time>
      </trkpt>
      <trkpt lat="45.66616" lon="6.00257">
        <ele>1334.3120117188</ele>
        <time>2010-06-13T09:11:58Z</time>
      </trkpt>
      <trkpt lat="45.6663" lon="6.00285">
        <ele>1333.2220458984</ele>
        <time>2010-06-13T09:12:02Z</time>
      </trkpt>
      <trkpt lat="45.66635" lon="6.00301">
        <ele>1332.5240478516</ele>
        <time>2010-06-13T09:12:04Z</time>
      </trkpt>
      <trkpt lat="45.66641" lon="6.00318">
        <ele>1331.8630371094</ele>
        <time>2010-06-13T09:12:06Z</time>
      </trkpt>
      <trkpt lat="45.66653" lon="6.0034">
        <ele>1330.8079833984</ele>
        <time>2010-06-13T09:12:09Z</time>
      </trkpt>
      <trkpt lat="45.66668" lon="6.00363">
        <ele>1329.3070068359</ele>
        <time>2010-06-13T09:12:12Z</time>
      </trkpt>
      <trkpt lat="45.66694" lon="6.00389">
        <ele>1329.501953125</ele>
        <time>2010-06-13T09:12:17Z</time>
      </trkpt>
      <trkpt lat="45.66699" lon="6.00394">
        <ele>1329.6770019531</ele>
        <time>2010-06-13T09:12:18Z</time>
      </trkpt>
      <trkpt lat="45.6673" lon="6.00417">
        <ele>1329.6760253906</ele>
        <time>2010-06-13T09:12:24Z</time>
      </trkpt>
      <trkpt lat="45.66744" lon="6.00427">
        <ele>1330.748046875</ele>
        <time>2010-06-13T09:12:27Z</time>
      </trkpt>
      <trkpt lat="45.66761" lon="6.00453">
        <ele>1331.416015625</ele>
        <time>2010-06-13T09:12:32Z</time>
      </trkpt>
      <trkpt lat="45.66768" lon="6.00473">
        <ele>1330.9949951172</ele>
        <time>2010-06-13T09:12:35Z</time>
      </trkpt>
      <trkpt lat="45.6678" lon="6.00501">
        <ele>1330.0760498047</ele>
        <time>2010-06-13T09:12:39Z</time>
      </trkpt>
      <trkpt lat="45.66796" lon="6.00524">
        <ele>1329.5300292969</ele>
        <time>2010-06-13T09:12:43Z</time>
      </trkpt>
      <trkpt lat="45.66806" lon="6.00532">
        <ele>1329.5209960938</ele>
        <time>2010-06-13T09:12:45Z</time>
      </trkpt>
      <trkpt lat="45.66827" lon="6.00562">
        <ele>1330.9510498047</ele>
        <time>2010-06-13T09:12:51Z</time>
      </trkpt>
      <trkpt lat="45.6683" lon="6.00567">
        <ele>1331.2719726562</ele>
        <time>2010-06-13T09:12:52Z</time>
      </trkpt>
      <trkpt lat="45.66856" lon="6.00591">
        <ele>1331.7380371094</ele>
        <time>2010-06-13T09:12:59Z</time>
      </trkpt>
      <trkpt lat="45.66873" lon="6.00601">
        <ele>1331.8690185547</ele>
        <time>2010-06-13T09:13:03Z</time>
      </trkpt>
      <trkpt lat="45.66897" lon="6.00613">
        <ele>1331.7779541016</ele>
        <time>2010-06-13T09:13:08Z</time>
      </trkpt>
      <trkpt lat="45.66917" lon="6.00631">
        <ele>1332.5</ele>
        <time>2010-06-13T09:13:13Z</time>
      </trkpt>
      <trkpt lat="45.66925" lon="6.00635">
        <ele>1333.1490478516</ele>
        <time>2010-06-13T09:13:15Z</time>
      </trkpt>
      <trkpt lat="45.66934" lon="6.00637">
        <ele>1333.5920410156</ele>
        <time>2010-06-13T09:13:17Z</time>
      </trkpt>
      <trkpt lat="45.66943" lon="6.00638">
        <ele>1333.5300292969</ele>
        <time>2010-06-13T09:13:19Z</time>
      </trkpt>
      <trkpt lat="45.66965" lon="6.00657">
        <ele>1331.9799804688</ele>
        <time>2010-06-13T09:13:24Z</time>
      </trkpt>
      <trkpt lat="45.66981" lon="6.00668">
        <ele>1331.9310302734</ele>
        <time>2010-06-13T09:13:27Z</time>
      </trkpt>
      <trkpt lat="45.66987" lon="6.00681">
        <ele>1333.0830078125</ele>
        <time>2010-06-13T09:13:30Z</time>
      </trkpt>
      <trkpt lat="45.66987" lon="6.00691">
        <ele>1334.2409667969</ele>
        <time>2010-06-13T09:13:32Z</time>
      </trkpt>
      <trkpt lat="45.66995" lon="6.00718">
        <ele>1335.7309570312</ele>
        <time>2010-06-13T09:13:38Z</time>
      </trkpt>
      <trkpt lat="45.67007" lon="6.00729">
        <ele>1335.8370361328</ele>
        <time>2010-06-13T09:13:42Z</time>
      </trkpt>
      <trkpt lat="45.67015" lon="6.00738">
        <ele>1337.0529785156</ele>
        <time>2010-06-13T09:13:46Z</time>
      </trkpt>
      <trkpt lat="45.67027" lon="6.00757">
        <ele>1337.8819580078</ele>
        <time>2010-06-13T09:13:52Z</time>
      </trkpt>
      <trkpt lat="45.67039" lon="6.00786">
        <ele>1335.8480224609</ele>
        <time>2010-06-13T09:13:56Z</time>
      </trkpt>
      <trkpt lat="45.67053" lon="6.00796">
        <ele>1333.5119628906</ele>
        <time>2010-06-13T09:13:59Z</time>
      </trkpt>
      <trkpt lat="45.67058" lon="6.00796">
        <ele>1333.2919921875</ele>
        <time>2010-06-13T09:14:00Z</time>
      </trkpt>
      <trkpt lat="45.67075" lon="6.00785">
        <ele>1332.0109863281</ele>
        <time>2010-06-13T09:14:03Z</time>
      </trkpt>
      <trkpt lat="45.6709" lon="6.00764">
        <ele>1330.1800537109</ele>
        <time>2010-06-13T09:14:06Z</time>
      </trkpt>
      <trkpt lat="45.67093" lon="6.00736">
        <ele>1330.4289550781</ele>
        <time>2010-06-13T09:14:09Z</time>
      </trkpt>
      <trkpt lat="45.67098" lon="6.00702">
        <ele>1328.0600585938</ele>
        <time>2010-06-13T09:14:12Z</time>
      </trkpt>
      <trkpt lat="45.67101" lon="6.00642">
        <ele>1326.3549804688</ele>
        <time>2010-06-13T09:14:17Z</time>
      </trkpt>
      <trkpt lat="45.67105" lon="6.00622">
        <ele>1326.6350097656</ele>
        <time>2010-06-13T09:14:19Z</time>
      </trkpt>
      <trkpt lat="45.67105" lon="6.00604">
        <ele>1327.8459472656</ele>
        <time>2010-06-13T09:14:21Z</time>
      </trkpt>
      <trkpt lat="45.67107" lon="6.00579">
        <ele>1329.4759521484</ele>
        <time>2010-06-13T09:14:24Z</time>
      </trkpt>
      <trkpt lat="45.67104" lon="6.00559">
        <ele>1330.3549804688</ele>
        <time>2010-06-13T09:14:27Z</time>
      </trkpt>
      <trkpt lat="45.67105" lon="6.00529">
        <ele>1330.5190429688</ele>
        <time>2010-06-13T09:14:31Z</time>
      </trkpt>
      <trkpt lat="45.67107" lon="6.00487">
        <ele>1325.6970214844</ele>
        <time>2010-06-13T09:14:35Z</time>
      </trkpt>
      <trkpt lat="45.67104" lon="6.00475">
        <ele>1323.8840332031</ele>
        <time>2010-06-13T09:14:36Z</time>
      </trkpt>
      <trkpt lat="45.67097" lon="6.00451">
        <ele>1321.3029785156</ele>
        <time>2010-06-13T09:14:38Z</time>
      </trkpt>
      <trkpt lat="45.67094" lon="6.00428">
        <ele>1320.5639648438</ele>
        <time>2010-06-13T09:14:40Z</time>
      </trkpt>
      <trkpt lat="45.67092" lon="6.00384">
        <ele>1321.2020263672</ele>
        <time>2010-06-13T09:14:44Z</time>
      </trkpt>
      <trkpt lat="45.67093" lon="6.00314">
        <ele>1319.4840087891</ele>
        <time>2010-06-13T09:14:50Z</time>
      </trkpt>
      <trkpt lat="45.67093" lon="6.00305">
        <ele>1319.7149658203</ele>
        <time>2010-06-13T09:14:51Z</time>
      </trkpt>
      <trkpt lat="45.67089" lon="6.00275">
        <ele>1324.5119628906</ele>
        <time>2010-06-13T09:14:56Z</time>
      </trkpt>
      <trkpt lat="45.67086" lon="6.00243">
        <ele>1326.5999755859</ele>
        <time>2010-06-13T09:15:03Z</time>
      </trkpt>
      <trkpt lat="45.67085" lon="6.00217">
        <ele>1326.6009521484</ele>
        <time>2010-06-13T09:15:08Z</time>
      </trkpt>
      <trkpt lat="45.67084" lon="6.002">
        <ele>1327.6090087891</ele>
        <time>2010-06-13T09:15:12Z</time>
      </trkpt>
      <trkpt lat="45.67081" lon="6.00187">
        <ele>1328.3110351562</ele>
        <time>2010-06-13T09:15:15Z</time>
      </trkpt>
      <trkpt lat="45.67078" lon="6.00152">
        <ele>1326.5340576172</ele>
        <time>2010-06-13T09:15:20Z</time>
      </trkpt>
      <trkpt lat="45.67078" lon="6.00134">
        <ele>1327.8940429688</ele>
        <time>2010-06-13T09:15:24Z</time>
      </trkpt>
      <trkpt lat="45.67076" lon="6.00111">
        <ele>1328.4840087891</ele>
        <time>2010-06-13T09:15:29Z</time>
      </trkpt>
      <trkpt lat="45.67075" lon="6.00096">
        <ele>1327.4730224609</ele>
        <time>2010-06-13T09:15:31Z</time>
      </trkpt>
      <trkpt lat="45.6707" lon="6.00065">
        <ele>1326.5970458984</ele>
        <time>2010-06-13T09:15:36Z</time>
      </trkpt>
      <trkpt lat="45.67069" lon="6.00051">
        <ele>1328.1359863281</ele>
        <time>2010-06-13T09:15:39Z</time>
      </trkpt>
      <trkpt lat="45.67068" lon="6.00044">
        <ele>1328.2530517578</ele>
        <time>2010-06-13T09:15:40Z</time>
      </trkpt>
      <trkpt lat="45.67063" lon="5.99998">
        <ele>1326.2989501953</ele>
        <time>2010-06-13T09:15:46Z</time>
      </trkpt>
      <trkpt lat="45.6706" lon="5.99978">
        <ele>1326.7600097656</ele>
        <time>2010-06-13T09:15:49Z</time>
      </trkpt>
      <trkpt lat="45.67051" lon="5.99923">
        <ele>1328.4420166016</ele>
        <time>2010-06-13T09:15:58Z</time>
      </trkpt>
      <trkpt lat="45.67041" lon="5.9989">
        <ele>1329.6419677734</ele>
        <time>2010-06-13T09:16:05Z</time>
      </trkpt>
      <trkpt lat="45.67039" lon="5.99878">
        <ele>1332.2390136719</ele>
        <time>2010-06-13T09:16:10Z</time>
      </trkpt>
      <trkpt lat="45.67035" lon="5.99858">
        <ele>1333.9580078125</ele>
        <time>2010-06-13T09:16:18Z</time>
      </trkpt>
      <trkpt lat="45.67028" lon="5.99833">
        <ele>1333.7709960938</ele>
        <time>2010-06-13T09:16:24Z</time>
      </trkpt>
      <trkpt lat="45.6702" lon="5.99797">
        <ele>1333.6070556641</ele>
        <time>2010-06-13T09:16:31Z</time>
      </trkpt>
      <trkpt lat="45.67019" lon="5.9979">
        <ele>1333.4649658203</ele>
        <time>2010-06-13T09:16:32Z</time>
      </trkpt>
      <trkpt lat="45.6701" lon="5.99753">
        <ele>1331.7170410156</ele>
        <time>2010-06-13T09:16:37Z</time>
      </trkpt>
      <trkpt lat="45.67002" lon="5.99718">
        <ele>1332.1760253906</ele>
        <time>2010-06-13T09:16:42Z</time>
      </trkpt>
      <trkpt lat="45.66998" lon="5.99698">
        <ele>1333.1280517578</ele>
        <time>2010-06-13T09:16:45Z</time>
      </trkpt>
      <trkpt lat="45.66988" lon="5.99672">
        <ele>1332.7180175781</ele>
        <time>2010-06-13T09:16:49Z</time>
      </trkpt>
      <trkpt lat="45.66984" lon="5.99634">
        <ele>1334.7270507812</ele>
        <time>2010-06-13T09:16:56Z</time>
      </trkpt>
      <trkpt lat="45.66983" lon="5.99623">
        <ele>1334.8120117188</ele>
        <time>2010-06-13T09:16:58Z</time>
      </trkpt>
      <trkpt lat="45.66978" lon="5.99595">
        <ele>1333.1899414062</ele>
        <time>2010-06-13T09:17:02Z</time>
      </trkpt>
      <trkpt lat="45.6697" lon="5.99567">
        <ele>1332.2459716797</ele>
        <time>2010-06-13T09:17:06Z</time>
      </trkpt>
      <trkpt lat="45.66956" lon="5.99526">
        <ele>1330.1169433594</ele>
        <time>2010-06-13T09:17:11Z</time>
      </trkpt>
      <trkpt lat="45.6694" lon="5.99495">
        <ele>1328.6169433594</ele>
        <time>2010-06-13T09:17:15Z</time>
      </trkpt>
      <trkpt lat="45.6692" lon="5.99451">
        <ele>1326.7419433594</ele>
        <time>2010-06-13T09:17:20Z</time>
      </trkpt>
      <trkpt lat="45.6691" lon="5.99423">
        <ele>1328.0419921875</ele>
        <time>2010-06-13T09:17:24Z</time>
      </trkpt>
      <trkpt lat="45.66901" lon="5.99384">
        <ele>1330.3370361328</ele>
        <time>2010-06-13T09:17:31Z</time>
      </trkpt>
      <trkpt lat="45.66894" lon="5.99355">
        <ele>1332.6800537109</ele>
        <time>2010-06-13T09:17:39Z</time>
      </trkpt>
      <trkpt lat="45.66891" lon="5.99332">
        <ele>1334.5999755859</ele>
        <time>2010-06-13T09:17:46Z</time>
      </trkpt>
      <trkpt lat="45.66885" lon="5.99316">
        <ele>1335.9730224609</ele>
        <time>2010-06-13T09:17:51Z</time>
      </trkpt>
      <trkpt lat="45.66874" lon="5.993">
        <ele>1337.0980224609</ele>
        <time>2010-06-13T09:17:58Z</time>
      </trkpt>
      <trkpt lat="45.6686" lon="5.99281">
        <ele>1337.9840087891</ele>
        <time>2010-06-13T09:18:06Z</time>
      </trkpt>
      <trkpt lat="45.66851" lon="5.99256">
        <ele>1339</ele>
        <time>2010-06-13T09:18:13Z</time>
      </trkpt>
      <trkpt lat="45.6684" lon="5.9922">
        <ele>1339.8360595703</ele>
        <time>2010-06-13T09:18:24Z</time>
      </trkpt>
      <trkpt lat="45.66843" lon="5.99195">
        <ele>1340.291015625</ele>
        <time>2010-06-13T09:18:31Z</time>
      </trkpt>
      <trkpt lat="45.66847" lon="5.9918">
        <ele>1341.7650146484</ele>
        <time>2010-06-13T09:18:37Z</time>
      </trkpt>
      <trkpt lat="45.66852" lon="5.99155">
        <ele>1344.0699462891</ele>
        <time>2010-06-13T09:18:47Z</time>
      </trkpt>
      <trkpt lat="45.66852" lon="5.99134">
        <ele>1346.8129882812</ele>
        <time>2010-06-13T09:18:56Z</time>
      </trkpt>
      <trkpt lat="45.66852" lon="5.99122">
        <ele>1347.4250488281</ele>
        <time>2010-06-13T09:19:01Z</time>
      </trkpt>
      <trkpt lat="45.66861" lon="5.99108">
        <ele>1347.4659423828</ele>
        <time>2010-06-13T09:19:08Z</time>
      </trkpt>
      <trkpt lat="45.66867" lon="5.9911">
        <ele>1347.7650146484</ele>
        <time>2010-06-13T09:19:11Z</time>
      </trkpt>
      <trkpt lat="45.66884" lon="5.99122">
        <ele>1347.5710449219</ele>
        <time>2010-06-13T09:19:18Z</time>
      </trkpt>
      <trkpt lat="45.66891" lon="5.99125">
        <ele>1347.416015625</ele>
        <time>2010-06-13T09:19:20Z</time>
      </trkpt>
      <trkpt lat="45.66898" lon="5.9913">
        <ele>1347.2280273438</ele>
        <time>2010-06-13T09:19:22Z</time>
      </trkpt>
      <trkpt lat="45.66918" lon="5.9914">
        <ele>1345.0870361328</ele>
        <time>2010-06-13T09:19:26Z</time>
      </trkpt>
      <trkpt lat="45.6693" lon="5.99145">
        <ele>1344.0639648438</ele>
        <time>2010-06-13T09:19:28Z</time>
      </trkpt>
      <trkpt lat="45.66942" lon="5.9915">
        <ele>1343.3110351562</ele>
        <time>2010-06-13T09:19:30Z</time>
      </trkpt>
      <trkpt lat="45.6697" lon="5.99176">
        <ele>1341.6870117188</ele>
        <time>2010-06-13T09:19:35Z</time>
      </trkpt>
      <trkpt lat="45.66998" lon="5.99199">
        <ele>1340.8830566406</ele>
        <time>2010-06-13T09:19:40Z</time>
      </trkpt>
      <trkpt lat="45.67014" lon="5.99209">
        <ele>1341.3239746094</ele>
        <time>2010-06-13T09:19:43Z</time>
      </trkpt>
      <trkpt lat="45.67028" lon="5.99229">
        <ele>1341.9730224609</ele>
        <time>2010-06-13T09:19:47Z</time>
      </trkpt>
      <trkpt lat="45.67047" lon="5.99279">
        <ele>1343.0360107422</ele>
        <time>2010-06-13T09:19:55Z</time>
      </trkpt>
      <trkpt lat="45.67065" lon="5.99309">
        <ele>1344.8909912109</ele>
        <time>2010-06-13T09:20:02Z</time>
      </trkpt>
      <trkpt lat="45.67076" lon="5.99323">
        <ele>1344.9549560547</ele>
        <time>2010-06-13T09:20:06Z</time>
      </trkpt>
      <trkpt lat="45.67101" lon="5.99356">
        <ele>1343.9859619141</ele>
        <time>2010-06-13T09:20:13Z</time>
      </trkpt>
      <trkpt lat="45.67112" lon="5.99372">
        <ele>1344.0660400391</ele>
        <time>2010-06-13T09:20:16Z</time>
      </trkpt>
      <trkpt lat="45.67134" lon="5.99393">
        <ele>1344.5899658203</ele>
        <time>2010-06-13T09:20:22Z</time>
      </trkpt>
      <trkpt lat="45.67152" lon="5.99413">
        <ele>1346.6629638672</ele>
        <time>2010-06-13T09:20:29Z</time>
      </trkpt>
      <trkpt lat="45.67157" lon="5.99444">
        <ele>1345.791015625</ele>
        <time>2010-06-13T09:20:34Z</time>
      </trkpt>
      <trkpt lat="45.67159" lon="5.99451">
        <ele>1345.5670166016</ele>
        <time>2010-06-13T09:20:35Z</time>
      </trkpt>
      <trkpt lat="45.67168" lon="5.99497">
        <ele>1345.5200195312</ele>
        <time>2010-06-13T09:20:42Z</time>
      </trkpt>
      <trkpt lat="45.67177" lon="5.99511">
        <ele>1346.5200195312</ele>
        <time>2010-06-13T09:20:46Z</time>
      </trkpt>
      <trkpt lat="45.6719" lon="5.99518">
        <ele>1346.6669921875</ele>
        <time>2010-06-13T09:20:51Z</time>
      </trkpt>
      <trkpt lat="45.67202" lon="5.99528">
        <ele>1346.0649414062</ele>
        <time>2010-06-13T09:20:55Z</time>
      </trkpt>
      <trkpt lat="45.67208" lon="5.9956">
        <ele>1344.0100097656</ele>
        <time>2010-06-13T09:21:00Z</time>
      </trkpt>
      <trkpt lat="45.67214" lon="5.99583">
        <ele>1342.6280517578</ele>
        <time>2010-06-13T09:21:03Z</time>
      </trkpt>
      <trkpt lat="45.67229" lon="5.99599">
        <ele>1341.2039794922</ele>
        <time>2010-06-13T09:21:06Z</time>
      </trkpt>
      <trkpt lat="45.67247" lon="5.99599">
        <ele>1340.4749755859</ele>
        <time>2010-06-13T09:21:09Z</time>
      </trkpt>
      <trkpt lat="45.67264" lon="5.99596">
        <ele>1339.9300537109</ele>
        <time>2010-06-13T09:21:12Z</time>
      </trkpt>
      <trkpt lat="45.6727" lon="5.99598">
        <ele>1339.6639404297</ele>
        <time>2010-06-13T09:21:13Z</time>
      </trkpt>
      <trkpt lat="45.673" lon="5.99612">
        <ele>1338.3470458984</ele>
        <time>2010-06-13T09:21:18Z</time>
      </trkpt>
      <trkpt lat="45.67321" lon="5.99607">
        <ele>1338.5140380859</ele>
        <time>2010-06-13T09:21:22Z</time>
      </trkpt>
      <trkpt lat="45.67326" lon="5.99602">
        <ele>1338.5329589844</ele>
        <time>2010-06-13T09:21:23Z</time>
      </trkpt>
      <trkpt lat="45.67344" lon="5.99584">
        <ele>1338.5140380859</ele>
        <time>2010-06-13T09:21:27Z</time>
      </trkpt>
      <trkpt lat="45.6737" lon="5.99579">
        <ele>1339.0780029297</ele>
        <time>2010-06-13T09:21:32Z</time>
      </trkpt>
      <trkpt lat="45.67393" lon="5.9959">
        <ele>1336.5770263672</ele>
        <time>2010-06-13T09:21:36Z</time>
      </trkpt>
      <trkpt lat="45.6741" lon="5.99612">
        <ele>1334.0660400391</ele>
        <time>2010-06-13T09:21:39Z</time>
      </trkpt>
      <trkpt lat="45.67423" lon="5.99622">
        <ele>1333.4239501953</ele>
        <time>2010-06-13T09:21:41Z</time>
      </trkpt>
      <trkpt lat="45.67452" lon="5.99639">
        <ele>1334.6629638672</ele>
        <time>2010-06-13T09:21:46Z</time>
      </trkpt>
      <trkpt lat="45.67472" lon="5.99656">
        <ele>1336.2860107422</ele>
        <time>2010-06-13T09:21:51Z</time>
      </trkpt>
      <trkpt lat="45.67491" lon="5.99662">
        <ele>1335.8969726562</ele>
        <time>2010-06-13T09:21:55Z</time>
      </trkpt>
      <trkpt lat="45.6751" lon="5.9966">
        <ele>1336.3170166016</ele>
        <time>2010-06-13T09:21:59Z</time>
      </trkpt>
      <trkpt lat="45.67532" lon="5.99662">
        <ele>1338.5360107422</ele>
        <time>2010-06-13T09:22:05Z</time>
      </trkpt>
      <trkpt lat="45.67548" lon="5.99674">
        <ele>1338.0670166016</ele>
        <time>2010-06-13T09:22:10Z</time>
      </trkpt>
      <trkpt lat="45.6757" lon="5.99679">
        <ele>1339.1009521484</ele>
        <time>2010-06-13T09:22:16Z</time>
      </trkpt>
      <trkpt lat="45.67587" lon="5.99681">
        <ele>1341.3420410156</ele>
        <time>2010-06-13T09:22:22Z</time>
      </trkpt>
      <trkpt lat="45.67599" lon="5.99688">
        <ele>1342.7399902344</ele>
        <time>2010-06-13T09:22:27Z</time>
      </trkpt>
      <trkpt lat="45.67612" lon="5.99703">
        <ele>1343.7120361328</ele>
        <time>2010-06-13T09:22:33Z</time>
      </trkpt>
      <trkpt lat="45.67621" lon="5.99726">
        <ele>1344.3759765625</ele>
        <time>2010-06-13T09:22:39Z</time>
      </trkpt>
      <trkpt lat="45.67628" lon="5.99755">
        <ele>1346.3139648438</ele>
        <time>2010-06-13T09:22:47Z</time>
      </trkpt>
      <trkpt lat="45.67638" lon="5.99776">
        <ele>1347.2550048828</ele>
        <time>2010-06-13T09:22:54Z</time>
      </trkpt>
      <trkpt lat="45.67653" lon="5.9979">
        <ele>1348.2139892578</ele>
        <time>2010-06-13T09:23:01Z</time>
      </trkpt>
      <trkpt lat="45.67673" lon="5.99805">
        <ele>1348.9699707031</ele>
        <time>2010-06-13T09:23:09Z</time>
      </trkpt>
      <trkpt lat="45.6769" lon="5.99813">
        <ele>1349.8659667969</ele>
        <time>2010-06-13T09:23:15Z</time>
      </trkpt>
      <trkpt lat="45.67711" lon="5.99814">
        <ele>1349.6040039062</ele>
        <time>2010-06-13T09:23:21Z</time>
      </trkpt>
      <trkpt lat="45.67732" lon="5.99816">
        <ele>1349.8380126953</ele>
        <time>2010-06-13T09:23:27Z</time>
      </trkpt>
      <trkpt lat="45.67753" lon="5.9982">
        <ele>1350.6280517578</ele>
        <time>2010-06-13T09:23:34Z</time>
      </trkpt>
      <trkpt lat="45.6777" lon="5.99822">
        <ele>1351.9520263672</ele>
        <time>2010-06-13T09:23:40Z</time>
      </trkpt>
      <trkpt lat="45.67793" lon="5.99833">
        <ele>1352.5059814453</ele>
        <time>2010-06-13T09:23:48Z</time>
      </trkpt>
      <trkpt lat="45.67818" lon="5.99851">
        <ele>1352.0439453125</ele>
        <time>2010-06-13T09:23:56Z</time>
      </trkpt>
      <trkpt lat="45.67832" lon="5.99865">
        <ele>1351.5340576172</ele>
        <time>2010-06-13T09:24:01Z</time>
      </trkpt>
      <trkpt lat="45.67833" lon="5.9988">
        <ele>1351.7030029297</ele>
        <time>2010-06-13T09:24:06Z</time>
      </trkpt>
      <trkpt lat="45.67834" lon="5.99881">
        <ele>1351.8759765625</ele>
        <time>2010-06-13T09:24:08Z</time>
      </trkpt>
      <trkpt lat="45.67831" lon="5.99882">
        <ele>1351.5849609375</ele>
        <time>2010-06-13T09:24:16Z</time>
      </trkpt>
      <trkpt lat="45.67831" lon="5.99883">
        <ele>1351.4399414062</ele>
        <time>2010-06-13T09:24:17Z</time>
      </trkpt>
      <trkpt lat="45.67831" lon="5.99883">
        <ele>1351.0620117188</ele>
        <time>2010-06-13T09:24:19Z</time>
      </trkpt>
      <trkpt lat="45.67838" lon="5.99884">
        <ele>1351.7619628906</ele>
        <time>2010-06-13T09:27:30Z</time>
      </trkpt>
      <trkpt lat="45.67838" lon="5.99885">
        <ele>1351.6190185547</ele>
        <time>2010-06-13T09:27:33Z</time>
      </trkpt>
      <trkpt lat="45.67834" lon="5.99891">
        <ele>1352.1369628906</ele>
        <time>2010-06-13T09:35:33Z</time>
      </trkpt>
      <trkpt lat="45.67835" lon="5.99898">
        <ele>1351.9630126953</ele>
        <time>2010-06-13T09:35:35Z</time>
      </trkpt>
      <trkpt lat="45.67836" lon="5.9992">
        <ele>1351.4449462891</ele>
        <time>2010-06-13T09:35:39Z</time>
      </trkpt>
      <trkpt lat="45.67834" lon="5.99951">
        <ele>1349.9449462891</ele>
        <time>2010-06-13T09:35:44Z</time>
      </trkpt>
      <trkpt lat="45.6782" lon="5.9996">
        <ele>1349.9520263672</ele>
        <time>2010-06-13T09:35:48Z</time>
      </trkpt>
      <trkpt lat="45.67818" lon="5.99961">
        <ele>1350.1199951172</ele>
        <time>2010-06-13T09:35:49Z</time>
      </trkpt>
      <trkpt lat="45.67804" lon="5.99968">
        <ele>1352.9870605469</ele>
        <time>2010-06-13T09:35:55Z</time>
      </trkpt>
      <trkpt lat="45.67798" lon="5.9997">
        <ele>1353.9429931641</ele>
        <time>2010-06-13T09:35:58Z</time>
      </trkpt>
      <trkpt lat="45.67791" lon="5.99971">
        <ele>1354.2889404297</ele>
        <time>2010-06-13T09:36:01Z</time>
      </trkpt>
      <trkpt lat="45.67781" lon="5.99971">
        <ele>1354.2889404297</ele>
        <time>2010-06-13T09:36:04Z</time>
      </trkpt>
      <trkpt lat="45.67778" lon="5.99971">
        <ele>1354.1419677734</ele>
        <time>2010-06-13T09:36:05Z</time>
      </trkpt>
      <trkpt lat="45.67774" lon="5.99971">
        <ele>1353.9219970703</ele>
        <time>2010-06-13T09:36:06Z</time>
      </trkpt>
      <trkpt lat="45.67751" lon="5.99964">
        <ele>1353.2259521484</ele>
        <time>2010-06-13T09:36:12Z</time>
      </trkpt>
      <trkpt lat="45.67727" lon="5.99955">
        <ele>1353.4050292969</ele>
        <time>2010-06-13T09:36:19Z</time>
      </trkpt>
      <trkpt lat="45.67714" lon="5.99957">
        <ele>1353.7130126953</ele>
        <time>2010-06-13T09:36:23Z</time>
      </trkpt>
      <trkpt lat="45.67698" lon="5.99959">
        <ele>1353.2679443359</ele>
        <time>2010-06-13T09:36:28Z</time>
      </trkpt>
      <trkpt lat="45.67672" lon="5.99965">
        <ele>1350.7459716797</ele>
        <time>2010-06-13T09:36:33Z</time>
      </trkpt>
      <trkpt lat="45.67649" lon="5.99964">
        <ele>1349.2290039062</ele>
        <time>2010-06-13T09:36:37Z</time>
      </trkpt>
      <trkpt lat="45.67634" lon="5.99971">
        <ele>1349.3029785156</ele>
        <time>2010-06-13T09:36:41Z</time>
      </trkpt>
      <trkpt lat="45.67633" lon="5.99987">
        <ele>1349.3540039062</ele>
        <time>2010-06-13T09:36:44Z</time>
      </trkpt>
      <trkpt lat="45.67633" lon="5.99997">
        <ele>1349.5649414062</ele>
        <time>2010-06-13T09:36:46Z</time>
      </trkpt>
      <trkpt lat="45.67626" lon="6.00028">
        <ele>1349.4399414062</ele>
        <time>2010-06-13T09:36:52Z</time>
      </trkpt>
      <trkpt lat="45.67623" lon="6.00035">
        <ele>1349.2290039062</ele>
        <time>2010-06-13T09:36:53Z</time>
      </trkpt>
      <trkpt lat="45.67615" lon="6.00057">
        <ele>1349.7580566406</ele>
        <time>2010-06-13T09:36:57Z</time>
      </trkpt>
      <trkpt lat="45.67614" lon="6.00069">
        <ele>1350.1760253906</ele>
        <time>2010-06-13T09:36:59Z</time>
      </trkpt>
      <trkpt lat="45.67614" lon="6.00099">
        <ele>1349.1839599609</ele>
        <time>2010-06-13T09:37:03Z</time>
      </trkpt>
      <trkpt lat="45.67609" lon="6.00132">
        <ele>1346.4370117188</ele>
        <time>2010-06-13T09:37:07Z</time>
      </trkpt>
      <trkpt lat="45.67592" lon="6.00182">
        <ele>1344.1810302734</ele>
        <time>2010-06-13T09:37:13Z</time>
      </trkpt>
      <trkpt lat="45.67585" lon="6.00224">
        <ele>1344.2239990234</ele>
        <time>2010-06-13T09:37:18Z</time>
      </trkpt>
      <trkpt lat="45.67582" lon="6.00252">
        <ele>1343.0469970703</ele>
        <time>2010-06-13T09:37:21Z</time>
      </trkpt>
      <trkpt lat="45.67577" lon="6.00306">
        <ele>1341.3430175781</ele>
        <time>2010-06-13T09:37:27Z</time>
      </trkpt>
      <trkpt lat="45.67576" lon="6.00313">
        <ele>1341.3420410156</ele>
        <time>2010-06-13T09:37:28Z</time>
      </trkpt>
      <trkpt lat="45.67582" lon="6.00338">
        <ele>1341.8430175781</ele>
        <time>2010-06-13T09:37:32Z</time>
      </trkpt>
      <trkpt lat="45.67591" lon="6.00344">
        <ele>1341.9899902344</ele>
        <time>2010-06-13T09:37:34Z</time>
      </trkpt>
      <trkpt lat="45.67619" lon="6.00368">
        <ele>1340.6600341797</ele>
        <time>2010-06-13T09:37:40Z</time>
      </trkpt>
      <trkpt lat="45.67636" lon="6.00375">
        <ele>1338.9389648438</ele>
        <time>2010-06-13T09:37:43Z</time>
      </trkpt>
      <trkpt lat="45.67657" lon="6.00397">
        <ele>1337.1379394531</ele>
        <time>2010-06-13T09:37:47Z</time>
      </trkpt>
      <trkpt lat="45.67662" lon="6.00413">
        <ele>1336.7669677734</ele>
        <time>2010-06-13T09:37:49Z</time>
      </trkpt>
      <trkpt lat="45.67661" lon="6.00428">
        <ele>1336.6850585938</ele>
        <time>2010-06-13T09:37:51Z</time>
      </trkpt>
      <trkpt lat="45.67664" lon="6.00452">
        <ele>1336.7760009766</ele>
        <time>2010-06-13T09:37:54Z</time>
      </trkpt>
      <trkpt lat="45.67673" lon="6.0048">
        <ele>1336.0119628906</ele>
        <time>2010-06-13T09:37:58Z</time>
      </trkpt>
      <trkpt lat="45.67688" lon="6.00522">
        <ele>1333.2580566406</ele>
        <time>2010-06-13T09:38:03Z</time>
      </trkpt>
      <trkpt lat="45.67693" lon="6.00527">
        <ele>1332.9279785156</ele>
        <time>2010-06-13T09:38:04Z</time>
      </trkpt>
      <trkpt lat="45.67706" lon="6.00553">
        <ele>1331.7099609375</ele>
        <time>2010-06-13T09:38:09Z</time>
      </trkpt>
      <trkpt lat="45.67702" lon="6.0057">
        <ele>1330.7750244141</ele>
        <time>2010-06-13T09:38:12Z</time>
      </trkpt>
      <trkpt lat="45.67711" lon="6.00585">
        <ele>1330.3189697266</ele>
        <time>2010-06-13T09:38:15Z</time>
      </trkpt>
      <trkpt lat="45.67716" lon="6.00589">
        <ele>1330.3189697266</ele>
        <time>2010-06-13T09:38:16Z</time>
      </trkpt>
      <trkpt lat="45.6774" lon="6.00614">
        <ele>1329.2690429688</ele>
        <time>2010-06-13T09:38:21Z</time>
      </trkpt>
      <trkpt lat="45.67763" lon="6.00649">
        <ele>1326.7709960938</ele>
        <time>2010-06-13T09:38:26Z</time>
      </trkpt>
      <trkpt lat="45.67775" lon="6.00662">
        <ele>1327.4489746094</ele>
        <time>2010-06-13T09:38:29Z</time>
      </trkpt>
      <trkpt lat="45.67782" lon="6.00669">
        <ele>1328.2819824219</ele>
        <time>2010-06-13T09:38:31Z</time>
      </trkpt>
      <trkpt lat="45.67789" lon="6.0069">
        <ele>1328.541015625</ele>
        <time>2010-06-13T09:38:35Z</time>
      </trkpt>
      <trkpt lat="45.67785" lon="6.00705">
        <ele>1327.4890136719</ele>
        <time>2010-06-13T09:38:37Z</time>
      </trkpt>
      <trkpt lat="45.67776" lon="6.00751">
        <ele>1326.6789550781</ele>
        <time>2010-06-13T09:38:43Z</time>
      </trkpt>
      <trkpt lat="45.67774" lon="6.00758">
        <ele>1326.7060546875</ele>
        <time>2010-06-13T09:38:44Z</time>
      </trkpt>
      <trkpt lat="45.67766" lon="6.00778">
        <ele>1327.1030273438</ele>
        <time>2010-06-13T09:38:47Z</time>
      </trkpt>
      <trkpt lat="45.67753" lon="6.00795">
        <ele>1328.4539794922</ele>
        <time>2010-06-13T09:38:51Z</time>
      </trkpt>
      <trkpt lat="45.67747" lon="6.00814">
        <ele>1328.7290039062</ele>
        <time>2010-06-13T09:38:55Z</time>
      </trkpt>
      <trkpt lat="45.67748" lon="6.00819">
        <ele>1328.9990234375</ele>
        <time>2010-06-13T09:38:56Z</time>
      </trkpt>
      <trkpt lat="45.67759" lon="6.00847">
        <ele>1330.375</ele>
        <time>2010-06-13T09:39:02Z</time>
      </trkpt>
      <trkpt lat="45.67755" lon="6.0087">
        <ele>1331.3969726562</ele>
        <time>2010-06-13T09:39:07Z</time>
      </trkpt>
      <trkpt lat="45.67741" lon="6.00882">
        <ele>1332.9470214844</ele>
        <time>2010-06-13T09:39:12Z</time>
      </trkpt>
      <trkpt lat="45.6772" lon="6.00893">
        <ele>1333.8859863281</ele>
        <time>2010-06-13T09:39:19Z</time>
      </trkpt>
      <trkpt lat="45.67707" lon="6.009">
        <ele>1332.9820556641</ele>
        <time>2010-06-13T09:39:22Z</time>
      </trkpt>
      <trkpt lat="45.67693" lon="6.00907">
        <ele>1332.0949707031</ele>
        <time>2010-06-13T09:39:25Z</time>
      </trkpt>
      <trkpt lat="45.67672" lon="6.00916">
        <ele>1330.3830566406</ele>
        <time>2010-06-13T09:39:29Z</time>
      </trkpt>
      <trkpt lat="45.6765" lon="6.00939">
        <ele>1329.8079833984</ele>
        <time>2010-06-13T09:39:34Z</time>
      </trkpt>
      <trkpt lat="45.67644" lon="6.00953">
        <ele>1329.5250244141</ele>
        <time>2010-06-13T09:39:36Z</time>
      </trkpt>
      <trkpt lat="45.67637" lon="6.00977">
        <ele>1328.7409667969</ele>
        <time>2010-06-13T09:39:39Z</time>
      </trkpt>
      <trkpt lat="45.67615" lon="6.01017">
        <ele>1329.6080322266</ele>
        <time>2010-06-13T09:39:46Z</time>
      </trkpt>
      <trkpt lat="45.67612" lon="6.0102">
        <ele>1329.9420166016</ele>
        <time>2010-06-13T09:39:47Z</time>
      </trkpt>
      <trkpt lat="45.67588" lon="6.01039">
        <ele>1332.3079833984</ele>
        <time>2010-06-13T09:39:54Z</time>
      </trkpt>
      <trkpt lat="45.67574" lon="6.01051">
        <ele>1333.6999511719</ele>
        <time>2010-06-13T09:40:00Z</time>
      </trkpt>
      <trkpt lat="45.67565" lon="6.01065">
        <ele>1335.6999511719</ele>
        <time>2010-06-13T09:40:06Z</time>
      </trkpt>
      <trkpt lat="45.67559" lon="6.01083">
        <ele>1338.3609619141</ele>
        <time>2010-06-13T09:40:13Z</time>
      </trkpt>
      <trkpt lat="45.67554" lon="6.01097">
        <ele>1339.5500488281</ele>
        <time>2010-06-13T09:40:18Z</time>
      </trkpt>
      <trkpt lat="45.67547" lon="6.01116">
        <ele>1339.8549804688</ele>
        <time>2010-06-13T09:40:24Z</time>
      </trkpt>
      <trkpt lat="45.67542" lon="6.01142">
        <ele>1339.8280029297</ele>
        <time>2010-06-13T09:40:30Z</time>
      </trkpt>
      <trkpt lat="45.67541" lon="6.01159">
        <ele>1338.7010498047</ele>
        <time>2010-06-13T09:40:32Z</time>
      </trkpt>
      <trkpt lat="45.67531" lon="6.01196">
        <ele>1335.458984375</ele>
        <time>2010-06-13T09:40:36Z</time>
      </trkpt>
      <trkpt lat="45.67527" lon="6.01204">
        <ele>1335.0620117188</ele>
        <time>2010-06-13T09:40:37Z</time>
      </trkpt>
      <trkpt lat="45.67511" lon="6.01233">
        <ele>1335.1949462891</ele>
        <time>2010-06-13T09:40:41Z</time>
      </trkpt>
      <trkpt lat="45.67499" lon="6.01262">
        <ele>1336.001953125</ele>
        <time>2010-06-13T09:40:45Z</time>
      </trkpt>
      <trkpt lat="45.67487" lon="6.01283">
        <ele>1337.1739501953</ele>
        <time>2010-06-13T09:40:49Z</time>
      </trkpt>
      <trkpt lat="45.6748" lon="6.01291">
        <ele>1337.2750244141</ele>
        <time>2010-06-13T09:40:51Z</time>
      </trkpt>
      <trkpt lat="45.67473" lon="6.01303">
        <ele>1337.2030029297</ele>
        <time>2010-06-13T09:40:53Z</time>
      </trkpt>
      <trkpt lat="45.67448" lon="6.01323">
        <ele>1336.3900146484</ele>
        <time>2010-06-13T09:40:58Z</time>
      </trkpt>
      <trkpt lat="45.67443" lon="6.01324">
        <ele>1336.1939697266</ele>
        <time>2010-06-13T09:40:59Z</time>
      </trkpt>
      <trkpt lat="45.6742" lon="6.01323">
        <ele>1337.2600097656</ele>
        <time>2010-06-13T09:41:04Z</time>
      </trkpt>
      <trkpt lat="45.67403" lon="6.01315">
        <ele>1337.6600341797</ele>
        <time>2010-06-13T09:41:08Z</time>
      </trkpt>
      <trkpt lat="45.67384" lon="6.0129">
        <ele>1337.3620605469</ele>
        <time>2010-06-13T09:41:13Z</time>
      </trkpt>
      <trkpt lat="45.67379" lon="6.01281">
        <ele>1336.6240234375</ele>
        <time>2010-06-13T09:41:14Z</time>
      </trkpt>
      <trkpt lat="45.67352" lon="6.01249">
        <ele>1331.626953125</ele>
        <time>2010-06-13T09:41:18Z</time>
      </trkpt>
      <trkpt lat="45.67327" lon="6.01215">
        <ele>1327.3129882812</ele>
        <time>2010-06-13T09:41:22Z</time>
      </trkpt>
      <trkpt lat="45.67319" lon="6.01195">
        <ele>1328.1259765625</ele>
        <time>2010-06-13T09:41:24Z</time>
      </trkpt>
      <trkpt lat="45.67306" lon="6.01186">
        <ele>1329.9439697266</ele>
        <time>2010-06-13T09:41:27Z</time>
      </trkpt>
      <trkpt lat="45.67294" lon="6.01197">
        <ele>1329.1929931641</ele>
        <time>2010-06-13T09:41:29Z</time>
      </trkpt>
      <trkpt lat="45.67279" lon="6.01209">
        <ele>1327.8609619141</ele>
        <time>2010-06-13T09:41:31Z</time>
      </trkpt>
      <trkpt lat="45.67243" lon="6.01245">
        <ele>1324.2220458984</ele>
        <time>2010-06-13T09:41:36Z</time>
      </trkpt>
      <trkpt lat="45.67228" lon="6.01257">
        <ele>1325.3759765625</ele>
        <time>2010-06-13T09:41:39Z</time>
      </trkpt>
      <trkpt lat="45.67225" lon="6.01274">
        <ele>1328.8609619141</ele>
        <time>2010-06-13T09:41:43Z</time>
      </trkpt>
      <trkpt lat="45.67226" lon="6.01288">
        <ele>1329.1340332031</ele>
        <time>2010-06-13T09:41:46Z</time>
      </trkpt>
      <trkpt lat="45.67213" lon="6.0132">
        <ele>1328.8559570312</ele>
        <time>2010-06-13T09:41:52Z</time>
      </trkpt>
      <trkpt lat="45.67208" lon="6.01341">
        <ele>1330.4699707031</ele>
        <time>2010-06-13T09:41:57Z</time>
      </trkpt>
      <trkpt lat="45.67205" lon="6.01346">
        <ele>1330.3620605469</ele>
        <time>2010-06-13T09:41:58Z</time>
      </trkpt>
      <trkpt lat="45.67198" lon="6.01353">
        <ele>1329.2629394531</ele>
        <time>2010-06-13T09:42:00Z</time>
      </trkpt>
      <trkpt lat="45.67184" lon="6.01387">
        <ele>1327.2779541016</ele>
        <time>2010-06-13T09:42:05Z</time>
      </trkpt>
      <trkpt lat="45.67177" lon="6.01413">
        <ele>1328.6710205078</ele>
        <time>2010-06-13T09:42:10Z</time>
      </trkpt>
      <trkpt lat="45.67168" lon="6.01445">
        <ele>1328.4790039062</ele>
        <time>2010-06-13T09:42:16Z</time>
      </trkpt>
      <trkpt lat="45.67162" lon="6.01465">
        <ele>1331.1760253906</ele>
        <time>2010-06-13T09:42:22Z</time>
      </trkpt>
      <trkpt lat="45.67159" lon="6.01471">
        <ele>1331.4200439453</ele>
        <time>2010-06-13T09:42:24Z</time>
      </trkpt>
      <trkpt lat="45.67149" lon="6.01477">
        <ele>1331.4000244141</ele>
        <time>2010-06-13T09:42:28Z</time>
      </trkpt>
      <trkpt lat="45.67135" lon="6.01468">
        <ele>1331.0660400391</ele>
        <time>2010-06-13T09:42:33Z</time>
      </trkpt>
      <trkpt lat="45.6712" lon="6.01465">
        <ele>1329.3540039062</ele>
        <time>2010-06-13T09:42:37Z</time>
      </trkpt>
      <trkpt lat="45.6711" lon="6.01453">
        <ele>1329.7889404297</ele>
        <time>2010-06-13T09:42:41Z</time>
      </trkpt>
      <trkpt lat="45.67096" lon="6.01431">
        <ele>1332.3289794922</ele>
        <time>2010-06-13T09:42:48Z</time>
      </trkpt>
      <trkpt lat="45.67085" lon="6.01408">
        <ele>1332.9129638672</ele>
        <time>2010-06-13T09:42:54Z</time>
      </trkpt>
      <trkpt lat="45.67081" lon="6.01398">
        <ele>1332.4510498047</ele>
        <time>2010-06-13T09:42:56Z</time>
      </trkpt>
      <trkpt lat="45.67073" lon="6.01383">
        <ele>1332.0649414062</ele>
        <time>2010-06-13T09:42:59Z</time>
      </trkpt>
      <trkpt lat="45.67066" lon="6.0135">
        <ele>1332.3570556641</ele>
        <time>2010-06-13T09:43:05Z</time>
      </trkpt>
      <trkpt lat="45.67059" lon="6.01328">
        <ele>1333.0260009766</ele>
        <time>2010-06-13T09:43:10Z</time>
      </trkpt>
      <trkpt lat="45.67042" lon="6.01299">
        <ele>1334.5959472656</ele>
        <time>2010-06-13T09:43:18Z</time>
      </trkpt>
      <trkpt lat="45.67029" lon="6.01278">
        <ele>1334.4079589844</ele>
        <time>2010-06-13T09:43:24Z</time>
      </trkpt>
      <trkpt lat="45.67007" lon="6.01251">
        <ele>1333.8909912109</ele>
        <time>2010-06-13T09:43:32Z</time>
      </trkpt>
      <trkpt lat="45.66994" lon="6.01239">
        <ele>1334.2020263672</ele>
        <time>2010-06-13T09:43:36Z</time>
      </trkpt>
      <trkpt lat="45.66975" lon="6.01229">
        <ele>1334.6290283203</ele>
        <time>2010-06-13T09:43:41Z</time>
      </trkpt>
      <trkpt lat="45.66967" lon="6.01226">
        <ele>1336.4630126953</ele>
        <time>2010-06-13T09:43:45Z</time>
      </trkpt>
      <trkpt lat="45.66965" lon="6.01225">
        <ele>1337.1610107422</ele>
        <time>2010-06-13T09:43:46Z</time>
      </trkpt>
      <trkpt lat="45.66949" lon="6.01209">
        <ele>1337.1400146484</ele>
        <time>2010-06-13T09:43:53Z</time>
      </trkpt>
      <trkpt lat="45.66939" lon="6.01192">
        <ele>1337.8139648438</ele>
        <time>2010-06-13T09:43:58Z</time>
      </trkpt>
      <trkpt lat="45.66936" lon="6.0117">
        <ele>1337.1240234375</ele>
        <time>2010-06-13T09:44:02Z</time>
      </trkpt>
      <trkpt lat="45.66933" lon="6.01138">
        <ele>1336.9780273438</ele>
        <time>2010-06-13T09:44:08Z</time>
      </trkpt>
      <trkpt lat="45.66922" lon="6.0112">
        <ele>1337.0860595703</ele>
        <time>2010-06-13T09:44:13Z</time>
      </trkpt>
      <trkpt lat="45.66914" lon="6.01113">
        <ele>1337.4389648438</ele>
        <time>2010-06-13T09:44:16Z</time>
      </trkpt>
      <trkpt lat="45.66909" lon="6.01104">
        <ele>1337.2969970703</ele>
        <time>2010-06-13T09:44:18Z</time>
      </trkpt>
      <trkpt lat="45.66891" lon="6.01083">
        <ele>1336.9969482422</ele>
        <time>2010-06-13T09:44:24Z</time>
      </trkpt>
      <trkpt lat="45.66882" lon="6.01076">
        <ele>1339.8969726562</ele>
        <time>2010-06-13T09:44:29Z</time>
      </trkpt>
      <trkpt lat="45.66872" lon="6.0107">
        <ele>1342.3809814453</ele>
        <time>2010-06-13T09:44:36Z</time>
      </trkpt>
      <trkpt lat="45.66861" lon="6.01064">
        <ele>1342.375</ele>
        <time>2010-06-13T09:44:42Z</time>
      </trkpt>
      <trkpt lat="45.66848" lon="6.01071">
        <ele>1343.2030029297</ele>
        <time>2010-06-13T09:44:49Z</time>
      </trkpt>
      <trkpt lat="45.66838" lon="6.01081">
        <ele>1344.4090576172</ele>
        <time>2010-06-13T09:44:55Z</time>
      </trkpt>
      <trkpt lat="45.66829" lon="6.01089">
        <ele>1346.3239746094</ele>
        <time>2010-06-13T09:45:01Z</time>
      </trkpt>
      <trkpt lat="45.66823" lon="6.01093">
        <ele>1346.5310058594</ele>
        <time>2010-06-13T09:45:04Z</time>
      </trkpt>
      <trkpt lat="45.66808" lon="6.01087">
        <ele>1347.5129394531</ele>
        <time>2010-06-13T09:45:11Z</time>
      </trkpt>
      <trkpt lat="45.66791" lon="6.01077">
        <ele>1346.2559814453</ele>
        <time>2010-06-13T09:45:17Z</time>
      </trkpt>
      <trkpt lat="45.66788" lon="6.01074">
        <ele>1345.9370117188</ele>
        <time>2010-06-13T09:45:18Z</time>
      </trkpt>
      <trkpt lat="45.66779" lon="6.01059">
        <ele>1344.6020507812</ele>
        <time>2010-06-13T09:45:21Z</time>
      </trkpt>
      <trkpt lat="45.66762" lon="6.01026">
        <ele>1343.2779541016</ele>
        <time>2010-06-13T09:45:26Z</time>
      </trkpt>
      <trkpt lat="45.66746" lon="6.01006">
        <ele>1343.5729980469</ele>
        <time>2010-06-13T09:45:30Z</time>
      </trkpt>
      <trkpt lat="45.66721" lon="6.00996">
        <ele>1343.3859863281</ele>
        <time>2010-06-13T09:45:35Z</time>
      </trkpt>
      <trkpt lat="45.66711" lon="6.00995">
        <ele>1343.7569580078</ele>
        <time>2010-06-13T09:45:37Z</time>
      </trkpt>
      <trkpt lat="45.66694" lon="6.00997">
        <ele>1344.0009765625</ele>
        <time>2010-06-13T09:45:41Z</time>
      </trkpt>
      <trkpt lat="45.66675" lon="6.00981">
        <ele>1342.5389404297</ele>
        <time>2010-06-13T09:45:45Z</time>
      </trkpt>
      <trkpt lat="45.66651" lon="6.00968">
        <ele>1342.2779541016</ele>
        <time>2010-06-13T09:45:50Z</time>
      </trkpt>
      <trkpt lat="45.66643" lon="6.00964">
        <ele>1342.8879394531</ele>
        <time>2010-06-13T09:45:52Z</time>
      </trkpt>
      <trkpt lat="45.66624" lon="6.00954">
        <ele>1345.1479492188</ele>
        <time>2010-06-13T09:45:59Z</time>
      </trkpt>
      <trkpt lat="45.66607" lon="6.00948">
        <ele>1346.0789794922</ele>
        <time>2010-06-13T09:46:05Z</time>
      </trkpt>
      <trkpt lat="45.66594" lon="6.00948">
        <ele>1347.4770507812</ele>
        <time>2010-06-13T09:46:10Z</time>
      </trkpt>
      <trkpt lat="45.66574" lon="6.00958">
        <ele>1346.4429931641</ele>
        <time>2010-06-13T09:46:15Z</time>
      </trkpt>
      <trkpt lat="45.66557" lon="6.00971">
        <ele>1347.5319824219</ele>
        <time>2010-06-13T09:46:21Z</time>
      </trkpt>
      <trkpt lat="45.66554" lon="6.00974">
        <ele>1347.7860107422</ele>
        <time>2010-06-13T09:46:22Z</time>
      </trkpt>
      <trkpt lat="45.6654" lon="6.00964">
        <ele>1347.6300048828</ele>
        <time>2010-06-13T09:46:27Z</time>
      </trkpt>
      <trkpt lat="45.66534" lon="6.00956">
        <ele>1347.7430419922</ele>
        <time>2010-06-13T09:46:29Z</time>
      </trkpt>
      <trkpt lat="45.66526" lon="6.00941">
        <ele>1347.2559814453</ele>
        <time>2010-06-13T09:46:32Z</time>
      </trkpt>
      <trkpt lat="45.66508" lon="6.00918">
        <ele>1346.3260498047</ele>
        <time>2010-06-13T09:46:37Z</time>
      </trkpt>
      <trkpt lat="45.66497" lon="6.00902">
        <ele>1346.3380126953</ele>
        <time>2010-06-13T09:46:40Z</time>
      </trkpt>
      <trkpt lat="45.66488" lon="6.00885">
        <ele>1345.7530517578</ele>
        <time>2010-06-13T09:46:43Z</time>
      </trkpt>
      <trkpt lat="45.66467" lon="6.00852">
        <ele>1343.5450439453</ele>
        <time>2010-06-13T09:46:48Z</time>
      </trkpt>
      <trkpt lat="45.66453" lon="6.00847">
        <ele>1343.0849609375</ele>
        <time>2010-06-13T09:46:51Z</time>
      </trkpt>
      <trkpt lat="45.66445" lon="6.00852">
        <ele>1343.6879882812</ele>
        <time>2010-06-13T09:46:53Z</time>
      </trkpt>
      <trkpt lat="45.66431" lon="6.00862">
        <ele>1345.9870605469</ele>
        <time>2010-06-13T09:46:58Z</time>
      </trkpt>
      <trkpt lat="45.66421" lon="6.00866">
        <ele>1346.9799804688</ele>
        <time>2010-06-13T09:47:02Z</time>
      </trkpt>
      <trkpt lat="45.66407" lon="6.00861">
        <ele>1347.4930419922</ele>
        <time>2010-06-13T09:47:08Z</time>
      </trkpt>
      <trkpt lat="45.66401" lon="6.00855">
        <ele>1347.2779541016</ele>
        <time>2010-06-13T09:47:10Z</time>
      </trkpt>
      <trkpt lat="45.66394" lon="6.00832">
        <ele>1346.9659423828</ele>
        <time>2010-06-13T09:47:14Z</time>
      </trkpt>
      <trkpt lat="45.66383" lon="6.00794">
        <ele>1346.625</ele>
        <time>2010-06-13T09:47:21Z</time>
      </trkpt>
      <trkpt lat="45.66373" lon="6.00767">
        <ele>1345.5560302734</ele>
        <time>2010-06-13T09:47:25Z</time>
      </trkpt>
      <trkpt lat="45.66348" lon="6.00728">
        <ele>1343.541015625</ele>
        <time>2010-06-13T09:47:31Z</time>
      </trkpt>
      <trkpt lat="45.66326" lon="6.00701">
        <ele>1342.666015625</ele>
        <time>2010-06-13T09:47:36Z</time>
      </trkpt>
      <trkpt lat="45.66318" lon="6.00681">
        <ele>1341.5699462891</ele>
        <time>2010-06-13T09:47:39Z</time>
      </trkpt>
      <trkpt lat="45.66311" lon="6.00638">
        <ele>1339.5529785156</ele>
        <time>2010-06-13T09:47:44Z</time>
      </trkpt>
      <trkpt lat="45.66302" lon="6.0061">
        <ele>1340.5520019531</ele>
        <time>2010-06-13T09:47:49Z</time>
      </trkpt>
      <trkpt lat="45.66299" lon="6.00604">
        <ele>1340.751953125</ele>
        <time>2010-06-13T09:47:50Z</time>
      </trkpt>
      <trkpt lat="45.66294" lon="6.00574">
        <ele>1339.6369628906</ele>
        <time>2010-06-13T09:47:55Z</time>
      </trkpt>
      <trkpt lat="45.66296" lon="6.00562">
        <ele>1339.5729980469</ele>
        <time>2010-06-13T09:47:57Z</time>
      </trkpt>
      <trkpt lat="45.66286" lon="6.00533">
        <ele>1338.4530029297</ele>
        <time>2010-06-13T09:48:02Z</time>
      </trkpt>
      <trkpt lat="45.66284" lon="6.00519">
        <ele>1337.8029785156</ele>
        <time>2010-06-13T09:48:04Z</time>
      </trkpt>
      <trkpt lat="45.66283" lon="6.00505">
        <ele>1336.8409423828</ele>
        <time>2010-06-13T09:48:06Z</time>
      </trkpt>
      <trkpt lat="45.66271" lon="6.00478">
        <ele>1337.0949707031</ele>
        <time>2010-06-13T09:48:11Z</time>
      </trkpt>
      <trkpt lat="45.66263" lon="6.00475">
        <ele>1337.5500488281</ele>
        <time>2010-06-13T09:48:13Z</time>
      </trkpt>
      <trkpt lat="45.66256" lon="6.00475">
        <ele>1337.9289550781</ele>
        <time>2010-06-13T09:48:15Z</time>
      </trkpt>
      <trkpt lat="45.66242" lon="6.00458">
        <ele>1337.4069824219</ele>
        <time>2010-06-13T09:48:19Z</time>
      </trkpt>
      <trkpt lat="45.66236" lon="6.00441">
        <ele>1336.1710205078</ele>
        <time>2010-06-13T09:48:21Z</time>
      </trkpt>
      <trkpt lat="45.66216" lon="6.00416">
        <ele>1333.8199462891</ele>
        <time>2010-06-13T09:48:25Z</time>
      </trkpt>
      <trkpt lat="45.66211" lon="6.00412">
        <ele>1333.5439453125</ele>
        <time>2010-06-13T09:48:26Z</time>
      </trkpt>
      <trkpt lat="45.6619" lon="6.00394">
        <ele>1333.3719482422</ele>
        <time>2010-06-13T09:48:30Z</time>
      </trkpt>
      <trkpt lat="45.66164" lon="6.00387">
        <ele>1332.2110595703</ele>
        <time>2010-06-13T09:48:34Z</time>
      </trkpt>
      <trkpt lat="45.66147" lon="6.00398">
        <ele>1331.3680419922</ele>
        <time>2010-06-13T09:48:37Z</time>
      </trkpt>
      <trkpt lat="45.66121" lon="6.0041">
        <ele>1333.3929443359</ele>
        <time>2010-06-13T09:48:43Z</time>
      </trkpt>
      <trkpt lat="45.66108" lon="6.00412">
        <ele>1335.1510009766</ele>
        <time>2010-06-13T09:48:47Z</time>
      </trkpt>
      <trkpt lat="45.66095" lon="6.00415">
        <ele>1336.9379882812</ele>
        <time>2010-06-13T09:48:52Z</time>
      </trkpt>
      <trkpt lat="45.6608" lon="6.00426">
        <ele>1336.8869628906</ele>
        <time>2010-06-13T09:48:57Z</time>
      </trkpt>
      <trkpt lat="45.66065" lon="6.00438">
        <ele>1336.8759765625</ele>
        <time>2010-06-13T09:49:02Z</time>
      </trkpt>
      <trkpt lat="45.66054" lon="6.00455">
        <ele>1337.9270019531</ele>
        <time>2010-06-13T09:49:07Z</time>
      </trkpt>
      <trkpt lat="45.66045" lon="6.00465">
        <ele>1338.1400146484</ele>
        <time>2010-06-13T09:49:10Z</time>
      </trkpt>
      <trkpt lat="45.66025" lon="6.00466">
        <ele>1338.1939697266</ele>
        <time>2010-06-13T09:49:16Z</time>
      </trkpt>
      <trkpt lat="45.66022" lon="6.00463">
        <ele>1338.1970214844</ele>
        <time>2010-06-13T09:49:17Z</time>
      </trkpt>
      <trkpt lat="45.65998" lon="6.00431">
        <ele>1337.9100341797</ele>
        <time>2010-06-13T09:49:25Z</time>
      </trkpt>
      <trkpt lat="45.65979" lon="6.00409">
        <ele>1338.2390136719</ele>
        <time>2010-06-13T09:49:32Z</time>
      </trkpt>
      <trkpt lat="45.65966" lon="6.00395">
        <ele>1339.4300537109</ele>
        <time>2010-06-13T09:49:37Z</time>
      </trkpt>
      <trkpt lat="45.65954" lon="6.0038">
        <ele>1338.4520263672</ele>
        <time>2010-06-13T09:49:41Z</time>
      </trkpt>
      <trkpt lat="45.6594" lon="6.00358">
        <ele>1337.1979980469</ele>
        <time>2010-06-13T09:49:45Z</time>
      </trkpt>
      <trkpt lat="45.65934" lon="6.00345">
        <ele>1336.5699462891</ele>
        <time>2010-06-13T09:49:47Z</time>
      </trkpt>
      <trkpt lat="45.65924" lon="6.00317">
        <ele>1335.7600097656</ele>
        <time>2010-06-13T09:49:51Z</time>
      </trkpt>
      <trkpt lat="45.65905" lon="6.00298">
        <ele>1334.6409912109</ele>
        <time>2010-06-13T09:49:55Z</time>
      </trkpt>
      <trkpt lat="45.65889" lon="6.00277">
        <ele>1332.5860595703</ele>
        <time>2010-06-13T09:49:58Z</time>
      </trkpt>
      <trkpt lat="45.6588" lon="6.00262">
        <ele>1331.8489990234</ele>
        <time>2010-06-13T09:50:00Z</time>
      </trkpt>
      <trkpt lat="45.65853" lon="6.00242">
        <ele>1331.1070556641</ele>
        <time>2010-06-13T09:50:05Z</time>
      </trkpt>
      <trkpt lat="45.65839" lon="6.00236">
        <ele>1329.8549804688</ele>
        <time>2010-06-13T09:50:07Z</time>
      </trkpt>
      <trkpt lat="45.65819" lon="6.00214">
        <ele>1329.3630371094</ele>
        <time>2010-06-13T09:50:11Z</time>
      </trkpt>
      <trkpt lat="45.65792" lon="6.00171">
        <ele>1329.748046875</ele>
        <time>2010-06-13T09:50:18Z</time>
      </trkpt>
      <trkpt lat="45.65779" lon="6.00156">
        <ele>1329.7020263672</ele>
        <time>2010-06-13T09:50:21Z</time>
      </trkpt>
      <trkpt lat="45.6576" lon="6.00129">
        <ele>1329.0760498047</ele>
        <time>2010-06-13T09:50:26Z</time>
      </trkpt>
      <trkpt lat="45.65757" lon="6.0012">
        <ele>1328.1970214844</ele>
        <time>2010-06-13T09:50:27Z</time>
      </trkpt>
      <trkpt lat="45.65738" lon="6.0006">
        <ele>1323.9680175781</ele>
        <time>2010-06-13T09:50:33Z</time>
      </trkpt>
      <trkpt lat="45.65732" lon="6.00038">
        <ele>1323.0550537109</ele>
        <time>2010-06-13T09:50:35Z</time>
      </trkpt>
      <trkpt lat="45.65719" lon="6.00005">
        <ele>1320.5090332031</ele>
        <time>2010-06-13T09:50:39Z</time>
      </trkpt>
      <trkpt lat="45.65726" lon="5.99995">
        <ele>1321.2659912109</ele>
        <time>2010-06-13T09:50:42Z</time>
      </trkpt>
      <trkpt lat="45.65733" lon="6.00001">
        <ele>1320.9680175781</ele>
        <time>2010-06-13T09:50:44Z</time>
      </trkpt>
      <trkpt lat="45.65759" lon="6.00035">
        <ele>1319.6429443359</ele>
        <time>2010-06-13T09:50:52Z</time>
      </trkpt>
      <trkpt lat="45.65776" lon="6.00062">
        <ele>1320.4780273438</ele>
        <time>2010-06-13T09:50:58Z</time>
      </trkpt>
      <trkpt lat="45.65794" lon="6.0009">
        <ele>1321.20703125</ele>
        <time>2010-06-13T09:51:05Z</time>
      </trkpt>
      <trkpt lat="45.65815" lon="6.0011">
        <ele>1322.5279541016</ele>
        <time>2010-06-13T09:51:13Z</time>
      </trkpt>
      <trkpt lat="45.65831" lon="6.00122">
        <ele>1323.4799804688</ele>
        <time>2010-06-13T09:51:19Z</time>
      </trkpt>
      <trkpt lat="45.65842" lon="6.00114">
        <ele>1324.4639892578</ele>
        <time>2010-06-13T09:51:24Z</time>
      </trkpt>
      <trkpt lat="45.6585" lon="6.00101">
        <ele>1324.33203125</ele>
        <time>2010-06-13T09:51:29Z</time>
      </trkpt>
      <trkpt lat="45.65864" lon="6.00082">
        <ele>1325.6479492188</ele>
        <time>2010-06-13T09:51:37Z</time>
      </trkpt>
      <trkpt lat="45.65876" lon="6.00069">
        <ele>1326.2989501953</ele>
        <time>2010-06-13T09:51:44Z</time>
      </trkpt>
      <trkpt lat="45.65878" lon="6.00069">
        <ele>1326.4420166016</ele>
        <time>2010-06-13T09:51:45Z</time>
      </trkpt>
      <trkpt lat="45.65884" lon="6.00072">
        <ele>1326.7209472656</ele>
        <time>2010-06-13T09:51:49Z</time>
      </trkpt>
      <trkpt lat="45.65902" lon="6.00093">
        <ele>1327.6099853516</ele>
        <time>2010-06-13T09:51:58Z</time>
      </trkpt>
      <trkpt lat="45.65909" lon="6.00099">
        <ele>1329.2049560547</ele>
        <time>2010-06-13T09:52:04Z</time>
      </trkpt>
      <trkpt lat="45.65915" lon="6.00103">
        <ele>1329.6340332031</ele>
        <time>2010-06-13T09:52:08Z</time>
      </trkpt>
      <trkpt lat="45.6592" lon="6.00103">
        <ele>1330.5400390625</ele>
        <time>2010-06-13T09:52:12Z</time>
      </trkpt>
      <trkpt lat="45.65934" lon="6.00105">
        <ele>1330.5169677734</ele>
        <time>2010-06-13T09:52:20Z</time>
      </trkpt>
      <trkpt lat="45.65947" lon="6.0011">
        <ele>1330.3580322266</ele>
        <time>2010-06-13T09:52:26Z</time>
      </trkpt>
      <trkpt lat="45.65968" lon="6.00117">
        <ele>1331.3299560547</ele>
        <time>2010-06-13T09:52:35Z</time>
      </trkpt>
      <trkpt lat="45.65979" lon="6.00119">
        <ele>1332.5500488281</ele>
        <time>2010-06-13T09:52:42Z</time>
      </trkpt>
      <trkpt lat="45.65987" lon="6.0012">
        <ele>1334.5240478516</ele>
        <time>2010-06-13T09:52:49Z</time>
      </trkpt>
      <trkpt lat="45.65992" lon="6.00125">
        <ele>1334.8549804688</ele>
        <time>2010-06-13T09:53:09Z</time>
      </trkpt>
      <trkpt lat="45.65997" lon="6.00127">
        <ele>1334.9610595703</ele>
        <time>2010-06-13T09:53:20Z</time>
      </trkpt>
      <trkpt lat="45.65998" lon="6.00127">
        <ele>1334.7559814453</ele>
        <time>2010-06-13T09:53:23Z</time>
      </trkpt>
      <trkpt lat="45.66" lon="6.00126">
        <ele>1334.2640380859</ele>
        <time>2010-06-13T09:53:25Z</time>
      </trkpt>
      <trkpt lat="45.66003" lon="6.00131">
        <ele>1336.4189453125</ele>
        <time>2010-06-13T10:04:41Z</time>
      </trkpt>
      <trkpt lat="45.66006" lon="6.00131">
        <ele>1336.3299560547</ele>
        <time>2010-06-13T10:04:42Z</time>
      </trkpt>
      <trkpt lat="45.66021" lon="6.00136">
        <ele>1335.9029541016</ele>
        <time>2010-06-13T10:04:47Z</time>
      </trkpt>
      <trkpt lat="45.6604" lon="6.00139">
        <ele>1337.0780029297</ele>
        <time>2010-06-13T10:04:54Z</time>
      </trkpt>
      <trkpt lat="45.66053" lon="6.00147">
        <ele>1337.9689941406</ele>
        <time>2010-06-13T10:04:59Z</time>
      </trkpt>
      <trkpt lat="45.66063" lon="6.00163">
        <ele>1339.0119628906</ele>
        <time>2010-06-13T10:05:04Z</time>
      </trkpt>
      <trkpt lat="45.66066" lon="6.00177">
        <ele>1339.1409912109</ele>
        <time>2010-06-13T10:05:08Z</time>
      </trkpt>
      <trkpt lat="45.66073" lon="6.002">
        <ele>1338.16796875</ele>
        <time>2010-06-13T10:05:13Z</time>
      </trkpt>
      <trkpt lat="45.66075" lon="6.00207">
        <ele>1337.6479492188</ele>
        <time>2010-06-13T10:05:14Z</time>
      </trkpt>
      <trkpt lat="45.66088" lon="6.00226">
        <ele>1336.3129882812</ele>
        <time>2010-06-13T10:05:18Z</time>
      </trkpt>
      <trkpt lat="45.66098" lon="6.00222">
        <ele>1336.4560546875</ele>
        <time>2010-06-13T10:05:21Z</time>
      </trkpt>
      <trkpt lat="45.66102" lon="6.00217">
        <ele>1337.3709716797</ele>
        <time>2010-06-13T10:05:23Z</time>
      </trkpt>
      <trkpt lat="45.66107" lon="6.0021">
        <ele>1339.4279785156</ele>
        <time>2010-06-13T10:05:26Z</time>
      </trkpt>
      <trkpt lat="45.6611" lon="6.002">
        <ele>1341.2609863281</ele>
        <time>2010-06-13T10:05:30Z</time>
      </trkpt>
      <trkpt lat="45.66114" lon="6.00176">
        <ele>1341.5009765625</ele>
        <time>2010-06-13T10:05:37Z</time>
      </trkpt>
      <trkpt lat="45.66119" lon="6.00153">
        <ele>1340.0069580078</ele>
        <time>2010-06-13T10:05:42Z</time>
      </trkpt>
      <trkpt lat="45.66119" lon="6.00125">
        <ele>1339.8620605469</ele>
        <time>2010-06-13T10:05:47Z</time>
      </trkpt>
      <trkpt lat="45.66122" lon="6.00105">
        <ele>1340.251953125</ele>
        <time>2010-06-13T10:05:50Z</time>
      </trkpt>
      <trkpt lat="45.66133" lon="6.00082">
        <ele>1340.7230224609</ele>
        <time>2010-06-13T10:05:55Z</time>
      </trkpt>
      <trkpt lat="45.66136" lon="6.0007">
        <ele>1341.2829589844</ele>
        <time>2010-06-13T10:05:58Z</time>
      </trkpt>
      <trkpt lat="45.66137" lon="6.00048">
        <ele>1340.6789550781</ele>
        <time>2010-06-13T10:06:02Z</time>
      </trkpt>
      <trkpt lat="45.66137" lon="6.00035">
        <ele>1339.9310302734</ele>
        <time>2010-06-13T10:06:04Z</time>
      </trkpt>
      <trkpt lat="45.66134" lon="6.00012">
        <ele>1339.3139648438</ele>
        <time>2010-06-13T10:06:07Z</time>
      </trkpt>
      <trkpt lat="45.66133" lon="5.99977">
        <ele>1339.8840332031</ele>
        <time>2010-06-13T10:06:13Z</time>
      </trkpt>
      <trkpt lat="45.66131" lon="5.99971">
        <ele>1339.7659912109</ele>
        <time>2010-06-13T10:06:14Z</time>
      </trkpt>
      <trkpt lat="45.66116" lon="5.99941">
        <ele>1337.2390136719</ele>
        <time>2010-06-13T10:06:18Z</time>
      </trkpt>
      <trkpt lat="45.66106" lon="5.99926">
        <ele>1335.3480224609</ele>
        <time>2010-06-13T10:06:20Z</time>
      </trkpt>
      <trkpt lat="45.66095" lon="5.99894">
        <ele>1334.7220458984</ele>
        <time>2010-06-13T10:06:24Z</time>
      </trkpt>
      <trkpt lat="45.66092" lon="5.99868">
        <ele>1337.3399658203</ele>
        <time>2010-06-13T10:06:28Z</time>
      </trkpt>
      <trkpt lat="45.66082" lon="5.99845">
        <ele>1337.5889892578</ele>
        <time>2010-06-13T10:06:32Z</time>
      </trkpt>
      <trkpt lat="45.6608" lon="5.99822">
        <ele>1338.3060302734</ele>
        <time>2010-06-13T10:06:36Z</time>
      </trkpt>
      <trkpt lat="45.66079" lon="5.99806">
        <ele>1338.751953125</ele>
        <time>2010-06-13T10:06:39Z</time>
      </trkpt>
      <trkpt lat="45.66071" lon="5.99749">
        <ele>1335.6929931641</ele>
        <time>2010-06-13T10:06:47Z</time>
      </trkpt>
      <trkpt lat="45.66061" lon="5.99705">
        <ele>1332.5909423828</ele>
        <time>2010-06-13T10:06:52Z</time>
      </trkpt>
      <trkpt lat="45.66054" lon="5.99677">
        <ele>1333.2120361328</ele>
        <time>2010-06-13T10:06:56Z</time>
      </trkpt>
      <trkpt lat="45.66057" lon="5.99649">
        <ele>1331.6529541016</ele>
        <time>2010-06-13T10:07:00Z</time>
      </trkpt>
      <trkpt lat="45.66068" lon="5.99651">
        <ele>1330.7550048828</ele>
        <time>2010-06-13T10:07:03Z</time>
      </trkpt>
      <trkpt lat="45.66076" lon="5.99656">
        <ele>1330.8189697266</ele>
        <time>2010-06-13T10:07:05Z</time>
      </trkpt>
      <trkpt lat="45.66095" lon="5.9967">
        <ele>1332.7979736328</ele>
        <time>2010-06-13T10:07:12Z</time>
      </trkpt>
      <trkpt lat="45.6611" lon="5.99669">
        <ele>1334.1090087891</ele>
        <time>2010-06-13T10:07:17Z</time>
      </trkpt>
      <trkpt lat="45.66133" lon="5.99665">
        <ele>1333.4599609375</ele>
        <time>2010-06-13T10:07:23Z</time>
      </trkpt>
      <trkpt lat="45.66146" lon="5.99664">
        <ele>1335.0460205078</ele>
        <time>2010-06-13T10:07:29Z</time>
      </trkpt>
      <trkpt lat="45.66157" lon="5.9966">
        <ele>1336.0810546875</ele>
        <time>2010-06-13T10:07:34Z</time>
      </trkpt>
      <trkpt lat="45.66169" lon="5.99654">
        <ele>1337.7629394531</ele>
        <time>2010-06-13T10:07:39Z</time>
      </trkpt>
      <trkpt lat="45.66177" lon="5.99658">
        <ele>1339.4539794922</ele>
        <time>2010-06-13T10:07:44Z</time>
      </trkpt>
      <trkpt lat="45.6618" lon="5.99661">
        <ele>1339.8010253906</ele>
        <time>2010-06-13T10:07:46Z</time>
      </trkpt>
      <trkpt lat="45.66187" lon="5.99675">
        <ele>1339.8189697266</ele>
        <time>2010-06-13T10:07:51Z</time>
      </trkpt>
      <trkpt lat="45.66198" lon="5.99699">
        <ele>1340.16796875</ele>
        <time>2010-06-13T10:07:58Z</time>
      </trkpt>
      <trkpt lat="45.66209" lon="5.99705">
        <ele>1340.2080078125</ele>
        <time>2010-06-13T10:08:02Z</time>
      </trkpt>
      <trkpt lat="45.66223" lon="5.99714">
        <ele>1341.3010253906</ele>
        <time>2010-06-13T10:08:08Z</time>
      </trkpt>
      <trkpt lat="45.66234" lon="5.99714">
        <ele>1342.5169677734</ele>
        <time>2010-06-13T10:08:13Z</time>
      </trkpt>
      <trkpt lat="45.6625" lon="5.99721">
        <ele>1343.6519775391</ele>
        <time>2010-06-13T10:08:19Z</time>
      </trkpt>
      <trkpt lat="45.66263" lon="5.99737">
        <ele>1343.5810546875</ele>
        <time>2010-06-13T10:08:24Z</time>
      </trkpt>
      <trkpt lat="45.66285" lon="5.9976">
        <ele>1343.2230224609</ele>
        <time>2010-06-13T10:08:31Z</time>
      </trkpt>
      <trkpt lat="45.66296" lon="5.99756">
        <ele>1343.2769775391</ele>
        <time>2010-06-13T10:08:35Z</time>
      </trkpt>
      <trkpt lat="45.66301" lon="5.99754">
        <ele>1343.0889892578</ele>
        <time>2010-06-13T10:08:37Z</time>
      </trkpt>
      <trkpt lat="45.66314" lon="5.99743">
        <ele>1342.1899414062</ele>
        <time>2010-06-13T10:08:42Z</time>
      </trkpt>
      <trkpt lat="45.66322" lon="5.9973">
        <ele>1343.3220214844</ele>
        <time>2010-06-13T10:08:47Z</time>
      </trkpt>
      <trkpt lat="45.66331" lon="5.99717">
        <ele>1343.5379638672</ele>
        <time>2010-06-13T10:08:53Z</time>
      </trkpt>
      <trkpt lat="45.6634" lon="5.99702">
        <ele>1343.6190185547</ele>
        <time>2010-06-13T10:08:58Z</time>
      </trkpt>
      <trkpt lat="45.66346" lon="5.99681">
        <ele>1342.8029785156</ele>
        <time>2010-06-13T10:09:02Z</time>
      </trkpt>
      <trkpt lat="45.66344" lon="5.99671">
        <ele>1342.1689453125</ele>
        <time>2010-06-13T10:09:04Z</time>
      </trkpt>
      <trkpt lat="45.66326" lon="5.99648">
        <ele>1341.3780517578</ele>
        <time>2010-06-13T10:09:09Z</time>
      </trkpt>
      <trkpt lat="45.66312" lon="5.99637">
        <ele>1342.6059570312</ele>
        <time>2010-06-13T10:09:13Z</time>
      </trkpt>
      <trkpt lat="45.66303" lon="5.99627">
        <ele>1343.1820068359</ele>
        <time>2010-06-13T10:09:16Z</time>
      </trkpt>
      <trkpt lat="45.66286" lon="5.9962">
        <ele>1342.8270263672</ele>
        <time>2010-06-13T10:09:21Z</time>
      </trkpt>
      <trkpt lat="45.66281" lon="5.99606">
        <ele>1343.2760009766</ele>
        <time>2010-06-13T10:09:25Z</time>
      </trkpt>
      <trkpt lat="45.66273" lon="5.99589">
        <ele>1343.9329833984</ele>
        <time>2010-06-13T10:09:30Z</time>
      </trkpt>
      <trkpt lat="45.66272" lon="5.99586">
        <ele>1344.0560302734</ele>
        <time>2010-06-13T10:09:31Z</time>
      </trkpt>
      <trkpt lat="45.66267" lon="5.9957">
        <ele>1344.1469726562</ele>
        <time>2010-06-13T10:09:35Z</time>
      </trkpt>
      <trkpt lat="45.66267" lon="5.9954">
        <ele>1343.1209716797</ele>
        <time>2010-06-13T10:09:40Z</time>
      </trkpt>
      <trkpt lat="45.66267" lon="5.99528">
        <ele>1342.6710205078</ele>
        <time>2010-06-13T10:09:42Z</time>
      </trkpt>
      <trkpt lat="45.6627" lon="5.9951">
        <ele>1342.1910400391</ele>
        <time>2010-06-13T10:09:45Z</time>
      </trkpt>
      <trkpt lat="45.6627" lon="5.99487">
        <ele>1340.4759521484</ele>
        <time>2010-06-13T10:09:49Z</time>
      </trkpt>
      <trkpt lat="45.66258" lon="5.99481">
        <ele>1339.0460205078</ele>
        <time>2010-06-13T10:09:53Z</time>
      </trkpt>
      <trkpt lat="45.66246" lon="5.99475">
        <ele>1340.0729980469</ele>
        <time>2010-06-13T10:09:58Z</time>
      </trkpt>
      <trkpt lat="45.66234" lon="5.99462">
        <ele>1340.6719970703</ele>
        <time>2010-06-13T10:10:03Z</time>
      </trkpt>
      <trkpt lat="45.6623" lon="5.99446">
        <ele>1340.5119628906</ele>
        <time>2010-06-13T10:10:07Z</time>
      </trkpt>
      <trkpt lat="45.66231" lon="5.99424">
        <ele>1339.6009521484</ele>
        <time>2010-06-13T10:10:11Z</time>
      </trkpt>
      <trkpt lat="45.66226" lon="5.99401">
        <ele>1337.8170166016</ele>
        <time>2010-06-13T10:10:14Z</time>
      </trkpt>
      <trkpt lat="45.66211" lon="5.9938">
        <ele>1335.8959960938</ele>
        <time>2010-06-13T10:10:18Z</time>
      </trkpt>
      <trkpt lat="45.66206" lon="5.99376">
        <ele>1335.8959960938</ele>
        <time>2010-06-13T10:10:19Z</time>
      </trkpt>
      <trkpt lat="45.66198" lon="5.99371">
        <ele>1337.8430175781</ele>
        <time>2010-06-13T10:10:23Z</time>
      </trkpt>
      <trkpt lat="45.66196" lon="5.99371">
        <ele>1338.6309814453</ele>
        <time>2010-06-13T10:10:24Z</time>
      </trkpt>
      <trkpt lat="45.66193" lon="5.99372">
        <ele>1339.4460449219</ele>
        <time>2010-06-13T10:10:26Z</time>
      </trkpt>
      <trkpt lat="45.66181" lon="5.99369">
        <ele>1339.5849609375</ele>
        <time>2010-06-13T10:10:31Z</time>
      </trkpt>
      <trkpt lat="45.66169" lon="5.99359">
        <ele>1339.5660400391</ele>
        <time>2010-06-13T10:10:36Z</time>
      </trkpt>
      <trkpt lat="45.66155" lon="5.99347">
        <ele>1339.3380126953</ele>
        <time>2010-06-13T10:10:41Z</time>
      </trkpt>
      <trkpt lat="45.66151" lon="5.9934">
        <ele>1339.4670410156</ele>
        <time>2010-06-13T10:10:43Z</time>
      </trkpt>
      <trkpt lat="45.66146" lon="5.9932">
        <ele>1339.7320556641</ele>
        <time>2010-06-13T10:10:47Z</time>
      </trkpt>
      <trkpt lat="45.66135" lon="5.99303">
        <ele>1339.6030273438</ele>
        <time>2010-06-13T10:10:51Z</time>
      </trkpt>
      <trkpt lat="45.66102" lon="5.99286">
        <ele>1337.7950439453</ele>
        <time>2010-06-13T10:10:58Z</time>
      </trkpt>
      <trkpt lat="45.66069" lon="5.99278">
        <ele>1338.1280517578</ele>
        <time>2010-06-13T10:11:04Z</time>
      </trkpt>
      <trkpt lat="45.6604" lon="5.9928">
        <ele>1337.1569824219</ele>
        <time>2010-06-13T10:11:09Z</time>
      </trkpt>
      <trkpt lat="45.6602" lon="5.99278">
        <ele>1335.1970214844</ele>
        <time>2010-06-13T10:11:12Z</time>
      </trkpt>
      <trkpt lat="45.65987" lon="5.99257">
        <ele>1331.5899658203</ele>
        <time>2010-06-13T10:11:17Z</time>
      </trkpt>
      <trkpt lat="45.65969" lon="5.9926">
        <ele>1330.5880126953</ele>
        <time>2010-06-13T10:11:20Z</time>
      </trkpt>
      <trkpt lat="45.65963" lon="5.99258">
        <ele>1330.0770263672</ele>
        <time>2010-06-13T10:11:21Z</time>
      </trkpt>
      <trkpt lat="45.6595" lon="5.99255">
        <ele>1329.6610107422</ele>
        <time>2010-06-13T10:11:23Z</time>
      </trkpt>
      <trkpt lat="45.65931" lon="5.99244">
        <ele>1329.9370117188</ele>
        <time>2010-06-13T10:11:27Z</time>
      </trkpt>
      <trkpt lat="45.65918" lon="5.9923">
        <ele>1330.1510009766</ele>
        <time>2010-06-13T10:11:34Z</time>
      </trkpt>
      <trkpt lat="45.65907" lon="5.99222">
        <ele>1330.2170410156</ele>
        <time>2010-06-13T10:11:39Z</time>
      </trkpt>
      <trkpt lat="45.65897" lon="5.9921">
        <ele>1330.0539550781</ele>
        <time>2010-06-13T10:11:43Z</time>
      </trkpt>
      <trkpt lat="45.65887" lon="5.99196">
        <ele>1330.5340576172</ele>
        <time>2010-06-13T10:11:49Z</time>
      </trkpt>
      <trkpt lat="45.65885" lon="5.99193">
        <ele>1330.7810058594</ele>
        <time>2010-06-13T10:11:51Z</time>
      </trkpt>
      <trkpt lat="45.65881" lon="5.99186">
        <ele>1331.1130371094</ele>
        <time>2010-06-13T10:11:58Z</time>
      </trkpt>
      <trkpt lat="45.65881" lon="5.99186">
        <ele>1331.1440429688</ele>
        <time>2010-06-13T10:11:59Z</time>
      </trkpt>
      <trkpt lat="45.65878" lon="5.99182">
        <ele>1331.0999755859</ele>
        <time>2010-06-13T10:12:04Z</time>
      </trkpt>
      <trkpt lat="45.65878" lon="5.99181">
        <ele>1331.1550292969</ele>
        <time>2010-06-13T10:12:06Z</time>
      </trkpt>
      <trkpt lat="45.65875" lon="5.99178">
        <ele>1331.125</ele>
        <time>2010-06-13T10:14:09Z</time>
      </trkpt>
      <trkpt lat="45.65873" lon="5.99176">
        <ele>1331.0939941406</ele>
        <time>2010-06-13T10:14:10Z</time>
      </trkpt>
      <trkpt lat="45.65869" lon="5.9916">
        <ele>1331.4119873047</ele>
        <time>2010-06-13T10:14:14Z</time>
      </trkpt>
      <trkpt lat="45.65866" lon="5.99153">
        <ele>1331.9420166016</ele>
        <time>2010-06-13T10:14:16Z</time>
      </trkpt>
      <trkpt lat="45.65864" lon="5.99149">
        <ele>1332.3740234375</ele>
        <time>2010-06-13T10:14:17Z</time>
      </trkpt>
      <trkpt lat="45.6586" lon="5.99135">
        <ele>1332.7760009766</ele>
        <time>2010-06-13T10:14:20Z</time>
      </trkpt>
      <trkpt lat="45.65851" lon="5.99106">
        <ele>1332.8979492188</ele>
        <time>2010-06-13T10:14:25Z</time>
      </trkpt>
      <trkpt lat="45.65849" lon="5.99101">
        <ele>1332.5760498047</ele>
        <time>2010-06-13T10:14:26Z</time>
      </trkpt>
      <trkpt lat="45.6584" lon="5.99065">
        <ele>1331.7430419922</ele>
        <time>2010-06-13T10:14:31Z</time>
      </trkpt>
      <trkpt lat="45.65838" lon="5.99061">
        <ele>1331.7449951172</ele>
        <time>2010-06-13T10:14:32Z</time>
      </trkpt>
      <trkpt lat="45.65825" lon="5.99042">
        <ele>1333.79296875</ele>
        <time>2010-06-13T10:14:38Z</time>
      </trkpt>
      <trkpt lat="45.6582" lon="5.99018">
        <ele>1334.2829589844</ele>
        <time>2010-06-13T10:14:43Z</time>
      </trkpt>
      <trkpt lat="45.65818" lon="5.98995">
        <ele>1334.4300537109</ele>
        <time>2010-06-13T10:14:47Z</time>
      </trkpt>
      <trkpt lat="45.65803" lon="5.98937">
        <ele>1335.0649414062</ele>
        <time>2010-06-13T10:14:56Z</time>
      </trkpt>
      <trkpt lat="45.65797" lon="5.98897">
        <ele>1336.5030517578</ele>
        <time>2010-06-13T10:15:03Z</time>
      </trkpt>
      <trkpt lat="45.65789" lon="5.98855">
        <ele>1333.8039550781</ele>
        <time>2010-06-13T10:15:08Z</time>
      </trkpt>
      <trkpt lat="45.65786" lon="5.98826">
        <ele>1331.9720458984</ele>
        <time>2010-06-13T10:15:11Z</time>
      </trkpt>
      <trkpt lat="45.65783" lon="5.98777">
        <ele>1332.3649902344</ele>
        <time>2010-06-13T10:15:16Z</time>
      </trkpt>
      <trkpt lat="45.65779" lon="5.98751">
        <ele>1333.9289550781</ele>
        <time>2010-06-13T10:15:19Z</time>
      </trkpt>
      <trkpt lat="45.65775" lon="5.98691">
        <ele>1334.4809570312</ele>
        <time>2010-06-13T10:15:26Z</time>
      </trkpt>
      <trkpt lat="45.65767" lon="5.98643">
        <ele>1332.4329833984</ele>
        <time>2010-06-13T10:15:31Z</time>
      </trkpt>
      <trkpt lat="45.65769" lon="5.98608">
        <ele>1333.1159667969</ele>
        <time>2010-06-13T10:15:35Z</time>
      </trkpt>
      <trkpt lat="45.6577" lon="5.98578">
        <ele>1333.6839599609</ele>
        <time>2010-06-13T10:15:39Z</time>
      </trkpt>
      <trkpt lat="45.65768" lon="5.98571">
        <ele>1333.7700195312</ele>
        <time>2010-06-13T10:15:40Z</time>
      </trkpt>
      <trkpt lat="45.65757" lon="5.98549">
        <ele>1336.1719970703</ele>
        <time>2010-06-13T10:15:45Z</time>
      </trkpt>
      <trkpt lat="45.65763" lon="5.98544">
        <ele>1337.2299804688</ele>
        <time>2010-06-13T10:15:49Z</time>
      </trkpt>
      <trkpt lat="45.65784" lon="5.98561">
        <ele>1336.6529541016</ele>
        <time>2010-06-13T10:15:55Z</time>
      </trkpt>
      <trkpt lat="45.65808" lon="5.98575">
        <ele>1336.2590332031</ele>
        <time>2010-06-13T10:16:00Z</time>
      </trkpt>
      <trkpt lat="45.65844" lon="5.98578">
        <ele>1335.9429931641</ele>
        <time>2010-06-13T10:16:06Z</time>
      </trkpt>
      <trkpt lat="45.65877" lon="5.98577">
        <ele>1336.04296875</ele>
        <time>2010-06-13T10:16:12Z</time>
      </trkpt>
      <trkpt lat="45.65916" lon="5.98579">
        <ele>1338.1500244141</ele>
        <time>2010-06-13T10:16:20Z</time>
      </trkpt>
      <trkpt lat="45.65928" lon="5.98581">
        <ele>1339.3879394531</ele>
        <time>2010-06-13T10:16:23Z</time>
      </trkpt>
      <trkpt lat="45.65958" lon="5.98589">
        <ele>1342.1540527344</ele>
        <time>2010-06-13T10:16:31Z</time>
      </trkpt>
      <trkpt lat="45.65986" lon="5.98597">
        <ele>1342.2359619141</ele>
        <time>2010-06-13T10:16:38Z</time>
      </trkpt>
      <trkpt lat="45.66" lon="5.98609">
        <ele>1342.6280517578</ele>
        <time>2010-06-13T10:16:42Z</time>
      </trkpt>
      <trkpt lat="45.66012" lon="5.98625">
        <ele>1343.3270263672</ele>
        <time>2010-06-13T10:16:46Z</time>
      </trkpt>
      <trkpt lat="45.6604" lon="5.98655">
        <ele>1343.5090332031</ele>
        <time>2010-06-13T10:16:54Z</time>
      </trkpt>
      <trkpt lat="45.66059" lon="5.9866">
        <ele>1343.4809570312</ele>
        <time>2010-06-13T10:16:58Z</time>
      </trkpt>
      <trkpt lat="45.66066" lon="5.98653">
        <ele>1343.4289550781</ele>
        <time>2010-06-13T10:17:00Z</time>
      </trkpt>
      <trkpt lat="45.66085" lon="5.98632">
        <ele>1344.7939453125</ele>
        <time>2010-06-13T10:17:06Z</time>
      </trkpt>
      <trkpt lat="45.661" lon="5.98636">
        <ele>1345.5939941406</ele>
        <time>2010-06-13T10:17:10Z</time>
      </trkpt>
      <trkpt lat="45.66114" lon="5.98646">
        <ele>1346.1209716797</ele>
        <time>2010-06-13T10:17:14Z</time>
      </trkpt>
      <trkpt lat="45.6613" lon="5.9865">
        <ele>1347.0529785156</ele>
        <time>2010-06-13T10:17:18Z</time>
      </trkpt>
      <trkpt lat="45.66153" lon="5.98649">
        <ele>1347.2650146484</ele>
        <time>2010-06-13T10:17:23Z</time>
      </trkpt>
      <trkpt lat="45.66167" lon="5.98637">
        <ele>1346.8330078125</ele>
        <time>2010-06-13T10:17:27Z</time>
      </trkpt>
      <trkpt lat="45.66169" lon="5.98632">
        <ele>1346.8289794922</ele>
        <time>2010-06-13T10:17:28Z</time>
      </trkpt>
      <trkpt lat="45.66184" lon="5.98586">
        <ele>1345.7690429688</ele>
        <time>2010-06-13T10:17:35Z</time>
      </trkpt>
      <trkpt lat="45.66196" lon="5.98533">
        <ele>1344.54296875</ele>
        <time>2010-06-13T10:17:41Z</time>
      </trkpt>
      <trkpt lat="45.66202" lon="5.98515">
        <ele>1344.6330566406</ele>
        <time>2010-06-13T10:17:43Z</time>
      </trkpt>
      <trkpt lat="45.6622" lon="5.98489">
        <ele>1344.6770019531</ele>
        <time>2010-06-13T10:17:47Z</time>
      </trkpt>
      <trkpt lat="45.66259" lon="5.98461">
        <ele>1343.2950439453</ele>
        <time>2010-06-13T10:17:53Z</time>
      </trkpt>
      <trkpt lat="45.66266" lon="5.98457">
        <ele>1342.5649414062</ele>
        <time>2010-06-13T10:17:54Z</time>
      </trkpt>
      <trkpt lat="45.66296" lon="5.98454">
        <ele>1340.8499755859</ele>
        <time>2010-06-13T10:17:58Z</time>
      </trkpt>
      <trkpt lat="45.66301" lon="5.98453">
        <ele>1341.1419677734</ele>
        <time>2010-06-13T10:17:59Z</time>
      </trkpt>
      <trkpt lat="45.66311" lon="5.98447">
        <ele>1343.8690185547</ele>
        <time>2010-06-13T10:18:02Z</time>
      </trkpt>
      <trkpt lat="45.66303" lon="5.98432">
        <ele>1345.4990234375</ele>
        <time>2010-06-13T10:18:06Z</time>
      </trkpt>
      <trkpt lat="45.66296" lon="5.98401">
        <ele>1345.7320556641</ele>
        <time>2010-06-13T10:18:12Z</time>
      </trkpt>
      <trkpt lat="45.66293" lon="5.9839">
        <ele>1345.3690185547</ele>
        <time>2010-06-13T10:18:14Z</time>
      </trkpt>
      <trkpt lat="45.6629" lon="5.98378">
        <ele>1344.6970214844</ele>
        <time>2010-06-13T10:18:16Z</time>
      </trkpt>
      <trkpt lat="45.66281" lon="5.9835">
        <ele>1343.4350585938</ele>
        <time>2010-06-13T10:18:21Z</time>
      </trkpt>
      <trkpt lat="45.66279" lon="5.98337">
        <ele>1344.3819580078</ele>
        <time>2010-06-13T10:18:24Z</time>
      </trkpt>
      <trkpt lat="45.66288" lon="5.98324">
        <ele>1345.7590332031</ele>
        <time>2010-06-13T10:18:29Z</time>
      </trkpt>
      <trkpt lat="45.66293" lon="5.98326">
        <ele>1345.7960205078</ele>
        <time>2010-06-13T10:18:31Z</time>
      </trkpt>
      <trkpt lat="45.663" lon="5.98327">
        <ele>1345.5489501953</ele>
        <time>2010-06-13T10:18:33Z</time>
      </trkpt>
      <trkpt lat="45.66307" lon="5.9832">
        <ele>1345.3039550781</ele>
        <time>2010-06-13T10:18:36Z</time>
      </trkpt>
      <trkpt lat="45.66306" lon="5.983">
        <ele>1345.2850341797</ele>
        <time>2010-06-13T10:18:41Z</time>
      </trkpt>
      <trkpt lat="45.66302" lon="5.98287">
        <ele>1345.5389404297</ele>
        <time>2010-06-13T10:18:45Z</time>
      </trkpt>
      <trkpt lat="45.66297" lon="5.98274">
        <ele>1346.1710205078</ele>
        <time>2010-06-13T10:18:49Z</time>
      </trkpt>
      <trkpt lat="45.66286" lon="5.98251">
        <ele>1345.8029785156</ele>
        <time>2010-06-13T10:18:54Z</time>
      </trkpt>
      <trkpt lat="45.66278" lon="5.98234">
        <ele>1345.9770507812</ele>
        <time>2010-06-13T10:18:58Z</time>
      </trkpt>
      <trkpt lat="45.66267" lon="5.98209">
        <ele>1346.7189941406</ele>
        <time>2010-06-13T10:19:03Z</time>
      </trkpt>
      <trkpt lat="45.66261" lon="5.98182">
        <ele>1346.9940185547</ele>
        <time>2010-06-13T10:19:08Z</time>
      </trkpt>
      <trkpt lat="45.66266" lon="5.98162">
        <ele>1346.3570556641</ele>
        <time>2010-06-13T10:19:12Z</time>
      </trkpt>
      <trkpt lat="45.6627" lon="5.98161">
        <ele>1345.9899902344</ele>
        <time>2010-06-13T10:19:13Z</time>
      </trkpt>
      <trkpt lat="45.6628" lon="5.98159">
        <ele>1345.1309814453</ele>
        <time>2010-06-13T10:19:16Z</time>
      </trkpt>
      <trkpt lat="45.66298" lon="5.98169">
        <ele>1344.8299560547</ele>
        <time>2010-06-13T10:19:21Z</time>
      </trkpt>
      <trkpt lat="45.66311" lon="5.98174">
        <ele>1344.8070068359</ele>
        <time>2010-06-13T10:19:24Z</time>
      </trkpt>
      <trkpt lat="45.66315" lon="5.98175">
        <ele>1345.0069580078</ele>
        <time>2010-06-13T10:19:25Z</time>
      </trkpt>
      <trkpt lat="45.66338" lon="5.98193">
        <ele>1345.6209716797</ele>
        <time>2010-06-13T10:19:31Z</time>
      </trkpt>
      <trkpt lat="45.66355" lon="5.98199">
        <ele>1344.9859619141</ele>
        <time>2010-06-13T10:19:35Z</time>
      </trkpt>
      <trkpt lat="45.66368" lon="5.98191">
        <ele>1345.2409667969</ele>
        <time>2010-06-13T10:19:39Z</time>
      </trkpt>
      <trkpt lat="45.66372" lon="5.98183">
        <ele>1346.2409667969</ele>
        <time>2010-06-13T10:19:42Z</time>
      </trkpt>
      <trkpt lat="45.66371" lon="5.98173">
        <ele>1347.1579589844</ele>
        <time>2010-06-13T10:19:45Z</time>
      </trkpt>
      <trkpt lat="45.66371" lon="5.98153">
        <ele>1348.4090576172</ele>
        <time>2010-06-13T10:19:51Z</time>
      </trkpt>
      <trkpt lat="45.66377" lon="5.98134">
        <ele>1349.8780517578</ele>
        <time>2010-06-13T10:19:57Z</time>
      </trkpt>
      <trkpt lat="45.66387" lon="5.98106">
        <ele>1350.3189697266</ele>
        <time>2010-06-13T10:20:06Z</time>
      </trkpt>
      <trkpt lat="45.66388" lon="5.98103">
        <ele>1350.4110107422</ele>
        <time>2010-06-13T10:20:07Z</time>
      </trkpt>
      <trkpt lat="45.66382" lon="5.98083">
        <ele>1350.1090087891</ele>
        <time>2010-06-13T10:20:12Z</time>
      </trkpt>
      <trkpt lat="45.66366" lon="5.98061">
        <ele>1351.1999511719</ele>
        <time>2010-06-13T10:20:19Z</time>
      </trkpt>
      <trkpt lat="45.66351" lon="5.98055">
        <ele>1351.8399658203</ele>
        <time>2010-06-13T10:20:24Z</time>
      </trkpt>
      <trkpt lat="45.66336" lon="5.98055">
        <ele>1352.0129394531</ele>
        <time>2010-06-13T10:20:28Z</time>
      </trkpt>
      <trkpt lat="45.66321" lon="5.98054">
        <ele>1350.7600097656</ele>
        <time>2010-06-13T10:20:31Z</time>
      </trkpt>
      <trkpt lat="45.66311" lon="5.98049">
        <ele>1350.0720214844</ele>
        <time>2010-06-13T10:20:33Z</time>
      </trkpt>
      <trkpt lat="45.66302" lon="5.98044">
        <ele>1350.4350585938</ele>
        <time>2010-06-13T10:20:35Z</time>
      </trkpt>
      <trkpt lat="45.66284" lon="5.98032">
        <ele>1353.0150146484</ele>
        <time>2010-06-13T10:20:41Z</time>
      </trkpt>
      <trkpt lat="45.66272" lon="5.98027">
        <ele>1354.0319824219</ele>
        <time>2010-06-13T10:20:45Z</time>
      </trkpt>
      <trkpt lat="45.66258" lon="5.98028">
        <ele>1355.20703125</ele>
        <time>2010-06-13T10:20:50Z</time>
      </trkpt>
      <trkpt lat="45.66246" lon="5.98037">
        <ele>1357.3229980469</ele>
        <time>2010-06-13T10:20:55Z</time>
      </trkpt>
      <trkpt lat="45.66236" lon="5.9804">
        <ele>1357.5689697266</ele>
        <time>2010-06-13T10:20:58Z</time>
      </trkpt>
      <trkpt lat="45.66217" lon="5.98042">
        <ele>1356.2740478516</ele>
        <time>2010-06-13T10:21:02Z</time>
      </trkpt>
      <trkpt lat="45.66204" lon="5.98038">
        <ele>1356.2110595703</ele>
        <time>2010-06-13T10:21:05Z</time>
      </trkpt>
      <trkpt lat="45.66181" lon="5.98024">
        <ele>1357.4870605469</ele>
        <time>2010-06-13T10:21:11Z</time>
      </trkpt>
      <trkpt lat="45.66152" lon="5.98006">
        <ele>1359.0520019531</ele>
        <time>2010-06-13T10:21:19Z</time>
      </trkpt>
      <trkpt lat="45.6614" lon="5.97984">
        <ele>1360.376953125</ele>
        <time>2010-06-13T10:21:25Z</time>
      </trkpt>
      <trkpt lat="45.66132" lon="5.97953">
        <ele>1360.9310302734</ele>
        <time>2010-06-13T10:21:31Z</time>
      </trkpt>
      <trkpt lat="45.66121" lon="5.97931">
        <ele>1360.9630126953</ele>
        <time>2010-06-13T10:21:36Z</time>
      </trkpt>
      <trkpt lat="45.66109" lon="5.97919">
        <ele>1362.1190185547</ele>
        <time>2010-06-13T10:21:41Z</time>
      </trkpt>
      <trkpt lat="45.66097" lon="5.9792">
        <ele>1362.6779785156</ele>
        <time>2010-06-13T10:21:46Z</time>
      </trkpt>
      <trkpt lat="45.6608" lon="5.97921">
        <ele>1361.5520019531</ele>
        <time>2010-06-13T10:21:50Z</time>
      </trkpt>
      <trkpt lat="45.66064" lon="5.97917">
        <ele>1360.7469482422</ele>
        <time>2010-06-13T10:21:54Z</time>
      </trkpt>
      <trkpt lat="45.6605" lon="5.97918">
        <ele>1361.0059814453</ele>
        <time>2010-06-13T10:21:57Z</time>
      </trkpt>
      <trkpt lat="45.66027" lon="5.97933">
        <ele>1359.9659423828</ele>
        <time>2010-06-13T10:22:02Z</time>
      </trkpt>
      <trkpt lat="45.66008" lon="5.9795">
        <ele>1359.9780273438</ele>
        <time>2010-06-13T10:22:06Z</time>
      </trkpt>
      <trkpt lat="45.65995" lon="5.97972">
        <ele>1360.2889404297</ele>
        <time>2010-06-13T10:22:10Z</time>
      </trkpt>
      <trkpt lat="45.65977" lon="5.98019">
        <ele>1356.7309570312</ele>
        <time>2010-06-13T10:22:15Z</time>
      </trkpt>
      <trkpt lat="45.65956" lon="5.9806">
        <ele>1352.7860107422</ele>
        <time>2010-06-13T10:22:19Z</time>
      </trkpt>
      <trkpt lat="45.65925" lon="5.98076">
        <ele>1350.0350341797</ele>
        <time>2010-06-13T10:22:23Z</time>
      </trkpt>
      <trkpt lat="45.65902" lon="5.98067">
        <ele>1348.6920166016</ele>
        <time>2010-06-13T10:22:26Z</time>
      </trkpt>
      <trkpt lat="45.6589" lon="5.98057">
        <ele>1349.7989501953</ele>
        <time>2010-06-13T10:22:28Z</time>
      </trkpt>
      <trkpt lat="45.65879" lon="5.98047">
        <ele>1350.6109619141</ele>
        <time>2010-06-13T10:22:30Z</time>
      </trkpt>
      <trkpt lat="45.65867" lon="5.98041">
        <ele>1352.0860595703</ele>
        <time>2010-06-13T10:22:32Z</time>
      </trkpt>
      <trkpt lat="45.65857" lon="5.98037">
        <ele>1352.7740478516</ele>
        <time>2010-06-13T10:22:34Z</time>
      </trkpt>
      <trkpt lat="45.65831" lon="5.98028">
        <ele>1354.2950439453</ele>
        <time>2010-06-13T10:22:39Z</time>
      </trkpt>
      <trkpt lat="45.65808" lon="5.98037">
        <ele>1352.5329589844</ele>
        <time>2010-06-13T10:22:43Z</time>
      </trkpt>
      <trkpt lat="45.65804" lon="5.98044">
        <ele>1351.9969482422</ele>
        <time>2010-06-13T10:22:44Z</time>
      </trkpt>
      <trkpt lat="45.65792" lon="5.98062">
        <ele>1350.2989501953</ele>
        <time>2010-06-13T10:22:46Z</time>
      </trkpt>
      <trkpt lat="45.65759" lon="5.98088">
        <ele>1346.2349853516</ele>
        <time>2010-06-13T10:22:50Z</time>
      </trkpt>
      <trkpt lat="45.65751" lon="5.98092">
        <ele>1345.9499511719</ele>
        <time>2010-06-13T10:22:51Z</time>
      </trkpt>
      <trkpt lat="45.65736" lon="5.98102">
        <ele>1346.6120605469</ele>
        <time>2010-06-13T10:22:53Z</time>
      </trkpt>
      <trkpt lat="45.65717" lon="5.98122">
        <ele>1346.9759521484</ele>
        <time>2010-06-13T10:22:56Z</time>
      </trkpt>
      <trkpt lat="45.65698" lon="5.98143">
        <ele>1346.8649902344</ele>
        <time>2010-06-13T10:22:59Z</time>
      </trkpt>
      <trkpt lat="45.65666" lon="5.98158">
        <ele>1344.6770019531</ele>
        <time>2010-06-13T10:23:03Z</time>
      </trkpt>
      <trkpt lat="45.65658" lon="5.98158">
        <ele>1344.4019775391</ele>
        <time>2010-06-13T10:23:04Z</time>
      </trkpt>
      <trkpt lat="45.65643" lon="5.98157">
        <ele>1344.5560302734</ele>
        <time>2010-06-13T10:23:06Z</time>
      </trkpt>
      <trkpt lat="45.65596" lon="5.98152">
        <ele>1346.1610107422</ele>
        <time>2010-06-13T10:23:14Z</time>
      </trkpt>
      <trkpt lat="45.65562" lon="5.98147">
        <ele>1346.9709472656</ele>
        <time>2010-06-13T10:23:21Z</time>
      </trkpt>
      <trkpt lat="45.65553" lon="5.98147">
        <ele>1347.0269775391</ele>
        <time>2010-06-13T10:23:23Z</time>
      </trkpt>
      <trkpt lat="45.65529" lon="5.98146">
        <ele>1347.1650390625</ele>
        <time>2010-06-13T10:23:28Z</time>
      </trkpt>
      <trkpt lat="45.65498" lon="5.98135">
        <ele>1348.6419677734</ele>
        <time>2010-06-13T10:23:35Z</time>
      </trkpt>
      <trkpt lat="45.65477" lon="5.98125">
        <ele>1349.7270507812</ele>
        <time>2010-06-13T10:23:40Z</time>
      </trkpt>
      <trkpt lat="45.65472" lon="5.98123">
        <ele>1350.0939941406</ele>
        <time>2010-06-13T10:23:41Z</time>
      </trkpt>
      <trkpt lat="45.65442" lon="5.98114">
        <ele>1351.5200195312</ele>
        <time>2010-06-13T10:23:48Z</time>
      </trkpt>
      <trkpt lat="45.65413" lon="5.98104">
        <ele>1351.9580078125</ele>
        <time>2010-06-13T10:23:54Z</time>
      </trkpt>
      <trkpt lat="45.6539" lon="5.98116">
        <ele>1352.1639404297</ele>
        <time>2010-06-13T10:23:59Z</time>
      </trkpt>
      <trkpt lat="45.65388" lon="5.98133">
        <ele>1352.9739990234</ele>
        <time>2010-06-13T10:24:02Z</time>
      </trkpt>
      <trkpt lat="45.65387" lon="5.98141">
        <ele>1353.0419921875</ele>
        <time>2010-06-13T10:24:04Z</time>
      </trkpt>
      <trkpt lat="45.65377" lon="5.98144">
        <ele>1351.7760009766</ele>
        <time>2010-06-13T10:24:07Z</time>
      </trkpt>
      <trkpt lat="45.65359" lon="5.98157">
        <ele>1349.2490234375</ele>
        <time>2010-06-13T10:24:11Z</time>
      </trkpt>
      <trkpt lat="45.65347" lon="5.98169">
        <ele>1347.4630126953</ele>
        <time>2010-06-13T10:24:13Z</time>
      </trkpt>
      <trkpt lat="45.65302" lon="5.98201">
        <ele>1343.6409912109</ele>
        <time>2010-06-13T10:24:19Z</time>
      </trkpt>
      <trkpt lat="45.65255" lon="5.98223">
        <ele>1337.9489746094</ele>
        <time>2010-06-13T10:24:24Z</time>
      </trkpt>
      <trkpt lat="45.65247" lon="5.98227">
        <ele>1337.3449707031</ele>
        <time>2010-06-13T10:24:25Z</time>
      </trkpt>
      <trkpt lat="45.65234" lon="5.9826">
        <ele>1335.9169921875</ele>
        <time>2010-06-13T10:24:29Z</time>
      </trkpt>
      <trkpt lat="45.65239" lon="5.98282">
        <ele>1334.2719726562</ele>
        <time>2010-06-13T10:24:31Z</time>
      </trkpt>
      <trkpt lat="45.65244" lon="5.98294">
        <ele>1333.0699462891</ele>
        <time>2010-06-13T10:24:32Z</time>
      </trkpt>
      <trkpt lat="45.65253" lon="5.98349">
        <ele>1329.8620605469</ele>
        <time>2010-06-13T10:24:36Z</time>
      </trkpt>
      <trkpt lat="45.65263" lon="5.98392">
        <ele>1326.2860107422</ele>
        <time>2010-06-13T10:24:39Z</time>
      </trkpt>
      <trkpt lat="45.65273" lon="5.98417">
        <ele>1324.1429443359</ele>
        <time>2010-06-13T10:24:41Z</time>
      </trkpt>
      <trkpt lat="45.65271" lon="5.98449">
        <ele>1322.8430175781</ele>
        <time>2010-06-13T10:24:44Z</time>
      </trkpt>
      <trkpt lat="45.65261" lon="5.98472">
        <ele>1321.458984375</ele>
        <time>2010-06-13T10:24:46Z</time>
      </trkpt>
      <trkpt lat="45.65237" lon="5.98519">
        <ele>1314.6739501953</ele>
        <time>2010-06-13T10:24:50Z</time>
      </trkpt>
      <trkpt lat="45.65203" lon="5.98555">
        <ele>1310.2719726562</ele>
        <time>2010-06-13T10:24:54Z</time>
      </trkpt>
      <trkpt lat="45.65194" lon="5.9856">
        <ele>1310.0450439453</ele>
        <time>2010-06-13T10:24:55Z</time>
      </trkpt>
      <trkpt lat="45.65185" lon="5.98563">
        <ele>1310.3310546875</ele>
        <time>2010-06-13T10:24:56Z</time>
      </trkpt>
      <trkpt lat="45.65138" lon="5.98578">
        <ele>1308.9239501953</ele>
        <time>2010-06-13T10:25:01Z</time>
      </trkpt>
      <trkpt lat="45.65129" lon="5.98582">
        <ele>1307.7440185547</ele>
        <time>2010-06-13T10:25:02Z</time>
      </trkpt>
      <trkpt lat="45.65104" lon="5.98584">
        <ele>1306.3370361328</ele>
        <time>2010-06-13T10:25:05Z</time>
      </trkpt>
      <trkpt lat="45.6509" lon="5.98572">
        <ele>1306.7650146484</ele>
        <time>2010-06-13T10:25:07Z</time>
      </trkpt>
      <trkpt lat="45.65077" lon="5.98556">
        <ele>1306.1159667969</ele>
        <time>2010-06-13T10:25:09Z</time>
      </trkpt>
      <trkpt lat="45.65065" lon="5.98537">
        <ele>1304.2700195312</ele>
        <time>2010-06-13T10:25:11Z</time>
      </trkpt>
      <trkpt lat="45.65051" lon="5.98508">
        <ele>1302.4270019531</ele>
        <time>2010-06-13T10:25:14Z</time>
      </trkpt>
      <trkpt lat="45.65033" lon="5.98493">
        <ele>1303.9289550781</ele>
        <time>2010-06-13T10:25:17Z</time>
      </trkpt>
      <trkpt lat="45.65026" lon="5.98494">
        <ele>1304.0670166016</ele>
        <time>2010-06-13T10:25:18Z</time>
      </trkpt>
      <trkpt lat="45.65012" lon="5.98495">
        <ele>1304.0360107422</ele>
        <time>2010-06-13T10:25:20Z</time>
      </trkpt>
      <trkpt lat="45.64988" lon="5.98476">
        <ele>1304.7860107422</ele>
        <time>2010-06-13T10:25:25Z</time>
      </trkpt>
      <trkpt lat="45.64985" lon="5.9847">
        <ele>1305.1180419922</ele>
        <time>2010-06-13T10:25:26Z</time>
      </trkpt>
      <trkpt lat="45.64968" lon="5.98444">
        <ele>1305.3480224609</ele>
        <time>2010-06-13T10:25:31Z</time>
      </trkpt>
      <trkpt lat="45.64954" lon="5.98423">
        <ele>1305.3649902344</ele>
        <time>2010-06-13T10:25:35Z</time>
      </trkpt>
      <trkpt lat="45.64945" lon="5.98397">
        <ele>1306.1030273438</ele>
        <time>2010-06-13T10:25:39Z</time>
      </trkpt>
      <trkpt lat="45.64924" lon="5.98362">
        <ele>1306.6850585938</ele>
        <time>2010-06-13T10:25:45Z</time>
      </trkpt>
      <trkpt lat="45.64912" lon="5.98338">
        <ele>1308.3780517578</ele>
        <time>2010-06-13T10:25:49Z</time>
      </trkpt>
      <trkpt lat="45.64904" lon="5.98313">
        <ele>1309.3430175781</ele>
        <time>2010-06-13T10:25:53Z</time>
      </trkpt>
      <trkpt lat="45.64901" lon="5.98302">
        <ele>1309.9370117188</ele>
        <time>2010-06-13T10:25:55Z</time>
      </trkpt>
      <trkpt lat="45.64893" lon="5.98274">
        <ele>1310.4840087891</ele>
        <time>2010-06-13T10:26:00Z</time>
      </trkpt>
      <trkpt lat="45.64887" lon="5.98266">
        <ele>1310.5610351562</ele>
        <time>2010-06-13T10:26:02Z</time>
      </trkpt>
      <trkpt lat="45.64873" lon="5.98243">
        <ele>1311.2810058594</ele>
        <time>2010-06-13T10:26:08Z</time>
      </trkpt>
      <trkpt lat="45.64859" lon="5.98232">
        <ele>1310.873046875</ele>
        <time>2010-06-13T10:26:13Z</time>
      </trkpt>
      <trkpt lat="45.6485" lon="5.98219">
        <ele>1311.2919921875</ele>
        <time>2010-06-13T10:26:18Z</time>
      </trkpt>
      <trkpt lat="45.64841" lon="5.98221">
        <ele>1311.8549804688</ele>
        <time>2010-06-13T10:26:22Z</time>
      </trkpt>
      <trkpt lat="45.64836" lon="5.9823">
        <ele>1311.9659423828</ele>
        <time>2010-06-13T10:26:24Z</time>
      </trkpt>
      <trkpt lat="45.64821" lon="5.98256">
        <ele>1310.2530517578</ele>
        <time>2010-06-13T10:26:28Z</time>
      </trkpt>
      <trkpt lat="45.64809" lon="5.98251">
        <ele>1308.5999755859</ele>
        <time>2010-06-13T10:26:31Z</time>
      </trkpt>
      <trkpt lat="45.64804" lon="5.98246">
        <ele>1308.0899658203</ele>
        <time>2010-06-13T10:26:32Z</time>
      </trkpt>
      <trkpt lat="45.64773" lon="5.98253">
        <ele>1304.5209960938</ele>
        <time>2010-06-13T10:26:37Z</time>
      </trkpt>
      <trkpt lat="45.64761" lon="5.98265">
        <ele>1303.0600585938</ele>
        <time>2010-06-13T10:26:39Z</time>
      </trkpt>
      <trkpt lat="45.64742" lon="5.98279">
        <ele>1301.83203125</ele>
        <time>2010-06-13T10:26:42Z</time>
      </trkpt>
      <trkpt lat="45.64703" lon="5.98288">
        <ele>1300.2440185547</ele>
        <time>2010-06-13T10:26:47Z</time>
      </trkpt>
      <trkpt lat="45.64686" lon="5.98289">
        <ele>1298.5040283203</ele>
        <time>2010-06-13T10:26:49Z</time>
      </trkpt>
      <trkpt lat="45.64656" lon="5.983">
        <ele>1296.123046875</ele>
        <time>2010-06-13T10:26:53Z</time>
      </trkpt>
      <trkpt lat="45.64619" lon="5.98305">
        <ele>1292.6889648438</ele>
        <time>2010-06-13T10:26:58Z</time>
      </trkpt>
      <trkpt lat="45.64592" lon="5.98309">
        <ele>1291.0520019531</ele>
        <time>2010-06-13T10:27:02Z</time>
      </trkpt>
      <trkpt lat="45.6458" lon="5.98308">
        <ele>1290.2509765625</ele>
        <time>2010-06-13T10:27:04Z</time>
      </trkpt>
      <trkpt lat="45.64574" lon="5.98306">
        <ele>1289.6739501953</ele>
        <time>2010-06-13T10:27:05Z</time>
      </trkpt>
      <trkpt lat="45.64555" lon="5.983">
        <ele>1289.0310058594</ele>
        <time>2010-06-13T10:27:08Z</time>
      </trkpt>
      <trkpt lat="45.64536" lon="5.98296">
        <ele>1288.7559814453</ele>
        <time>2010-06-13T10:27:11Z</time>
      </trkpt>
      <trkpt lat="45.64523" lon="5.98289">
        <ele>1288.6479492188</ele>
        <time>2010-06-13T10:27:14Z</time>
      </trkpt>
      <trkpt lat="45.6452" lon="5.98272">
        <ele>1289.0460205078</ele>
        <time>2010-06-13T10:27:18Z</time>
      </trkpt>
      <trkpt lat="45.64528" lon="5.98239">
        <ele>1290.6760253906</ele>
        <time>2010-06-13T10:27:24Z</time>
      </trkpt>
      <trkpt lat="45.6453" lon="5.98233">
        <ele>1291.0150146484</ele>
        <time>2010-06-13T10:27:25Z</time>
      </trkpt>
      <trkpt lat="45.64537" lon="5.98199">
        <ele>1293.5129394531</ele>
        <time>2010-06-13T10:27:32Z</time>
      </trkpt>
      <trkpt lat="45.6454" lon="5.98192">
        <ele>1294.1610107422</ele>
        <time>2010-06-13T10:27:36Z</time>
      </trkpt>
      <trkpt lat="45.6454" lon="5.98192">
        <ele>1294.3170166016</ele>
        <time>2010-06-13T10:27:37Z</time>
      </trkpt>
      <trkpt lat="45.64541" lon="5.98192">
        <ele>1294.4429931641</ele>
        <time>2010-06-13T10:28:44Z</time>
      </trkpt>
      <trkpt lat="45.64542" lon="5.98191">
        <ele>1294.4639892578</ele>
        <time>2010-06-13T10:28:45Z</time>
      </trkpt>
      <trkpt lat="45.64544" lon="5.98191">
        <ele>1294.6529541016</ele>
        <time>2010-06-13T10:28:50Z</time>
      </trkpt>
      <trkpt lat="45.64544" lon="5.9819">
        <ele>1294.3800048828</ele>
        <time>2010-06-13T10:29:04Z</time>
      </trkpt>
      <trkpt lat="45.64544" lon="5.9819">
        <ele>1294.1999511719</ele>
        <time>2010-06-13T10:29:05Z</time>
      </trkpt>
      <trkpt lat="45.64537" lon="5.98185">
        <ele>1294.5720214844</ele>
        <time>2010-06-13T10:35:53Z</time>
      </trkpt>
      <trkpt lat="45.64536" lon="5.98182">
        <ele>1295.0200195312</ele>
        <time>2010-06-13T10:36:00Z</time>
      </trkpt>
      <trkpt lat="45.64542" lon="5.98169">
        <ele>1295.375</ele>
        <time>2010-06-13T10:37:13Z</time>
      </trkpt>
      <trkpt lat="45.64542" lon="5.98158">
        <ele>1295.4229736328</ele>
        <time>2010-06-13T10:37:16Z</time>
      </trkpt>
      <trkpt lat="45.64543" lon="5.98147">
        <ele>1295.5830078125</ele>
        <time>2010-06-13T10:37:19Z</time>
      </trkpt>
      <trkpt lat="45.64545" lon="5.98139">
        <ele>1296.2099609375</ele>
        <time>2010-06-13T10:37:21Z</time>
      </trkpt>
      <trkpt lat="45.64545" lon="5.98135">
        <ele>1296.4670410156</ele>
        <time>2010-06-13T10:37:22Z</time>
      </trkpt>
      <trkpt lat="45.64553" lon="5.98097">
        <ele>1298.4320068359</ele>
        <time>2010-06-13T10:37:32Z</time>
      </trkpt>
      <trkpt lat="45.64561" lon="5.98083">
        <ele>1299.6429443359</ele>
        <time>2010-06-13T10:37:37Z</time>
      </trkpt>
      <trkpt lat="45.64575" lon="5.98082">
        <ele>1300.7459716797</ele>
        <time>2010-06-13T10:37:42Z</time>
      </trkpt>
      <trkpt lat="45.64585" lon="5.9809">
        <ele>1301.2889404297</ele>
        <time>2010-06-13T10:37:46Z</time>
      </trkpt>
      <trkpt lat="45.64592" lon="5.98104">
        <ele>1302.0539550781</ele>
        <time>2010-06-13T10:37:50Z</time>
      </trkpt>
      <trkpt lat="45.64603" lon="5.98127">
        <ele>1303.2220458984</ele>
        <time>2010-06-13T10:37:57Z</time>
      </trkpt>
      <trkpt lat="45.64618" lon="5.98137">
        <ele>1304.0679931641</ele>
        <time>2010-06-13T10:38:03Z</time>
      </trkpt>
      <trkpt lat="45.64637" lon="5.98142">
        <ele>1304.91796875</ele>
        <time>2010-06-13T10:38:10Z</time>
      </trkpt>
      <trkpt lat="45.64661" lon="5.98142">
        <ele>1306.4460449219</ele>
        <time>2010-06-13T10:38:19Z</time>
      </trkpt>
      <trkpt lat="45.64683" lon="5.98137">
        <ele>1308.5959472656</ele>
        <time>2010-06-13T10:38:27Z</time>
      </trkpt>
      <trkpt lat="45.647" lon="5.98133">
        <ele>1309.4749755859</ele>
        <time>2010-06-13T10:38:33Z</time>
      </trkpt>
      <trkpt lat="45.64719" lon="5.98127">
        <ele>1311.4370117188</ele>
        <time>2010-06-13T10:38:40Z</time>
      </trkpt>
      <trkpt lat="45.64735" lon="5.98122">
        <ele>1312.8609619141</ele>
        <time>2010-06-13T10:38:46Z</time>
      </trkpt>
      <trkpt lat="45.64755" lon="5.98116">
        <ele>1314.4399414062</ele>
        <time>2010-06-13T10:38:53Z</time>
      </trkpt>
      <trkpt lat="45.64768" lon="5.98112">
        <ele>1315.4339599609</ele>
        <time>2010-06-13T10:38:59Z</time>
      </trkpt>
      <trkpt lat="45.64776" lon="5.98112">
        <ele>1315.9119873047</ele>
        <time>2010-06-13T10:39:03Z</time>
      </trkpt>
      <trkpt lat="45.64795" lon="5.98107">
        <ele>1316.9000244141</ele>
        <time>2010-06-13T10:39:11Z</time>
      </trkpt>
      <trkpt lat="45.64809" lon="5.98102">
        <ele>1317.8549804688</ele>
        <time>2010-06-13T10:39:18Z</time>
      </trkpt>
      <trkpt lat="45.64817" lon="5.98095">
        <ele>1318.2370605469</ele>
        <time>2010-06-13T10:39:24Z</time>
      </trkpt>
      <trkpt lat="45.64817" lon="5.98094">
        <ele>1318.3830566406</ele>
        <time>2010-06-13T10:39:25Z</time>
      </trkpt>
      <trkpt lat="45.64822" lon="5.9809">
        <ele>1318.9680175781</ele>
        <time>2010-06-13T10:39:30Z</time>
      </trkpt>
      <trkpt lat="45.64831" lon="5.98092">
        <ele>1319.5269775391</ele>
        <time>2010-06-13T10:39:38Z</time>
      </trkpt>
      <trkpt lat="45.64831" lon="5.98092">
        <ele>1319.8620605469</ele>
        <time>2010-06-13T10:39:39Z</time>
      </trkpt>
      <trkpt lat="45.64841" lon="5.98096">
        <ele>1320.6450195312</ele>
        <time>2010-06-13T10:40:16Z</time>
      </trkpt>
      <trkpt lat="45.64858" lon="5.98102">
        <ele>1321.3900146484</ele>
        <time>2010-06-13T10:40:23Z</time>
      </trkpt>
      <trkpt lat="45.64871" lon="5.98106">
        <ele>1322.7490234375</ele>
        <time>2010-06-13T10:40:28Z</time>
      </trkpt>
      <trkpt lat="45.64886" lon="5.98111">
        <ele>1323.9139404297</ele>
        <time>2010-06-13T10:40:33Z</time>
      </trkpt>
      <trkpt lat="45.64901" lon="5.98111">
        <ele>1324.6960449219</ele>
        <time>2010-06-13T10:40:38Z</time>
      </trkpt>
      <trkpt lat="45.64919" lon="5.98106">
        <ele>1325.8919677734</ele>
        <time>2010-06-13T10:40:44Z</time>
      </trkpt>
      <trkpt lat="45.64942" lon="5.98097">
        <ele>1327.8160400391</ele>
        <time>2010-06-13T10:40:52Z</time>
      </trkpt>
      <trkpt lat="45.64967" lon="5.98079">
        <ele>1329.5109863281</ele>
        <time>2010-06-13T10:41:01Z</time>
      </trkpt>
      <trkpt lat="45.64986" lon="5.98068">
        <ele>1331.25</ele>
        <time>2010-06-13T10:41:08Z</time>
      </trkpt>
      <trkpt lat="45.65009" lon="5.98063">
        <ele>1332.998046875</ele>
        <time>2010-06-13T10:41:15Z</time>
      </trkpt>
      <trkpt lat="45.65034" lon="5.98071">
        <ele>1335.1949462891</ele>
        <time>2010-06-13T10:41:23Z</time>
      </trkpt>
      <trkpt lat="45.65062" lon="5.98079">
        <ele>1336.7950439453</ele>
        <time>2010-06-13T10:41:32Z</time>
      </trkpt>
      <trkpt lat="45.65071" lon="5.98078">
        <ele>1337.6259765625</ele>
        <time>2010-06-13T10:41:36Z</time>
      </trkpt>
      <trkpt lat="45.65085" lon="5.98079">
        <ele>1338.9110107422</ele>
        <time>2010-06-13T10:41:41Z</time>
      </trkpt>
      <trkpt lat="45.65104" lon="5.98074">
        <ele>1340.0059814453</ele>
        <time>2010-06-13T10:41:48Z</time>
      </trkpt>
      <trkpt lat="45.65133" lon="5.98063">
        <ele>1340.1419677734</ele>
        <time>2010-06-13T10:41:58Z</time>
      </trkpt>
      <trkpt lat="45.65139" lon="5.98047">
        <ele>1340.8840332031</ele>
        <time>2010-06-13T10:42:03Z</time>
      </trkpt>
      <trkpt lat="45.65138" lon="5.98027">
        <ele>1343.7409667969</ele>
        <time>2010-06-13T10:42:10Z</time>
      </trkpt>
      <trkpt lat="45.65137" lon="5.9801">
        <ele>1344.3229980469</ele>
        <time>2010-06-13T10:42:18Z</time>
      </trkpt>
      <trkpt lat="45.65136" lon="5.98006">
        <ele>1344.3859863281</ele>
        <time>2010-06-13T10:42:20Z</time>
      </trkpt>
      <trkpt lat="45.65137" lon="5.97991">
        <ele>1345.1800537109</ele>
        <time>2010-06-13T10:42:27Z</time>
      </trkpt>
      <trkpt lat="45.65145" lon="5.97982">
        <ele>1346.3879394531</ele>
        <time>2010-06-13T10:42:33Z</time>
      </trkpt>
      <trkpt lat="45.65153" lon="5.97976">
        <ele>1347.5279541016</ele>
        <time>2010-06-13T10:42:38Z</time>
      </trkpt>
      <trkpt lat="45.65165" lon="5.97968">
        <ele>1349.1590576172</ele>
        <time>2010-06-13T10:42:46Z</time>
      </trkpt>
      <trkpt lat="45.65171" lon="5.97966">
        <ele>1350.6030273438</ele>
        <time>2010-06-13T10:42:50Z</time>
      </trkpt>
      <trkpt lat="45.65181" lon="5.97958">
        <ele>1353.0109863281</ele>
        <time>2010-06-13T10:42:58Z</time>
      </trkpt>
      <trkpt lat="45.65191" lon="5.97953">
        <ele>1354.1770019531</ele>
        <time>2010-06-13T10:43:04Z</time>
      </trkpt>
      <trkpt lat="45.65202" lon="5.97945">
        <ele>1356.70703125</ele>
        <time>2010-06-13T10:43:13Z</time>
      </trkpt>
      <trkpt lat="45.65211" lon="5.97943">
        <ele>1359.4040527344</ele>
        <time>2010-06-13T10:43:21Z</time>
      </trkpt>
      <trkpt lat="45.65216" lon="5.97944">
        <ele>1360.5620117188</ele>
        <time>2010-06-13T10:43:25Z</time>
      </trkpt>
      <trkpt lat="45.65226" lon="5.97938">
        <ele>1362.7209472656</ele>
        <time>2010-06-13T10:43:34Z</time>
      </trkpt>
      <trkpt lat="45.65228" lon="5.97932">
        <ele>1363.8060302734</ele>
        <time>2010-06-13T10:43:39Z</time>
      </trkpt>
      <trkpt lat="45.65232" lon="5.97921">
        <ele>1366.4310302734</ele>
        <time>2010-06-13T10:43:49Z</time>
      </trkpt>
      <trkpt lat="45.65234" lon="5.97909">
        <ele>1368.2559814453</ele>
        <time>2010-06-13T10:43:57Z</time>
      </trkpt>
      <trkpt lat="45.65236" lon="5.97902">
        <ele>1368.8599853516</ele>
        <time>2010-06-13T10:44:01Z</time>
      </trkpt>
      <trkpt lat="45.65232" lon="5.97884">
        <ele>1370.998046875</ele>
        <time>2010-06-13T10:44:12Z</time>
      </trkpt>
      <trkpt lat="45.65229" lon="5.97873">
        <ele>1371.9360351562</ele>
        <time>2010-06-13T10:44:19Z</time>
      </trkpt>
      <trkpt lat="45.65229" lon="5.97869">
        <ele>1372.0030517578</ele>
        <time>2010-06-13T10:44:21Z</time>
      </trkpt>
      <trkpt lat="45.65225" lon="5.97854">
        <ele>1372.6879882812</ele>
        <time>2010-06-13T10:44:28Z</time>
      </trkpt>
      <trkpt lat="45.6522" lon="5.97836">
        <ele>1373.0009765625</ele>
        <time>2010-06-13T10:44:36Z</time>
      </trkpt>
      <trkpt lat="45.65213" lon="5.97826">
        <ele>1374.3160400391</ele>
        <time>2010-06-13T10:44:44Z</time>
      </trkpt>
      <trkpt lat="45.65207" lon="5.97812">
        <ele>1375.2810058594</ele>
        <time>2010-06-13T10:44:51Z</time>
      </trkpt>
      <trkpt lat="45.65208" lon="5.97796">
        <ele>1377.1479492188</ele>
        <time>2010-06-13T10:44:58Z</time>
      </trkpt>
      <trkpt lat="45.65209" lon="5.97793">
        <ele>1377.3199462891</ele>
        <time>2010-06-13T10:45:00Z</time>
      </trkpt>
      <trkpt lat="45.65209" lon="5.97781">
        <ele>1377.623046875</ele>
        <time>2010-06-13T10:45:08Z</time>
      </trkpt>
      <trkpt lat="45.65208" lon="5.97778">
        <ele>1377.7299804688</ele>
        <time>2010-06-13T10:45:10Z</time>
      </trkpt>
      <trkpt lat="45.65207" lon="5.97761">
        <ele>1377.7149658203</ele>
        <time>2010-06-13T10:45:18Z</time>
      </trkpt>
      <trkpt lat="45.65202" lon="5.97744">
        <ele>1379.0729980469</ele>
        <time>2010-06-13T10:45:25Z</time>
      </trkpt>
      <trkpt lat="45.65191" lon="5.97724">
        <ele>1380.6529541016</ele>
        <time>2010-06-13T10:45:34Z</time>
      </trkpt>
      <trkpt lat="45.65181" lon="5.97709">
        <ele>1381.6889648438</ele>
        <time>2010-06-13T10:45:42Z</time>
      </trkpt>
      <trkpt lat="45.65174" lon="5.97703">
        <ele>1382.6829833984</ele>
        <time>2010-06-13T10:45:46Z</time>
      </trkpt>
      <trkpt lat="45.65165" lon="5.97699">
        <ele>1383.9510498047</ele>
        <time>2010-06-13T10:45:52Z</time>
      </trkpt>
      <trkpt lat="45.65151" lon="5.977">
        <ele>1385.5860595703</ele>
        <time>2010-06-13T10:45:58Z</time>
      </trkpt>
      <trkpt lat="45.65134" lon="5.97699">
        <ele>1386.8640136719</ele>
        <time>2010-06-13T10:46:05Z</time>
      </trkpt>
      <trkpt lat="45.65115" lon="5.97693">
        <ele>1389.1719970703</ele>
        <time>2010-06-13T10:46:15Z</time>
      </trkpt>
      <trkpt lat="45.65104" lon="5.97679">
        <ele>1390.5040283203</ele>
        <time>2010-06-13T10:46:22Z</time>
      </trkpt>
      <trkpt lat="45.65093" lon="5.97661">
        <ele>1389.9050292969</ele>
        <time>2010-06-13T10:46:29Z</time>
      </trkpt>
      <trkpt lat="45.65081" lon="5.97637">
        <ele>1390.8249511719</ele>
        <time>2010-06-13T10:46:37Z</time>
      </trkpt>
      <trkpt lat="45.65069" lon="5.97604">
        <ele>1391.6450195312</ele>
        <time>2010-06-13T10:46:48Z</time>
      </trkpt>
      <trkpt lat="45.65069" lon="5.97599">
        <ele>1392.2869873047</ele>
        <time>2010-06-13T10:46:53Z</time>
      </trkpt>
      <trkpt lat="45.65072" lon="5.976">
        <ele>1392.6719970703</ele>
        <time>2010-06-13T10:47:27Z</time>
      </trkpt>
      <trkpt lat="45.65071" lon="5.97598">
        <ele>1392.5710449219</ele>
        <time>2010-06-13T10:47:30Z</time>
      </trkpt>
      <trkpt lat="45.65071" lon="5.97599">
        <ele>1392.4759521484</ele>
        <time>2010-06-13T10:47:53Z</time>
      </trkpt>
      <trkpt lat="45.65071" lon="5.976">
        <ele>1392.5649414062</ele>
        <time>2010-06-13T10:47:54Z</time>
      </trkpt>
      <trkpt lat="45.65071" lon="5.976">
        <ele>1392.4599609375</ele>
        <time>2010-06-13T10:47:56Z</time>
      </trkpt>
      <trkpt lat="45.65073" lon="5.97603">
        <ele>1392.501953125</ele>
        <time>2010-06-13T10:48:14Z</time>
      </trkpt>
      <trkpt lat="45.65072" lon="5.97601">
        <ele>1392.5350341797</ele>
        <time>2010-06-13T10:48:18Z</time>
      </trkpt>
      <trkpt lat="45.65071" lon="5.97601">
        <ele>1392.5439453125</ele>
        <time>2010-06-13T10:48:21Z</time>
      </trkpt>
      <trkpt lat="45.65073" lon="5.97589">
        <ele>1392.6789550781</ele>
        <time>2010-06-13T10:48:40Z</time>
      </trkpt>
      <trkpt lat="45.65077" lon="5.97576">
        <ele>1393.5310058594</ele>
        <time>2010-06-13T10:48:46Z</time>
      </trkpt>
      <trkpt lat="45.65077" lon="5.97561">
        <ele>1394.6140136719</ele>
        <time>2010-06-13T10:48:53Z</time>
      </trkpt>
      <trkpt lat="45.65077" lon="5.97546">
        <ele>1396.251953125</ele>
        <time>2010-06-13T10:49:01Z</time>
      </trkpt>
      <trkpt lat="45.65079" lon="5.9754">
        <ele>1397.2030029297</ele>
        <time>2010-06-13T10:49:04Z</time>
      </trkpt>
      <trkpt lat="45.65078" lon="5.97536">
        <ele>1397.5560302734</ele>
        <time>2010-06-13T10:49:06Z</time>
      </trkpt>
      <trkpt lat="45.65076" lon="5.97527">
        <ele>1398.5279541016</ele>
        <time>2010-06-13T10:49:11Z</time>
      </trkpt>
      <trkpt lat="45.65075" lon="5.97519">
        <ele>1399.1510009766</ele>
        <time>2010-06-13T10:49:15Z</time>
      </trkpt>
      <trkpt lat="45.65074" lon="5.97509">
        <ele>1400.6750488281</ele>
        <time>2010-06-13T10:49:21Z</time>
      </trkpt>
      <trkpt lat="45.65078" lon="5.97496">
        <ele>1402.0469970703</ele>
        <time>2010-06-13T10:49:30Z</time>
      </trkpt>
      <trkpt lat="45.65082" lon="5.97484">
        <ele>1403.6429443359</ele>
        <time>2010-06-13T10:49:38Z</time>
      </trkpt>
      <trkpt lat="45.65083" lon="5.97473">
        <ele>1405.9799804688</ele>
        <time>2010-06-13T10:49:46Z</time>
      </trkpt>
      <trkpt lat="45.65086" lon="5.97458">
        <ele>1408.0949707031</ele>
        <time>2010-06-13T10:49:57Z</time>
      </trkpt>
      <trkpt lat="45.65086" lon="5.97446">
        <ele>1409.6579589844</ele>
        <time>2010-06-13T10:50:04Z</time>
      </trkpt>
      <trkpt lat="45.65085" lon="5.97435">
        <ele>1411.2060546875</ele>
        <time>2010-06-13T10:50:12Z</time>
      </trkpt>
      <trkpt lat="45.65086" lon="5.97434">
        <ele>1411.4439697266</ele>
        <time>2010-06-13T10:50:13Z</time>
      </trkpt>
      <trkpt lat="45.65089" lon="5.97425">
        <ele>1412.7540283203</ele>
        <time>2010-06-13T10:50:20Z</time>
      </trkpt>
      <trkpt lat="45.65093" lon="5.97413">
        <ele>1414.9639892578</ele>
        <time>2010-06-13T10:50:29Z</time>
      </trkpt>
      <trkpt lat="45.65096" lon="5.97405">
        <ele>1416.4360351562</ele>
        <time>2010-06-13T10:50:35Z</time>
      </trkpt>
      <trkpt lat="45.65095" lon="5.97398">
        <ele>1417.9310302734</ele>
        <time>2010-06-13T10:50:43Z</time>
      </trkpt>
      <trkpt lat="45.65095" lon="5.97398">
        <ele>1418.0300292969</ele>
        <time>2010-06-13T10:50:44Z</time>
      </trkpt>
      <trkpt lat="45.65099" lon="5.97391">
        <ele>1418.5260009766</ele>
        <time>2010-06-13T10:50:54Z</time>
      </trkpt>
      <trkpt lat="45.65099" lon="5.97381">
        <ele>1420.0389404297</ele>
        <time>2010-06-13T10:51:00Z</time>
      </trkpt>
      <trkpt lat="45.651" lon="5.97371">
        <ele>1420.9909667969</ele>
        <time>2010-06-13T10:51:07Z</time>
      </trkpt>
      <trkpt lat="45.65102" lon="5.97365">
        <ele>1421.8360595703</ele>
        <time>2010-06-13T10:51:11Z</time>
      </trkpt>
      <trkpt lat="45.65098" lon="5.97361">
        <ele>1422.8819580078</ele>
        <time>2010-06-13T10:51:15Z</time>
      </trkpt>
      <trkpt lat="45.65091" lon="5.97356">
        <ele>1423.9019775391</ele>
        <time>2010-06-13T10:51:21Z</time>
      </trkpt>
      <trkpt lat="45.65092" lon="5.97347">
        <ele>1425.4449462891</ele>
        <time>2010-06-13T10:51:27Z</time>
      </trkpt>
      <trkpt lat="45.65099" lon="5.97337">
        <ele>1426.6510009766</ele>
        <time>2010-06-13T10:51:35Z</time>
      </trkpt>
      <trkpt lat="45.65093" lon="5.97327">
        <ele>1428.1350097656</ele>
        <time>2010-06-13T10:51:42Z</time>
      </trkpt>
      <trkpt lat="45.65091" lon="5.97325">
        <ele>1428.3360595703</ele>
        <time>2010-06-13T10:51:44Z</time>
      </trkpt>
      <trkpt lat="45.65074" lon="5.97324">
        <ele>1430.0080566406</ele>
        <time>2010-06-13T10:51:56Z</time>
      </trkpt>
      <trkpt lat="45.65065" lon="5.97315">
        <ele>1431.4169921875</ele>
        <time>2010-06-13T10:52:04Z</time>
      </trkpt>
      <trkpt lat="45.65064" lon="5.97313">
        <ele>1431.4890136719</ele>
        <time>2010-06-13T10:52:05Z</time>
      </trkpt>
      <trkpt lat="45.65058" lon="5.97315">
        <ele>1432.6999511719</ele>
        <time>2010-06-13T10:52:10Z</time>
      </trkpt>
      <trkpt lat="45.65053" lon="5.97313">
        <ele>1433.3809814453</ele>
        <time>2010-06-13T10:52:14Z</time>
      </trkpt>
      <trkpt lat="45.65038" lon="5.97306">
        <ele>1434.4870605469</ele>
        <time>2010-06-13T10:52:24Z</time>
      </trkpt>
      <trkpt lat="45.65024" lon="5.973">
        <ele>1435.4479980469</ele>
        <time>2010-06-13T10:52:33Z</time>
      </trkpt>
      <trkpt lat="45.65012" lon="5.97293">
        <ele>1437.791015625</ele>
        <time>2010-06-13T10:52:42Z</time>
      </trkpt>
      <trkpt lat="45.65009" lon="5.9729">
        <ele>1439.1140136719</ele>
        <time>2010-06-13T10:52:48Z</time>
      </trkpt>
      <trkpt lat="45.65003" lon="5.97287">
        <ele>1441.3879394531</ele>
        <time>2010-06-13T10:52:57Z</time>
      </trkpt>
      <trkpt lat="45.64996" lon="5.97282">
        <ele>1443.5720214844</ele>
        <time>2010-06-13T10:53:06Z</time>
      </trkpt>
      <trkpt lat="45.64995" lon="5.97281">
        <ele>1443.5050048828</ele>
        <time>2010-06-13T10:53:07Z</time>
      </trkpt>
      <trkpt lat="45.6499" lon="5.97277">
        <ele>1444.2860107422</ele>
        <time>2010-06-13T10:53:12Z</time>
      </trkpt>
      <trkpt lat="45.64986" lon="5.97276">
        <ele>1445.9809570312</ele>
        <time>2010-06-13T10:53:16Z</time>
      </trkpt>
      <trkpt lat="45.64985" lon="5.97275">
        <ele>1446.4460449219</ele>
        <time>2010-06-13T10:53:18Z</time>
      </trkpt>
      <trkpt lat="45.64981" lon="5.97267">
        <ele>1448.2220458984</ele>
        <time>2010-06-13T10:53:27Z</time>
      </trkpt>
      <trkpt lat="45.6498" lon="5.97265">
        <ele>1448.8690185547</ele>
        <time>2010-06-13T10:53:31Z</time>
      </trkpt>
      <trkpt lat="45.64977" lon="5.97244">
        <ele>1450.9210205078</ele>
        <time>2010-06-13T10:53:49Z</time>
      </trkpt>
      <trkpt lat="45.64979" lon="5.97231">
        <ele>1452.5419921875</ele>
        <time>2010-06-13T10:53:56Z</time>
      </trkpt>
      <trkpt lat="45.6498" lon="5.97213">
        <ele>1454.0720214844</ele>
        <time>2010-06-13T10:54:05Z</time>
      </trkpt>
      <trkpt lat="45.64978" lon="5.97199">
        <ele>1455.6889648438</ele>
        <time>2010-06-13T10:54:13Z</time>
      </trkpt>
      <trkpt lat="45.64975" lon="5.97186">
        <ele>1457.1839599609</ele>
        <time>2010-06-13T10:54:20Z</time>
      </trkpt>
      <trkpt lat="45.64973" lon="5.97174">
        <ele>1458.7259521484</ele>
        <time>2010-06-13T10:54:27Z</time>
      </trkpt>
      <trkpt lat="45.64969" lon="5.97161">
        <ele>1460.1850585938</ele>
        <time>2010-06-13T10:54:35Z</time>
      </trkpt>
      <trkpt lat="45.64965" lon="5.97148">
        <ele>1462.3299560547</ele>
        <time>2010-06-13T10:54:43Z</time>
      </trkpt>
      <trkpt lat="45.64965" lon="5.97146">
        <ele>1462.4790039062</ele>
        <time>2010-06-13T10:54:44Z</time>
      </trkpt>
      <trkpt lat="45.64957" lon="5.97136">
        <ele>1464.5329589844</ele>
        <time>2010-06-13T10:54:53Z</time>
      </trkpt>
      <trkpt lat="45.64948" lon="5.9713">
        <ele>1466.2860107422</ele>
        <time>2010-06-13T10:55:02Z</time>
      </trkpt>
      <trkpt lat="45.64945" lon="5.97128">
        <ele>1466.7869873047</ele>
        <time>2010-06-13T10:55:04Z</time>
      </trkpt>
      <trkpt lat="45.64936" lon="5.97129">
        <ele>1468.1340332031</ele>
        <time>2010-06-13T10:55:12Z</time>
      </trkpt>
      <trkpt lat="45.64931" lon="5.97128">
        <ele>1469.0290527344</ele>
        <time>2010-06-13T10:55:16Z</time>
      </trkpt>
      <trkpt lat="45.64927" lon="5.9713">
        <ele>1469.5250244141</ele>
        <time>2010-06-13T10:55:20Z</time>
      </trkpt>
      <trkpt lat="45.64923" lon="5.97132">
        <ele>1470.2139892578</ele>
        <time>2010-06-13T10:55:24Z</time>
      </trkpt>
      <trkpt lat="45.64916" lon="5.97136">
        <ele>1471.0279541016</ele>
        <time>2010-06-13T10:55:31Z</time>
      </trkpt>
      <trkpt lat="45.64912" lon="5.97142">
        <ele>1471.625</ele>
        <time>2010-06-13T10:55:36Z</time>
      </trkpt>
      <trkpt lat="45.64909" lon="5.97142">
        <ele>1471.7840576172</ele>
        <time>2010-06-13T10:55:40Z</time>
      </trkpt>
      <trkpt lat="45.64896" lon="5.97138">
        <ele>1473.8370361328</ele>
        <time>2010-06-13T10:55:49Z</time>
      </trkpt>
      <trkpt lat="45.64887" lon="5.9714">
        <ele>1475.66796875</ele>
        <time>2010-06-13T10:55:56Z</time>
      </trkpt>
      <trkpt lat="45.64886" lon="5.97139">
        <ele>1476.08203125</ele>
        <time>2010-06-13T10:55:57Z</time>
      </trkpt>
      <trkpt lat="45.64876" lon="5.97141">
        <ele>1478.0799560547</ele>
        <time>2010-06-13T10:56:05Z</time>
      </trkpt>
      <trkpt lat="45.64867" lon="5.9714">
        <ele>1479.1049804688</ele>
        <time>2010-06-13T10:56:11Z</time>
      </trkpt>
      <trkpt lat="45.64853" lon="5.97137">
        <ele>1480.2950439453</ele>
        <time>2010-06-13T10:56:20Z</time>
      </trkpt>
      <trkpt lat="45.64837" lon="5.97126">
        <ele>1482.3719482422</ele>
        <time>2010-06-13T10:56:30Z</time>
      </trkpt>
      <trkpt lat="45.64823" lon="5.97122">
        <ele>1483.3690185547</ele>
        <time>2010-06-13T10:56:38Z</time>
      </trkpt>
      <trkpt lat="45.64807" lon="5.97118">
        <ele>1484.1550292969</ele>
        <time>2010-06-13T10:56:47Z</time>
      </trkpt>
      <trkpt lat="45.64789" lon="5.97109">
        <ele>1485.8919677734</ele>
        <time>2010-06-13T10:56:57Z</time>
      </trkpt>
      <trkpt lat="45.6477" lon="5.97103">
        <ele>1489.0710449219</ele>
        <time>2010-06-13T10:57:07Z</time>
      </trkpt>
      <trkpt lat="45.64753" lon="5.97095">
        <ele>1491.2149658203</ele>
        <time>2010-06-13T10:57:16Z</time>
      </trkpt>
      <trkpt lat="45.64735" lon="5.97087">
        <ele>1493.1569824219</ele>
        <time>2010-06-13T10:57:26Z</time>
      </trkpt>
      <trkpt lat="45.64719" lon="5.97081">
        <ele>1494.2399902344</ele>
        <time>2010-06-13T10:57:35Z</time>
      </trkpt>
      <trkpt lat="45.64705" lon="5.97071">
        <ele>1494.9239501953</ele>
        <time>2010-06-13T10:57:44Z</time>
      </trkpt>
      <trkpt lat="45.6469" lon="5.97061">
        <ele>1496.1779785156</ele>
        <time>2010-06-13T10:57:53Z</time>
      </trkpt>
      <trkpt lat="45.64684" lon="5.97059">
        <ele>1496.16796875</ele>
        <time>2010-06-13T10:57:57Z</time>
      </trkpt>
      <trkpt lat="45.6468" lon="5.97064">
        <ele>1496.9379882812</ele>
        <time>2010-06-13T10:58:01Z</time>
      </trkpt>
      <trkpt lat="45.64679" lon="5.97075">
        <ele>1496.5980224609</ele>
        <time>2010-06-13T10:58:06Z</time>
      </trkpt>
      <trkpt lat="45.64681" lon="5.9708">
        <ele>1496.2490234375</ele>
        <time>2010-06-13T10:58:11Z</time>
      </trkpt>
      <trkpt lat="45.64683" lon="5.97082">
        <ele>1497.5710449219</ele>
        <time>2010-06-13T11:11:35Z</time>
      </trkpt>
      <trkpt lat="45.64685" lon="5.97082">
        <ele>1497.6009521484</ele>
        <time>2010-06-13T11:11:36Z</time>
      </trkpt>
      <trkpt lat="45.64688" lon="5.97084">
        <ele>1497.5880126953</ele>
        <time>2010-06-13T11:11:38Z</time>
      </trkpt>
      <trkpt lat="45.64697" lon="5.97088">
        <ele>1497.2609863281</ele>
        <time>2010-06-13T11:11:42Z</time>
      </trkpt>
      <trkpt lat="45.64698" lon="5.97089">
        <ele>1497.1409912109</ele>
        <time>2010-06-13T11:11:43Z</time>
      </trkpt>
      <trkpt lat="45.64711" lon="5.971">
        <ele>1496.8559570312</ele>
        <time>2010-06-13T11:11:49Z</time>
      </trkpt>
      <trkpt lat="45.64723" lon="5.97108">
        <ele>1495.375</ele>
        <time>2010-06-13T11:11:54Z</time>
      </trkpt>
      <trkpt lat="45.64746" lon="5.97114">
        <ele>1493.2220458984</ele>
        <time>2010-06-13T11:12:01Z</time>
      </trkpt>
      <trkpt lat="45.6475" lon="5.97114">
        <ele>1492.9219970703</ele>
        <time>2010-06-13T11:12:02Z</time>
      </trkpt>
      <trkpt lat="45.64759" lon="5.97117">
        <ele>1492.5030517578</ele>
        <time>2010-06-13T11:12:04Z</time>
      </trkpt>
      <trkpt lat="45.64779" lon="5.97115">
        <ele>1491.5140380859</ele>
        <time>2010-06-13T11:12:08Z</time>
      </trkpt>
      <trkpt lat="45.64808" lon="5.97124">
        <ele>1486.4479980469</ele>
        <time>2010-06-13T11:12:12Z</time>
      </trkpt>
      <trkpt lat="45.64828" lon="5.97129">
        <ele>1484.75</ele>
        <time>2010-06-13T11:12:15Z</time>
      </trkpt>
      <trkpt lat="45.6486" lon="5.97145">
        <ele>1482.1760253906</ele>
        <time>2010-06-13T11:12:20Z</time>
      </trkpt>
      <trkpt lat="45.64867" lon="5.97144">
        <ele>1481.1920166016</ele>
        <time>2010-06-13T11:12:21Z</time>
      </trkpt>
      <trkpt lat="45.64893" lon="5.97141">
        <ele>1477.8630371094</ele>
        <time>2010-06-13T11:12:25Z</time>
      </trkpt>
      <trkpt lat="45.64908" lon="5.97151">
        <ele>1474.7779541016</ele>
        <time>2010-06-13T11:12:29Z</time>
      </trkpt>
      <trkpt lat="45.64913" lon="5.97176">
        <ele>1472.2939453125</ele>
        <time>2010-06-13T11:12:33Z</time>
      </trkpt>
      <trkpt lat="45.64925" lon="5.97182">
        <ele>1469.7669677734</ele>
        <time>2010-06-13T11:12:36Z</time>
      </trkpt>
      <trkpt lat="45.64932" lon="5.97179">
        <ele>1469.0539550781</ele>
        <time>2010-06-13T11:12:38Z</time>
      </trkpt>
      <trkpt lat="45.64941" lon="5.97183">
        <ele>1468.3819580078</ele>
        <time>2010-06-13T11:12:42Z</time>
      </trkpt>
      <trkpt lat="45.64946" lon="5.97197">
        <ele>1468.0670166016</ele>
        <time>2010-06-13T11:12:46Z</time>
      </trkpt>
      <trkpt lat="45.64941" lon="5.97205">
        <ele>1467.123046875</ele>
        <time>2010-06-13T11:12:50Z</time>
      </trkpt>
      <trkpt lat="45.64932" lon="5.97215">
        <ele>1464.7900390625</ele>
        <time>2010-06-13T11:12:54Z</time>
      </trkpt>
      <trkpt lat="45.64936" lon="5.97228">
        <ele>1462.7099609375</ele>
        <time>2010-06-13T11:12:58Z</time>
      </trkpt>
      <trkpt lat="45.6494" lon="5.97237">
        <ele>1460.1080322266</ele>
        <time>2010-06-13T11:13:01Z</time>
      </trkpt>
      <trkpt lat="45.64944" lon="5.97237">
        <ele>1458.8039550781</ele>
        <time>2010-06-13T11:13:03Z</time>
      </trkpt>
      <trkpt lat="45.64947" lon="5.97242">
        <ele>1457.7810058594</ele>
        <time>2010-06-13T11:13:06Z</time>
      </trkpt>
      <trkpt lat="45.64952" lon="5.97257">
        <ele>1454.1409912109</ele>
        <time>2010-06-13T11:13:11Z</time>
      </trkpt>
      <trkpt lat="45.64943" lon="5.97266">
        <ele>1451.7969970703</ele>
        <time>2010-06-13T11:13:16Z</time>
      </trkpt>
      <trkpt lat="45.6494" lon="5.97274">
        <ele>1450.1519775391</ele>
        <time>2010-06-13T11:13:19Z</time>
      </trkpt>
      <trkpt lat="45.64939" lon="5.9728">
        <ele>1449.0959472656</ele>
        <time>2010-06-13T11:13:21Z</time>
      </trkpt>
      <trkpt lat="45.64942" lon="5.9729">
        <ele>1447.2330322266</ele>
        <time>2010-06-13T11:13:26Z</time>
      </trkpt>
      <trkpt lat="45.64944" lon="5.97293">
        <ele>1446.501953125</ele>
        <time>2010-06-13T11:13:28Z</time>
      </trkpt>
      <trkpt lat="45.64943" lon="5.97303">
        <ele>1444.7139892578</ele>
        <time>2010-06-13T11:13:33Z</time>
      </trkpt>
      <trkpt lat="45.64934" lon="5.97317">
        <ele>1443.4139404297</ele>
        <time>2010-06-13T11:13:40Z</time>
      </trkpt>
      <trkpt lat="45.64936" lon="5.97324">
        <ele>1441.2139892578</ele>
        <time>2010-06-13T11:13:44Z</time>
      </trkpt>
      <trkpt lat="45.64937" lon="5.97326">
        <ele>1440.5930175781</ele>
        <time>2010-06-13T11:13:45Z</time>
      </trkpt>
      <trkpt lat="45.64946" lon="5.9733">
        <ele>1438.6879882812</ele>
        <time>2010-06-13T11:13:50Z</time>
      </trkpt>
      <trkpt lat="45.64962" lon="5.97336">
        <ele>1434.2270507812</ele>
        <time>2010-06-13T11:13:55Z</time>
      </trkpt>
      <trkpt lat="45.64971" lon="5.97342">
        <ele>1432.1540527344</ele>
        <time>2010-06-13T11:13:57Z</time>
      </trkpt>
      <trkpt lat="45.65002" lon="5.97353">
        <ele>1429.1929931641</ele>
        <time>2010-06-13T11:14:04Z</time>
      </trkpt>
      <trkpt lat="45.65014" lon="5.9735">
        <ele>1430.5939941406</ele>
        <time>2010-06-13T11:14:08Z</time>
      </trkpt>
      <trkpt lat="45.65029" lon="5.97342">
        <ele>1431.6169433594</ele>
        <time>2010-06-13T11:14:13Z</time>
      </trkpt>
      <trkpt lat="45.65044" lon="5.97349">
        <ele>1430.7380371094</ele>
        <time>2010-06-13T11:14:17Z</time>
      </trkpt>
      <trkpt lat="45.65052" lon="5.97362">
        <ele>1428.2020263672</ele>
        <time>2010-06-13T11:14:21Z</time>
      </trkpt>
      <trkpt lat="45.65053" lon="5.97365">
        <ele>1427.9739990234</ele>
        <time>2010-06-13T11:14:22Z</time>
      </trkpt>
      <trkpt lat="45.65054" lon="5.9737">
        <ele>1427.1529541016</ele>
        <time>2010-06-13T11:14:24Z</time>
      </trkpt>
      <trkpt lat="45.65051" lon="5.97384">
        <ele>1425.5240478516</ele>
        <time>2010-06-13T11:14:28Z</time>
      </trkpt>
      <trkpt lat="45.6504" lon="5.97401">
        <ele>1423.0059814453</ele>
        <time>2010-06-13T11:14:34Z</time>
      </trkpt>
      <trkpt lat="45.65036" lon="5.97406">
        <ele>1421.4210205078</ele>
        <time>2010-06-13T11:14:36Z</time>
      </trkpt>
      <trkpt lat="45.65039" lon="5.97418">
        <ele>1419.9239501953</ele>
        <time>2010-06-13T11:14:39Z</time>
      </trkpt>
      <trkpt lat="45.65046" lon="5.97425">
        <ele>1418.45703125</ele>
        <time>2010-06-13T11:14:42Z</time>
      </trkpt>
      <trkpt lat="45.65052" lon="5.97433">
        <ele>1418.0729980469</ele>
        <time>2010-06-13T11:14:46Z</time>
      </trkpt>
      <trkpt lat="45.65047" lon="5.9744">
        <ele>1416.3349609375</ele>
        <time>2010-06-13T11:14:50Z</time>
      </trkpt>
      <trkpt lat="45.65043" lon="5.97441">
        <ele>1415.6159667969</ele>
        <time>2010-06-13T11:14:52Z</time>
      </trkpt>
      <trkpt lat="45.65033" lon="5.97449">
        <ele>1413.1820068359</ele>
        <time>2010-06-13T11:14:56Z</time>
      </trkpt>
      <trkpt lat="45.65028" lon="5.97452">
        <ele>1412.0889892578</ele>
        <time>2010-06-13T11:14:58Z</time>
      </trkpt>
      <trkpt lat="45.65013" lon="5.97454">
        <ele>1410.9399414062</ele>
        <time>2010-06-13T11:15:04Z</time>
      </trkpt>
      <trkpt lat="45.65" lon="5.97458">
        <ele>1408.5419921875</ele>
        <time>2010-06-13T11:15:08Z</time>
      </trkpt>
      <trkpt lat="45.64996" lon="5.97465">
        <ele>1407.1319580078</ele>
        <time>2010-06-13T11:15:10Z</time>
      </trkpt>
      <trkpt lat="45.64985" lon="5.97482">
        <ele>1403.7449951172</ele>
        <time>2010-06-13T11:15:14Z</time>
      </trkpt>
      <trkpt lat="45.64986" lon="5.97497">
        <ele>1401.5379638672</ele>
        <time>2010-06-13T11:15:18Z</time>
      </trkpt>
      <trkpt lat="45.64988" lon="5.975">
        <ele>1401.3609619141</ele>
        <time>2010-06-13T11:15:19Z</time>
      </trkpt>
      <trkpt lat="45.65002" lon="5.97512">
        <ele>1400.8740234375</ele>
        <time>2010-06-13T11:15:25Z</time>
      </trkpt>
      <trkpt lat="45.6502" lon="5.97523">
        <ele>1401.3210449219</ele>
        <time>2010-06-13T11:15:32Z</time>
      </trkpt>
      <trkpt lat="45.65037" lon="5.97542">
        <ele>1400.8520507812</ele>
        <time>2010-06-13T11:15:38Z</time>
      </trkpt>
      <trkpt lat="45.65054" lon="5.97563">
        <ele>1398.4470214844</ele>
        <time>2010-06-13T11:15:43Z</time>
      </trkpt>
      <trkpt lat="45.65068" lon="5.97594">
        <ele>1395.1409912109</ele>
        <time>2010-06-13T11:15:47Z</time>
      </trkpt>
      <trkpt lat="45.65079" lon="5.9763">
        <ele>1393.1390380859</ele>
        <time>2010-06-13T11:15:51Z</time>
      </trkpt>
      <trkpt lat="45.65104" lon="5.97675">
        <ele>1392.123046875</ele>
        <time>2010-06-13T11:15:57Z</time>
      </trkpt>
      <trkpt lat="45.65126" lon="5.97703">
        <ele>1391.6779785156</ele>
        <time>2010-06-13T11:16:02Z</time>
      </trkpt>
      <trkpt lat="45.65136" lon="5.97715">
        <ele>1390.2170410156</ele>
        <time>2010-06-13T11:16:04Z</time>
      </trkpt>
      <trkpt lat="45.65146" lon="5.97726">
        <ele>1389.2189941406</ele>
        <time>2010-06-13T11:16:06Z</time>
      </trkpt>
      <trkpt lat="45.65171" lon="5.97741">
        <ele>1384.9539794922</ele>
        <time>2010-06-13T11:16:10Z</time>
      </trkpt>
      <trkpt lat="45.65192" lon="5.97752">
        <ele>1383.1650390625</ele>
        <time>2010-06-13T11:16:13Z</time>
      </trkpt>
      <trkpt lat="45.65198" lon="5.97764">
        <ele>1383.9429931641</ele>
        <time>2010-06-13T11:16:16Z</time>
      </trkpt>
      <trkpt lat="45.65208" lon="5.97773">
        <ele>1382.6290283203</ele>
        <time>2010-06-13T11:16:21Z</time>
      </trkpt>
      <trkpt lat="45.65217" lon="5.9777">
        <ele>1381.25</ele>
        <time>2010-06-13T11:16:26Z</time>
      </trkpt>
      <trkpt lat="45.65221" lon="5.97754">
        <ele>1381.2370605469</ele>
        <time>2010-06-13T11:16:31Z</time>
      </trkpt>
      <trkpt lat="45.65224" lon="5.97747">
        <ele>1381.3570556641</ele>
        <time>2010-06-13T11:16:33Z</time>
      </trkpt>
      <trkpt lat="45.65235" lon="5.97726">
        <ele>1381.5660400391</ele>
        <time>2010-06-13T11:16:39Z</time>
      </trkpt>
      <trkpt lat="45.6524" lon="5.97721">
        <ele>1382.0920410156</ele>
        <time>2010-06-13T11:16:41Z</time>
      </trkpt>
      <trkpt lat="45.65248" lon="5.97715">
        <ele>1382.6989746094</ele>
        <time>2010-06-13T11:16:44Z</time>
      </trkpt>
      <trkpt lat="45.65258" lon="5.97712">
        <ele>1382.6440429688</ele>
        <time>2010-06-13T11:16:49Z</time>
      </trkpt>
      <trkpt lat="45.65263" lon="5.97711">
        <ele>1382.708984375</ele>
        <time>2010-06-13T11:16:51Z</time>
      </trkpt>
      <trkpt lat="45.65274" lon="5.97704">
        <ele>1382.5159912109</ele>
        <time>2010-06-13T11:16:55Z</time>
      </trkpt>
      <trkpt lat="45.65287" lon="5.97708">
        <ele>1382.6510009766</ele>
        <time>2010-06-13T11:16:59Z</time>
      </trkpt>
      <trkpt lat="45.65291" lon="5.97708">
        <ele>1382.6059570312</ele>
        <time>2010-06-13T11:17:01Z</time>
      </trkpt>
      <trkpt lat="45.65308" lon="5.97717">
        <ele>1381.3330078125</ele>
        <time>2010-06-13T11:17:06Z</time>
      </trkpt>
      <trkpt lat="45.6533" lon="5.97721">
        <ele>1380.4580078125</ele>
        <time>2010-06-13T11:17:11Z</time>
      </trkpt>
      <trkpt lat="45.65339" lon="5.97723">
        <ele>1380.0570068359</ele>
        <time>2010-06-13T11:17:13Z</time>
      </trkpt>
      <trkpt lat="45.65363" lon="5.97727">
        <ele>1377.9689941406</ele>
        <time>2010-06-13T11:17:17Z</time>
      </trkpt>
      <trkpt lat="45.65369" lon="5.97731">
        <ele>1377.1109619141</ele>
        <time>2010-06-13T11:17:18Z</time>
      </trkpt>
      <trkpt lat="45.6538" lon="5.97738">
        <ele>1375.5970458984</ele>
        <time>2010-06-13T11:17:20Z</time>
      </trkpt>
      <trkpt lat="45.65389" lon="5.97746">
        <ele>1374.5329589844</ele>
        <time>2010-06-13T11:17:22Z</time>
      </trkpt>
      <trkpt lat="45.65402" lon="5.97764">
        <ele>1372.5830078125</ele>
        <time>2010-06-13T11:17:27Z</time>
      </trkpt>
      <trkpt lat="45.65413" lon="5.97782">
        <ele>1370.8590087891</ele>
        <time>2010-06-13T11:17:31Z</time>
      </trkpt>
      <trkpt lat="45.65414" lon="5.97788">
        <ele>1370.3399658203</ele>
        <time>2010-06-13T11:17:32Z</time>
      </trkpt>
      <trkpt lat="45.65418" lon="5.97823">
        <ele>1369.1519775391</ele>
        <time>2010-06-13T11:17:37Z</time>
      </trkpt>
      <trkpt lat="45.65431" lon="5.97853">
        <ele>1367.3380126953</ele>
        <time>2010-06-13T11:17:41Z</time>
      </trkpt>
      <trkpt lat="45.6543" lon="5.97893">
        <ele>1364.7280273438</ele>
        <time>2010-06-13T11:17:45Z</time>
      </trkpt>
      <trkpt lat="45.65429" lon="5.97904">
        <ele>1364.2750244141</ele>
        <time>2010-06-13T11:17:46Z</time>
      </trkpt>
      <trkpt lat="45.65428" lon="5.97936">
        <ele>1363.208984375</ele>
        <time>2010-06-13T11:17:49Z</time>
      </trkpt>
      <trkpt lat="45.65429" lon="5.97959">
        <ele>1362.3699951172</ele>
        <time>2010-06-13T11:17:51Z</time>
      </trkpt>
      <trkpt lat="45.65432" lon="5.97975">
        <ele>1362.416015625</ele>
        <time>2010-06-13T11:17:54Z</time>
      </trkpt>
      <trkpt lat="45.65425" lon="5.97973">
        <ele>1362.8249511719</ele>
        <time>2010-06-13T11:17:57Z</time>
      </trkpt>
      <trkpt lat="45.65417" lon="5.97965">
        <ele>1362.8110351562</ele>
        <time>2010-06-13T11:18:00Z</time>
      </trkpt>
      <trkpt lat="45.65404" lon="5.97955">
        <ele>1363.0150146484</ele>
        <time>2010-06-13T11:18:03Z</time>
      </trkpt>
      <trkpt lat="45.65389" lon="5.97954">
        <ele>1364.7380371094</ele>
        <time>2010-06-13T11:18:07Z</time>
      </trkpt>
      <trkpt lat="45.65383" lon="5.97957">
        <ele>1365.3929443359</ele>
        <time>2010-06-13T11:18:09Z</time>
      </trkpt>
      <trkpt lat="45.65375" lon="5.97957">
        <ele>1365.6949462891</ele>
        <time>2010-06-13T11:18:12Z</time>
      </trkpt>
      <trkpt lat="45.65369" lon="5.9796">
        <ele>1365.8499755859</ele>
        <time>2010-06-13T11:18:14Z</time>
      </trkpt>
      <trkpt lat="45.65358" lon="5.97965">
        <ele>1366.3179931641</ele>
        <time>2010-06-13T11:18:18Z</time>
      </trkpt>
      <trkpt lat="45.65342" lon="5.97978">
        <ele>1365.8110351562</ele>
        <time>2010-06-13T11:18:23Z</time>
      </trkpt>
      <trkpt lat="45.65333" lon="5.97989">
        <ele>1365.6059570312</ele>
        <time>2010-06-13T11:18:25Z</time>
      </trkpt>
      <trkpt lat="45.65316" lon="5.98004">
        <ele>1363.5329589844</ele>
        <time>2010-06-13T11:18:28Z</time>
      </trkpt>
      <trkpt lat="45.65292" lon="5.98007">
        <ele>1361.2359619141</ele>
        <time>2010-06-13T11:18:32Z</time>
      </trkpt>
      <trkpt lat="45.65282" lon="5.98013">
        <ele>1360.9129638672</ele>
        <time>2010-06-13T11:18:34Z</time>
      </trkpt>
      <trkpt lat="45.65271" lon="5.98022">
        <ele>1359.6710205078</ele>
        <time>2010-06-13T11:18:36Z</time>
      </trkpt>
      <trkpt lat="45.65247" lon="5.98024">
        <ele>1356.0290527344</ele>
        <time>2010-06-13T11:18:40Z</time>
      </trkpt>
      <trkpt lat="45.65222" lon="5.98024">
        <ele>1356.1929931641</ele>
        <time>2010-06-13T11:18:45Z</time>
      </trkpt>
      <trkpt lat="45.65197" lon="5.98024">
        <ele>1354.0639648438</ele>
        <time>2010-06-13T11:18:49Z</time>
      </trkpt>
      <trkpt lat="45.65181" lon="5.98018">
        <ele>1353.1920166016</ele>
        <time>2010-06-13T11:18:51Z</time>
      </trkpt>
      <trkpt lat="45.65158" lon="5.98004">
        <ele>1350.5109863281</ele>
        <time>2010-06-13T11:18:54Z</time>
      </trkpt>
      <trkpt lat="45.65141" lon="5.98007">
        <ele>1349.0810546875</ele>
        <time>2010-06-13T11:18:57Z</time>
      </trkpt>
      <trkpt lat="45.65132" lon="5.98001">
        <ele>1349.3249511719</ele>
        <time>2010-06-13T11:19:00Z</time>
      </trkpt>
      <trkpt lat="45.65125" lon="5.97994">
        <ele>1349.6739501953</ele>
        <time>2010-06-13T11:19:02Z</time>
      </trkpt>
      <trkpt lat="45.65086" lon="5.97975">
        <ele>1351.1379394531</ele>
        <time>2010-06-13T11:19:10Z</time>
      </trkpt>
      <trkpt lat="45.65081" lon="5.97973">
        <ele>1351.4949951172</ele>
        <time>2010-06-13T11:19:11Z</time>
      </trkpt>
      <trkpt lat="45.6506" lon="5.97972">
        <ele>1353.3430175781</ele>
        <time>2010-06-13T11:19:16Z</time>
      </trkpt>
      <trkpt lat="45.6505" lon="5.97979">
        <ele>1354.1469726562</ele>
        <time>2010-06-13T11:19:19Z</time>
      </trkpt>
      <trkpt lat="45.65035" lon="5.98001">
        <ele>1352.7790527344</ele>
        <time>2010-06-13T11:19:23Z</time>
      </trkpt>
      <trkpt lat="45.65004" lon="5.98028">
        <ele>1345.1899414062</ele>
        <time>2010-06-13T11:19:27Z</time>
      </trkpt>
      <trkpt lat="45.64974" lon="5.98045">
        <ele>1339.3310546875</ele>
        <time>2010-06-13T11:19:30Z</time>
      </trkpt>
      <trkpt lat="45.64922" lon="5.98061">
        <ele>1333.6130371094</ele>
        <time>2010-06-13T11:19:35Z</time>
      </trkpt>
      <trkpt lat="45.64875" lon="5.98065">
        <ele>1331.6009521484</ele>
        <time>2010-06-13T11:19:40Z</time>
      </trkpt>
      <trkpt lat="45.64842" lon="5.98071">
        <ele>1330.2270507812</ele>
        <time>2010-06-13T11:19:45Z</time>
      </trkpt>
      <trkpt lat="45.64829" lon="5.98075">
        <ele>1328.4530029297</ele>
        <time>2010-06-13T11:19:47Z</time>
      </trkpt>
      <trkpt lat="45.64782" lon="5.98098">
        <ele>1322.41796875</ele>
        <time>2010-06-13T11:19:54Z</time>
      </trkpt>
      <trkpt lat="45.64778" lon="5.98099">
        <ele>1322.3170166016</ele>
        <time>2010-06-13T11:19:55Z</time>
      </trkpt>
      <trkpt lat="45.64777" lon="5.98111">
        <ele>1322.2860107422</ele>
        <time>2010-06-13T11:19:58Z</time>
      </trkpt>
      <trkpt lat="45.64787" lon="5.9812">
        <ele>1322.0290527344</ele>
        <time>2010-06-13T11:20:02Z</time>
      </trkpt>
      <trkpt lat="45.64799" lon="5.98133">
        <ele>1321.4350585938</ele>
        <time>2010-06-13T11:20:06Z</time>
      </trkpt>
      <trkpt lat="45.64806" lon="5.98138">
        <ele>1321.8280029297</ele>
        <time>2010-06-13T11:20:08Z</time>
      </trkpt>
      <trkpt lat="45.64816" lon="5.98131">
        <ele>1322.2299804688</ele>
        <time>2010-06-13T11:20:12Z</time>
      </trkpt>
      <trkpt lat="45.64822" lon="5.98132">
        <ele>1322.0379638672</ele>
        <time>2010-06-13T11:20:15Z</time>
      </trkpt>
      <trkpt lat="45.64831" lon="5.98155">
        <ele>1321.4360351562</ele>
        <time>2010-06-13T11:20:21Z</time>
      </trkpt>
      <trkpt lat="45.6484" lon="5.98193">
        <ele>1319.3360595703</ele>
        <time>2010-06-13T11:20:26Z</time>
      </trkpt>
      <trkpt lat="45.64844" lon="5.98212">
        <ele>1317.958984375</ele>
        <time>2010-06-13T11:20:28Z</time>
      </trkpt>
      <trkpt lat="45.64846" lon="5.9825">
        <ele>1316.2380371094</ele>
        <time>2010-06-13T11:20:32Z</time>
      </trkpt>
      <trkpt lat="45.6484" lon="5.9826">
        <ele>1315.9639892578</ele>
        <time>2010-06-13T11:20:34Z</time>
      </trkpt>
      <trkpt lat="45.64838" lon="5.9826">
        <ele>1315.8850097656</ele>
        <time>2010-06-13T11:20:37Z</time>
      </trkpt>
    </trkseg>
  </trk>
</gpx>